<?xml version="1.0" encoding="UTF-8" standalone="no" ?>
<gpx xmlns="http://www.topografix.com/GPX/1/1" xmlns:xsi="http://www.w3.org/2001/XMLSchema-instance" xsi:schemaLocation="http://www.topografix.com/GPX/1/1 http://www.topografix.com/GPX/1/1/gpx.xsd" version="1.1" creator="VisuGPX - https://www.visugpx.com">
  <metadata>
    <name>Créon - Carmarsac - Beychac et Caillaud</name>
    <desc><![CDATA[Randonnée VTT]]></desc>
  </metadata>
  <trk>
    <name><![CDATA[Creon Camarsac Beychac et caillau]]></name>
    <trkseg>
      <trkpt lat="44.7768" lon="-0.34984">
        <ele>99</ele>
        <time>2013-09-29T11:48:59Z</time>
      </trkpt>
      <trkpt lat="44.77707" lon="-0.35005">
        <ele>100</ele>
        <time>2013-09-29T11:49:07Z</time>
      </trkpt>
      <trkpt lat="44.77729" lon="-0.35022">
        <ele>101</ele>
        <time>2013-09-29T11:49:14Z</time>
      </trkpt>
      <trkpt lat="44.7775" lon="-0.35039">
        <ele>101</ele>
        <time>2013-09-29T11:49:21Z</time>
      </trkpt>
      <trkpt lat="44.77777" lon="-0.35059">
        <ele>101</ele>
        <time>2013-09-29T11:49:30Z</time>
      </trkpt>
      <trkpt lat="44.77793" lon="-0.35074">
        <ele>102</ele>
        <time>2013-09-29T11:49:36Z</time>
      </trkpt>
      <trkpt lat="44.77816" lon="-0.35095">
        <ele>102</ele>
        <time>2013-09-29T11:49:44Z</time>
      </trkpt>
      <trkpt lat="44.77838" lon="-0.35125">
        <ele>102</ele>
        <time>2013-09-29T11:49:52Z</time>
      </trkpt>
      <trkpt lat="44.77848" lon="-0.35142">
        <ele>102</ele>
        <time>2013-09-29T11:49:56Z</time>
      </trkpt>
      <trkpt lat="44.77851" lon="-0.35147">
        <ele>102</ele>
        <time>2013-09-29T11:49:57Z</time>
      </trkpt>
      <trkpt lat="44.77854" lon="-0.35152">
        <ele>102</ele>
        <time>2013-09-29T11:49:58Z</time>
      </trkpt>
      <trkpt lat="44.77866" lon="-0.35178">
        <ele>102</ele>
        <time>2013-09-29T11:50:03Z</time>
      </trkpt>
      <trkpt lat="44.77877" lon="-0.35198">
        <ele>102</ele>
        <time>2013-09-29T11:50:07Z</time>
      </trkpt>
      <trkpt lat="44.77899" lon="-0.35235">
        <ele>102</ele>
        <time>2013-09-29T11:50:15Z</time>
      </trkpt>
      <trkpt lat="44.77916" lon="-0.35263">
        <ele>102</ele>
        <time>2013-09-29T11:50:21Z</time>
      </trkpt>
      <trkpt lat="44.77948" lon="-0.35311">
        <ele>102</ele>
        <time>2013-09-29T11:50:31Z</time>
      </trkpt>
      <trkpt lat="44.77982" lon="-0.35357">
        <ele>102</ele>
        <time>2013-09-29T11:50:41Z</time>
      </trkpt>
      <trkpt lat="44.78014" lon="-0.35402">
        <ele>102</ele>
        <time>2013-09-29T11:50:50Z</time>
      </trkpt>
      <trkpt lat="44.7804" lon="-0.35446">
        <ele>102</ele>
        <time>2013-09-29T11:50:58Z</time>
      </trkpt>
      <trkpt lat="44.78067" lon="-0.35488">
        <ele>102</ele>
        <time>2013-09-29T11:51:06Z</time>
      </trkpt>
      <trkpt lat="44.78093" lon="-0.35528">
        <ele>102</ele>
        <time>2013-09-29T11:51:14Z</time>
      </trkpt>
      <trkpt lat="44.78112" lon="-0.35546">
        <ele>103</ele>
        <time>2013-09-29T11:51:19Z</time>
      </trkpt>
      <trkpt lat="44.78116" lon="-0.35549">
        <ele>103</ele>
        <time>2013-09-29T11:51:20Z</time>
      </trkpt>
      <trkpt lat="44.78152" lon="-0.35571">
        <ele>103</ele>
        <time>2013-09-29T11:51:29Z</time>
      </trkpt>
      <trkpt lat="44.78157" lon="-0.35572">
        <ele>103</ele>
        <time>2013-09-29T11:51:30Z</time>
      </trkpt>
      <trkpt lat="44.78168" lon="-0.35573">
        <ele>103</ele>
        <time>2013-09-29T11:51:32Z</time>
      </trkpt>
      <trkpt lat="44.78191" lon="-0.35589">
        <ele>102</ele>
        <time>2013-09-29T11:51:38Z</time>
      </trkpt>
      <trkpt lat="44.78222" lon="-0.35611">
        <ele>101</ele>
        <time>2013-09-29T11:51:45Z</time>
      </trkpt>
      <trkpt lat="44.78247" lon="-0.35637">
        <ele>101</ele>
        <time>2013-09-29T11:51:51Z</time>
      </trkpt>
      <trkpt lat="44.78285" lon="-0.35675">
        <ele>100</ele>
        <time>2013-09-29T11:51:59Z</time>
      </trkpt>
      <trkpt lat="44.78289" lon="-0.35679">
        <ele>100</ele>
        <time>2013-09-29T11:52:00Z</time>
      </trkpt>
      <trkpt lat="44.78338" lon="-0.35726">
        <ele>97</ele>
        <time>2013-09-29T11:52:10Z</time>
      </trkpt>
      <trkpt lat="44.78343" lon="-0.3573">
        <ele>97</ele>
        <time>2013-09-29T11:52:11Z</time>
      </trkpt>
      <trkpt lat="44.78365" lon="-0.35749">
        <ele>97</ele>
        <time>2013-09-29T11:52:16Z</time>
      </trkpt>
      <trkpt lat="44.78393" lon="-0.35767">
        <ele>98</ele>
        <time>2013-09-29T11:52:22Z</time>
      </trkpt>
      <trkpt lat="44.78424" lon="-0.35784">
        <ele>98</ele>
        <time>2013-09-29T11:52:29Z</time>
      </trkpt>
      <trkpt lat="44.78428" lon="-0.35786">
        <ele>98</ele>
        <time>2013-09-29T11:52:30Z</time>
      </trkpt>
      <trkpt lat="44.78433" lon="-0.35788">
        <ele>98</ele>
        <time>2013-09-29T11:52:31Z</time>
      </trkpt>
      <trkpt lat="44.78453" lon="-0.358">
        <ele>98</ele>
        <time>2013-09-29T11:52:36Z</time>
      </trkpt>
      <trkpt lat="44.78488" lon="-0.35814">
        <ele>98</ele>
        <time>2013-09-29T11:52:42Z</time>
      </trkpt>
      <trkpt lat="44.78524" lon="-0.35831">
        <ele>98</ele>
        <time>2013-09-29T11:52:49Z</time>
      </trkpt>
      <trkpt lat="44.7856" lon="-0.35848">
        <ele>99</ele>
        <time>2013-09-29T11:52:56Z</time>
      </trkpt>
      <trkpt lat="44.78595" lon="-0.35864">
        <ele>98</ele>
        <time>2013-09-29T11:53:03Z</time>
      </trkpt>
      <trkpt lat="44.78599" lon="-0.35866">
        <ele>97</ele>
        <time>2013-09-29T11:53:04Z</time>
      </trkpt>
      <trkpt lat="44.78641" lon="-0.35888">
        <ele>96</ele>
        <time>2013-09-29T11:53:12Z</time>
      </trkpt>
      <trkpt lat="44.78684" lon="-0.35904">
        <ele>96</ele>
        <time>2013-09-29T11:53:20Z</time>
      </trkpt>
      <trkpt lat="44.78722" lon="-0.35913">
        <ele>97</ele>
        <time>2013-09-29T11:53:27Z</time>
      </trkpt>
      <trkpt lat="44.78774" lon="-0.3592">
        <ele>97</ele>
        <time>2013-09-29T11:53:36Z</time>
      </trkpt>
      <trkpt lat="44.7883" lon="-0.35926">
        <ele>97</ele>
        <time>2013-09-29T11:53:46Z</time>
      </trkpt>
      <trkpt lat="44.78886" lon="-0.35933">
        <ele>97</ele>
        <time>2013-09-29T11:53:56Z</time>
      </trkpt>
      <trkpt lat="44.78946" lon="-0.3594">
        <ele>97</ele>
        <time>2013-09-29T11:54:07Z</time>
      </trkpt>
      <trkpt lat="44.78996" lon="-0.35948">
        <ele>97</ele>
        <time>2013-09-29T11:54:17Z</time>
      </trkpt>
      <trkpt lat="44.79038" lon="-0.3596">
        <ele>97</ele>
        <time>2013-09-29T11:54:26Z</time>
      </trkpt>
      <trkpt lat="44.79078" lon="-0.35978">
        <ele>98</ele>
        <time>2013-09-29T11:54:34Z</time>
      </trkpt>
      <trkpt lat="44.79122" lon="-0.35993">
        <ele>99</ele>
        <time>2013-09-29T11:54:43Z</time>
      </trkpt>
      <trkpt lat="44.79173" lon="-0.36005">
        <ele>100</ele>
        <time>2013-09-29T11:54:54Z</time>
      </trkpt>
      <trkpt lat="44.79201" lon="-0.36006">
        <ele>102</ele>
        <time>2013-09-29T11:55:00Z</time>
      </trkpt>
      <trkpt lat="44.79231" lon="-0.36003">
        <ele>104</ele>
        <time>2013-09-29T11:55:06Z</time>
      </trkpt>
      <trkpt lat="44.79265" lon="-0.36001">
        <ele>105</ele>
        <time>2013-09-29T11:55:14Z</time>
      </trkpt>
      <trkpt lat="44.79302" lon="-0.35999">
        <ele>105</ele>
        <time>2013-09-29T11:55:22Z</time>
      </trkpt>
      <trkpt lat="44.79344" lon="-0.36004">
        <ele>105</ele>
        <time>2013-09-29T11:55:31Z</time>
      </trkpt>
      <trkpt lat="44.79379" lon="-0.36018">
        <ele>104</ele>
        <time>2013-09-29T11:55:38Z</time>
      </trkpt>
      <trkpt lat="44.7942" lon="-0.36034">
        <ele>102</ele>
        <time>2013-09-29T11:55:45Z</time>
      </trkpt>
      <trkpt lat="44.79471" lon="-0.36041">
        <ele>101</ele>
        <time>2013-09-29T11:55:53Z</time>
      </trkpt>
      <trkpt lat="44.79521" lon="-0.3604">
        <ele>100</ele>
        <time>2013-09-29T11:56:01Z</time>
      </trkpt>
      <trkpt lat="44.79572" lon="-0.36035">
        <ele>100</ele>
        <time>2013-09-29T11:56:10Z</time>
      </trkpt>
      <trkpt lat="44.79595" lon="-0.3603">
        <ele>100</ele>
        <time>2013-09-29T11:56:14Z</time>
      </trkpt>
      <trkpt lat="44.79626" lon="-0.3602">
        <ele>100</ele>
        <time>2013-09-29T11:56:20Z</time>
      </trkpt>
      <trkpt lat="44.79671" lon="-0.36002">
        <ele>99</ele>
        <time>2013-09-29T11:56:29Z</time>
      </trkpt>
      <trkpt lat="44.79721" lon="-0.35978">
        <ele>98</ele>
        <time>2013-09-29T11:56:39Z</time>
      </trkpt>
      <trkpt lat="44.79764" lon="-0.35969">
        <ele>97</ele>
        <time>2013-09-29T11:56:47Z</time>
      </trkpt>
      <trkpt lat="44.79817" lon="-0.35958">
        <ele>97</ele>
        <time>2013-09-29T11:56:58Z</time>
      </trkpt>
      <trkpt lat="44.79857" lon="-0.35947">
        <ele>97</ele>
        <time>2013-09-29T11:57:06Z</time>
      </trkpt>
      <trkpt lat="44.79894" lon="-0.35936">
        <ele>97</ele>
        <time>2013-09-29T11:57:14Z</time>
      </trkpt>
      <trkpt lat="44.79926" lon="-0.35925">
        <ele>97</ele>
        <time>2013-09-29T11:57:22Z</time>
      </trkpt>
      <trkpt lat="44.79939" lon="-0.35919">
        <ele>96</ele>
        <time>2013-09-29T11:57:26Z</time>
      </trkpt>
      <trkpt lat="44.79941" lon="-0.35916">
        <ele>96</ele>
        <time>2013-09-29T11:57:27Z</time>
      </trkpt>
      <trkpt lat="44.79942" lon="-0.35911">
        <ele>96</ele>
        <time>2013-09-29T11:57:28Z</time>
      </trkpt>
      <trkpt lat="44.79942" lon="-0.35908">
        <ele>96</ele>
        <time>2013-09-29T11:57:29Z</time>
      </trkpt>
      <trkpt lat="44.79939" lon="-0.359">
        <ele>96</ele>
        <time>2013-09-29T11:57:31Z</time>
      </trkpt>
      <trkpt lat="44.79938" lon="-0.35896">
        <ele>97</ele>
        <time>2013-09-29T11:57:32Z</time>
      </trkpt>
      <trkpt lat="44.79926" lon="-0.35866">
        <ele>97</ele>
        <time>2013-09-29T11:57:39Z</time>
      </trkpt>
      <trkpt lat="44.79912" lon="-0.35833">
        <ele>97</ele>
        <time>2013-09-29T11:57:47Z</time>
      </trkpt>
      <trkpt lat="44.79911" lon="-0.35811">
        <ele>97</ele>
        <time>2013-09-29T11:57:52Z</time>
      </trkpt>
      <trkpt lat="44.79913" lon="-0.35809">
        <ele>97</ele>
        <time>2013-09-29T11:57:53Z</time>
      </trkpt>
      <trkpt lat="44.79936" lon="-0.3579">
        <ele>97</ele>
        <time>2013-09-29T11:58:01Z</time>
      </trkpt>
      <trkpt lat="44.79957" lon="-0.3577">
        <ele>97</ele>
        <time>2013-09-29T11:58:08Z</time>
      </trkpt>
      <trkpt lat="44.79976" lon="-0.35745">
        <ele>97</ele>
        <time>2013-09-29T11:58:14Z</time>
      </trkpt>
      <trkpt lat="44.80004" lon="-0.3571">
        <ele>97</ele>
        <time>2013-09-29T11:58:21Z</time>
      </trkpt>
      <trkpt lat="44.80024" lon="-0.35687">
        <ele>95</ele>
        <time>2013-09-29T11:58:26Z</time>
      </trkpt>
      <trkpt lat="44.8006" lon="-0.35649">
        <ele>93</ele>
        <time>2013-09-29T11:58:33Z</time>
      </trkpt>
      <trkpt lat="44.80101" lon="-0.35603">
        <ele>93</ele>
        <time>2013-09-29T11:58:41Z</time>
      </trkpt>
      <trkpt lat="44.80136" lon="-0.35574">
        <ele>91</ele>
        <time>2013-09-29T11:58:48Z</time>
      </trkpt>
      <trkpt lat="44.80141" lon="-0.3557">
        <ele>91</ele>
        <time>2013-09-29T11:58:49Z</time>
      </trkpt>
      <trkpt lat="44.80146" lon="-0.35565">
        <ele>91</ele>
        <time>2013-09-29T11:58:50Z</time>
      </trkpt>
      <trkpt lat="44.8015" lon="-0.3556">
        <ele>91</ele>
        <time>2013-09-29T11:58:51Z</time>
      </trkpt>
      <trkpt lat="44.80168" lon="-0.35536">
        <ele>91</ele>
        <time>2013-09-29T11:58:57Z</time>
      </trkpt>
      <trkpt lat="44.80184" lon="-0.3551">
        <ele>91</ele>
        <time>2013-09-29T11:59:04Z</time>
      </trkpt>
      <trkpt lat="44.80194" lon="-0.35496">
        <ele>91</ele>
        <time>2013-09-29T11:59:08Z</time>
      </trkpt>
      <trkpt lat="44.80214" lon="-0.35467">
        <ele>90</ele>
        <time>2013-09-29T11:59:15Z</time>
      </trkpt>
      <trkpt lat="44.80225" lon="-0.35445">
        <ele>90</ele>
        <time>2013-09-29T11:59:21Z</time>
      </trkpt>
      <trkpt lat="44.80233" lon="-0.35429">
        <ele>90</ele>
        <time>2013-09-29T11:59:26Z</time>
      </trkpt>
      <trkpt lat="44.80252" lon="-0.35407">
        <ele>87</ele>
        <time>2013-09-29T11:59:32Z</time>
      </trkpt>
      <trkpt lat="44.80269" lon="-0.35392">
        <ele>85</ele>
        <time>2013-09-29T11:59:37Z</time>
      </trkpt>
      <trkpt lat="44.80269" lon="-0.35383">
        <ele>84</ele>
        <time>2013-09-29T11:59:40Z</time>
      </trkpt>
      <trkpt lat="44.80273" lon="-0.35361">
        <ele>83</ele>
        <time>2013-09-29T11:59:45Z</time>
      </trkpt>
      <trkpt lat="44.80275" lon="-0.3535">
        <ele>82</ele>
        <time>2013-09-29T11:59:47Z</time>
      </trkpt>
      <trkpt lat="44.80282" lon="-0.35314">
        <ele>78</ele>
        <time>2013-09-29T11:59:52Z</time>
      </trkpt>
      <trkpt lat="44.80287" lon="-0.35274">
        <ele>74</ele>
        <time>2013-09-29T11:59:58Z</time>
      </trkpt>
      <trkpt lat="44.80288" lon="-0.35269">
        <ele>74</ele>
        <time>2013-09-29T11:59:59Z</time>
      </trkpt>
      <trkpt lat="44.80291" lon="-0.3525">
        <ele>72</ele>
        <time>2013-09-29T12:00:03Z</time>
      </trkpt>
      <trkpt lat="44.80295" lon="-0.35225">
        <ele>70</ele>
        <time>2013-09-29T12:00:09Z</time>
      </trkpt>
      <trkpt lat="44.80298" lon="-0.35212">
        <ele>69</ele>
        <time>2013-09-29T12:00:16Z</time>
      </trkpt>
      <trkpt lat="44.80298" lon="-0.35205">
        <ele>68</ele>
        <time>2013-09-29T12:00:26Z</time>
      </trkpt>
      <trkpt lat="44.80298" lon="-0.352">
        <ele>68</ele>
        <time>2013-09-29T12:00:35Z</time>
      </trkpt>
      <trkpt lat="44.80299" lon="-0.35195">
        <ele>67</ele>
        <time>2013-09-29T12:00:46Z</time>
      </trkpt>
      <trkpt lat="44.80299" lon="-0.35195">
        <ele>67</ele>
        <time>2013-09-29T12:00:55Z</time>
      </trkpt>
      <trkpt lat="44.80302" lon="-0.35194">
        <ele>67</ele>
        <time>2013-09-29T12:01:03Z</time>
      </trkpt>
      <trkpt lat="44.80302" lon="-0.35191">
        <ele>67</ele>
        <time>2013-09-29T12:01:10Z</time>
      </trkpt>
      <trkpt lat="44.80304" lon="-0.35189">
        <ele>67</ele>
        <time>2013-09-29T12:01:21Z</time>
      </trkpt>
      <trkpt lat="44.80304" lon="-0.35188">
        <ele>67</ele>
        <time>2013-09-29T12:01:30Z</time>
      </trkpt>
      <trkpt lat="44.80303" lon="-0.35182">
        <ele>66</ele>
        <time>2013-09-29T12:01:36Z</time>
      </trkpt>
      <trkpt lat="44.80313" lon="-0.35163">
        <ele>65</ele>
        <time>2013-09-29T12:01:44Z</time>
      </trkpt>
      <trkpt lat="44.80317" lon="-0.35144">
        <ele>64</ele>
        <time>2013-09-29T12:01:49Z</time>
      </trkpt>
      <trkpt lat="44.80321" lon="-0.35135">
        <ele>63</ele>
        <time>2013-09-29T12:01:51Z</time>
      </trkpt>
      <trkpt lat="44.80327" lon="-0.35125">
        <ele>62</ele>
        <time>2013-09-29T12:01:53Z</time>
      </trkpt>
      <trkpt lat="44.80346" lon="-0.3508">
        <ele>59</ele>
        <time>2013-09-29T12:02:00Z</time>
      </trkpt>
      <trkpt lat="44.80352" lon="-0.35067">
        <ele>58</ele>
        <time>2013-09-29T12:02:02Z</time>
      </trkpt>
      <trkpt lat="44.80356" lon="-0.35055">
        <ele>58</ele>
        <time>2013-09-29T12:02:04Z</time>
      </trkpt>
      <trkpt lat="44.80367" lon="-0.35037">
        <ele>57</ele>
        <time>2013-09-29T12:02:10Z</time>
      </trkpt>
      <trkpt lat="44.80368" lon="-0.35036">
        <ele>57</ele>
        <time>2013-09-29T12:02:17Z</time>
      </trkpt>
      <trkpt lat="44.80368" lon="-0.35036">
        <ele>57</ele>
        <time>2013-09-29T12:02:27Z</time>
      </trkpt>
      <trkpt lat="44.8037" lon="-0.35035">
        <ele>58</ele>
        <time>2013-09-29T12:02:40Z</time>
      </trkpt>
      <trkpt lat="44.80369" lon="-0.35035">
        <ele>57</ele>
        <time>2013-09-29T12:02:48Z</time>
      </trkpt>
      <trkpt lat="44.80368" lon="-0.35035">
        <ele>57</ele>
        <time>2013-09-29T12:02:59Z</time>
      </trkpt>
      <trkpt lat="44.80369" lon="-0.35033">
        <ele>57</ele>
        <time>2013-09-29T12:03:08Z</time>
      </trkpt>
      <trkpt lat="44.80369" lon="-0.35033">
        <ele>57</ele>
        <time>2013-09-29T12:03:16Z</time>
      </trkpt>
      <trkpt lat="44.80372" lon="-0.35028">
        <ele>57</ele>
        <time>2013-09-29T12:03:25Z</time>
      </trkpt>
      <trkpt lat="44.80373" lon="-0.35023">
        <ele>57</ele>
        <time>2013-09-29T12:03:35Z</time>
      </trkpt>
      <trkpt lat="44.80374" lon="-0.3502">
        <ele>57</ele>
        <time>2013-09-29T12:03:41Z</time>
      </trkpt>
      <trkpt lat="44.80375" lon="-0.35018">
        <ele>57</ele>
        <time>2013-09-29T12:03:44Z</time>
      </trkpt>
      <trkpt lat="44.8038" lon="-0.35002">
        <ele>56</ele>
        <time>2013-09-29T12:03:52Z</time>
      </trkpt>
      <trkpt lat="44.80381" lon="-0.35">
        <ele>56</ele>
        <time>2013-09-29T12:03:53Z</time>
      </trkpt>
      <trkpt lat="44.80387" lon="-0.34991">
        <ele>55</ele>
        <time>2013-09-29T12:03:58Z</time>
      </trkpt>
      <trkpt lat="44.80402" lon="-0.34965">
        <ele>53</ele>
        <time>2013-09-29T12:04:06Z</time>
      </trkpt>
      <trkpt lat="44.80411" lon="-0.34945">
        <ele>52</ele>
        <time>2013-09-29T12:04:12Z</time>
      </trkpt>
      <trkpt lat="44.80416" lon="-0.34933">
        <ele>51</ele>
        <time>2013-09-29T12:04:15Z</time>
      </trkpt>
      <trkpt lat="44.80424" lon="-0.34903">
        <ele>50</ele>
        <time>2013-09-29T12:04:21Z</time>
      </trkpt>
      <trkpt lat="44.80432" lon="-0.34874">
        <ele>48</ele>
        <time>2013-09-29T12:04:27Z</time>
      </trkpt>
      <trkpt lat="44.80433" lon="-0.3487">
        <ele>48</ele>
        <time>2013-09-29T12:04:28Z</time>
      </trkpt>
      <trkpt lat="44.80439" lon="-0.34844">
        <ele>48</ele>
        <time>2013-09-29T12:04:35Z</time>
      </trkpt>
      <trkpt lat="44.80451" lon="-0.34824">
        <ele>47</ele>
        <time>2013-09-29T12:04:41Z</time>
      </trkpt>
      <trkpt lat="44.80453" lon="-0.34821">
        <ele>47</ele>
        <time>2013-09-29T12:04:42Z</time>
      </trkpt>
      <trkpt lat="44.80465" lon="-0.34807">
        <ele>46</ele>
        <time>2013-09-29T12:04:48Z</time>
      </trkpt>
      <trkpt lat="44.80469" lon="-0.34803">
        <ele>45</ele>
        <time>2013-09-29T12:04:49Z</time>
      </trkpt>
      <trkpt lat="44.8049" lon="-0.34771">
        <ele>45</ele>
        <time>2013-09-29T12:04:57Z</time>
      </trkpt>
      <trkpt lat="44.80497" lon="-0.3476">
        <ele>44</ele>
        <time>2013-09-29T12:05:03Z</time>
      </trkpt>
      <trkpt lat="44.80498" lon="-0.34758">
        <ele>44</ele>
        <time>2013-09-29T12:05:08Z</time>
      </trkpt>
      <trkpt lat="44.80499" lon="-0.34759">
        <ele>44</ele>
        <time>2013-09-29T12:05:15Z</time>
      </trkpt>
      <trkpt lat="44.80498" lon="-0.34759">
        <ele>44</ele>
        <time>2013-09-29T12:05:30Z</time>
      </trkpt>
      <trkpt lat="44.80498" lon="-0.34759">
        <ele>44</ele>
        <time>2013-09-29T12:05:39Z</time>
      </trkpt>
      <trkpt lat="44.80497" lon="-0.34758">
        <ele>44</ele>
        <time>2013-09-29T12:05:52Z</time>
      </trkpt>
      <trkpt lat="44.80496" lon="-0.34758">
        <ele>44</ele>
        <time>2013-09-29T12:06:07Z</time>
      </trkpt>
      <trkpt lat="44.80496" lon="-0.34758">
        <ele>44</ele>
        <time>2013-09-29T12:06:21Z</time>
      </trkpt>
      <trkpt lat="44.80496" lon="-0.34758">
        <ele>44</ele>
        <time>2013-09-29T12:06:28Z</time>
      </trkpt>
      <trkpt lat="44.80496" lon="-0.34755">
        <ele>44</ele>
        <time>2013-09-29T12:06:34Z</time>
      </trkpt>
      <trkpt lat="44.80496" lon="-0.34752">
        <ele>44</ele>
        <time>2013-09-29T12:06:40Z</time>
      </trkpt>
      <trkpt lat="44.80494" lon="-0.34748">
        <ele>44</ele>
        <time>2013-09-29T12:06:43Z</time>
      </trkpt>
      <trkpt lat="44.80492" lon="-0.34744">
        <ele>44</ele>
        <time>2013-09-29T12:06:46Z</time>
      </trkpt>
      <trkpt lat="44.80487" lon="-0.34736">
        <ele>45</ele>
        <time>2013-09-29T12:06:52Z</time>
      </trkpt>
      <trkpt lat="44.80481" lon="-0.34719">
        <ele>45</ele>
        <time>2013-09-29T12:07:01Z</time>
      </trkpt>
      <trkpt lat="44.8047" lon="-0.34691">
        <ele>45</ele>
        <time>2013-09-29T12:07:10Z</time>
      </trkpt>
      <trkpt lat="44.80463" lon="-0.3467">
        <ele>46</ele>
        <time>2013-09-29T12:07:16Z</time>
      </trkpt>
      <trkpt lat="44.80456" lon="-0.34657">
        <ele>46</ele>
        <time>2013-09-29T12:07:20Z</time>
      </trkpt>
      <trkpt lat="44.80448" lon="-0.34633">
        <ele>45</ele>
        <time>2013-09-29T12:07:28Z</time>
      </trkpt>
      <trkpt lat="44.80445" lon="-0.34629">
        <ele>45</ele>
        <time>2013-09-29T12:07:30Z</time>
      </trkpt>
      <trkpt lat="44.80442" lon="-0.34622">
        <ele>45</ele>
        <time>2013-09-29T12:07:35Z</time>
      </trkpt>
      <trkpt lat="44.80436" lon="-0.34609">
        <ele>45</ele>
        <time>2013-09-29T12:07:42Z</time>
      </trkpt>
      <trkpt lat="44.80434" lon="-0.34605">
        <ele>45</ele>
        <time>2013-09-29T12:07:44Z</time>
      </trkpt>
      <trkpt lat="44.80441" lon="-0.34589">
        <ele>45</ele>
        <time>2013-09-29T12:07:51Z</time>
      </trkpt>
      <trkpt lat="44.80447" lon="-0.3458">
        <ele>45</ele>
        <time>2013-09-29T12:07:54Z</time>
      </trkpt>
      <trkpt lat="44.80467" lon="-0.3456">
        <ele>44</ele>
        <time>2013-09-29T12:08:03Z</time>
      </trkpt>
      <trkpt lat="44.80486" lon="-0.34541">
        <ele>43</ele>
        <time>2013-09-29T12:08:10Z</time>
      </trkpt>
      <trkpt lat="44.80502" lon="-0.34529">
        <ele>42</ele>
        <time>2013-09-29T12:08:16Z</time>
      </trkpt>
      <trkpt lat="44.80508" lon="-0.34525">
        <ele>42</ele>
        <time>2013-09-29T12:08:21Z</time>
      </trkpt>
      <trkpt lat="44.80513" lon="-0.34519">
        <ele>42</ele>
        <time>2013-09-29T12:08:27Z</time>
      </trkpt>
      <trkpt lat="44.80517" lon="-0.34513">
        <ele>42</ele>
        <time>2013-09-29T12:08:33Z</time>
      </trkpt>
      <trkpt lat="44.80519" lon="-0.3451">
        <ele>41</ele>
        <time>2013-09-29T12:08:39Z</time>
      </trkpt>
      <trkpt lat="44.80526" lon="-0.34491">
        <ele>41</ele>
        <time>2013-09-29T12:08:47Z</time>
      </trkpt>
      <trkpt lat="44.80535" lon="-0.34475">
        <ele>41</ele>
        <time>2013-09-29T12:08:54Z</time>
      </trkpt>
      <trkpt lat="44.80547" lon="-0.34454">
        <ele>42</ele>
        <time>2013-09-29T12:09:02Z</time>
      </trkpt>
      <trkpt lat="44.80559" lon="-0.34436">
        <ele>43</ele>
        <time>2013-09-29T12:09:09Z</time>
      </trkpt>
      <trkpt lat="44.80571" lon="-0.34418">
        <ele>44</ele>
        <time>2013-09-29T12:09:16Z</time>
      </trkpt>
      <trkpt lat="44.8058" lon="-0.34399">
        <ele>46</ele>
        <time>2013-09-29T12:09:24Z</time>
      </trkpt>
      <trkpt lat="44.8059" lon="-0.34378">
        <ele>49</ele>
        <time>2013-09-29T12:09:32Z</time>
      </trkpt>
      <trkpt lat="44.80599" lon="-0.34358">
        <ele>51</ele>
        <time>2013-09-29T12:09:41Z</time>
      </trkpt>
      <trkpt lat="44.80602" lon="-0.34343">
        <ele>52</ele>
        <time>2013-09-29T12:09:48Z</time>
      </trkpt>
      <trkpt lat="44.80604" lon="-0.34338">
        <ele>53</ele>
        <time>2013-09-29T12:09:51Z</time>
      </trkpt>
      <trkpt lat="44.8061" lon="-0.34334">
        <ele>54</ele>
        <time>2013-09-29T12:09:59Z</time>
      </trkpt>
      <trkpt lat="44.8061" lon="-0.34335">
        <ele>54</ele>
        <time>2013-09-29T12:10:04Z</time>
      </trkpt>
      <trkpt lat="44.80612" lon="-0.34335">
        <ele>55</ele>
        <time>2013-09-29T12:10:13Z</time>
      </trkpt>
      <trkpt lat="44.80614" lon="-0.34339">
        <ele>55</ele>
        <time>2013-09-29T12:10:20Z</time>
      </trkpt>
      <trkpt lat="44.80615" lon="-0.34339">
        <ele>55</ele>
        <time>2013-09-29T12:10:26Z</time>
      </trkpt>
      <trkpt lat="44.80616" lon="-0.34338">
        <ele>55</ele>
        <time>2013-09-29T12:10:38Z</time>
      </trkpt>
      <trkpt lat="44.80617" lon="-0.34341">
        <ele>55</ele>
        <time>2013-09-29T12:10:49Z</time>
      </trkpt>
      <trkpt lat="44.80617" lon="-0.34343">
        <ele>55</ele>
        <time>2013-09-29T12:10:55Z</time>
      </trkpt>
      <trkpt lat="44.80618" lon="-0.34343">
        <ele>55</ele>
        <time>2013-09-29T12:11:01Z</time>
      </trkpt>
      <trkpt lat="44.80626" lon="-0.34353">
        <ele>55</ele>
        <time>2013-09-29T12:11:08Z</time>
      </trkpt>
      <trkpt lat="44.80643" lon="-0.34372">
        <ele>55</ele>
        <time>2013-09-29T12:11:16Z</time>
      </trkpt>
      <trkpt lat="44.80651" lon="-0.34386">
        <ele>55</ele>
        <time>2013-09-29T12:11:19Z</time>
      </trkpt>
      <trkpt lat="44.80654" lon="-0.3439">
        <ele>55</ele>
        <time>2013-09-29T12:11:20Z</time>
      </trkpt>
      <trkpt lat="44.8069" lon="-0.34415">
        <ele>54</ele>
        <time>2013-09-29T12:11:28Z</time>
      </trkpt>
      <trkpt lat="44.80699" lon="-0.34424">
        <ele>53</ele>
        <time>2013-09-29T12:11:30Z</time>
      </trkpt>
      <trkpt lat="44.80729" lon="-0.34451">
        <ele>51</ele>
        <time>2013-09-29T12:11:36Z</time>
      </trkpt>
      <trkpt lat="44.80734" lon="-0.34454">
        <ele>51</ele>
        <time>2013-09-29T12:11:37Z</time>
      </trkpt>
      <trkpt lat="44.80739" lon="-0.34457">
        <ele>51</ele>
        <time>2013-09-29T12:11:38Z</time>
      </trkpt>
      <trkpt lat="44.80743" lon="-0.34461">
        <ele>51</ele>
        <time>2013-09-29T12:11:39Z</time>
      </trkpt>
      <trkpt lat="44.80747" lon="-0.34467">
        <ele>51</ele>
        <time>2013-09-29T12:11:40Z</time>
      </trkpt>
      <trkpt lat="44.8075" lon="-0.34471">
        <ele>51</ele>
        <time>2013-09-29T12:11:41Z</time>
      </trkpt>
      <trkpt lat="44.80754" lon="-0.34476">
        <ele>51</ele>
        <time>2013-09-29T12:11:42Z</time>
      </trkpt>
      <trkpt lat="44.80762" lon="-0.34483">
        <ele>51</ele>
        <time>2013-09-29T12:11:44Z</time>
      </trkpt>
      <trkpt lat="44.80787" lon="-0.34503">
        <ele>52</ele>
        <time>2013-09-29T12:11:52Z</time>
      </trkpt>
      <trkpt lat="44.808" lon="-0.34511">
        <ele>53</ele>
        <time>2013-09-29T12:11:59Z</time>
      </trkpt>
      <trkpt lat="44.80801" lon="-0.34512">
        <ele>53</ele>
        <time>2013-09-29T12:12:06Z</time>
      </trkpt>
      <trkpt lat="44.80805" lon="-0.34512">
        <ele>53</ele>
        <time>2013-09-29T12:12:20Z</time>
      </trkpt>
      <trkpt lat="44.80817" lon="-0.34511">
        <ele>53</ele>
        <time>2013-09-29T12:12:25Z</time>
      </trkpt>
      <trkpt lat="44.80842" lon="-0.3451">
        <ele>54</ele>
        <time>2013-09-29T12:12:32Z</time>
      </trkpt>
      <trkpt lat="44.80864" lon="-0.3451">
        <ele>54</ele>
        <time>2013-09-29T12:12:38Z</time>
      </trkpt>
      <trkpt lat="44.80886" lon="-0.34514">
        <ele>55</ele>
        <time>2013-09-29T12:12:45Z</time>
      </trkpt>
      <trkpt lat="44.80904" lon="-0.3452">
        <ele>54</ele>
        <time>2013-09-29T12:12:52Z</time>
      </trkpt>
      <trkpt lat="44.8092" lon="-0.34523">
        <ele>54</ele>
        <time>2013-09-29T12:12:59Z</time>
      </trkpt>
      <trkpt lat="44.80941" lon="-0.34528">
        <ele>53</ele>
        <time>2013-09-29T12:13:05Z</time>
      </trkpt>
      <trkpt lat="44.80966" lon="-0.34543">
        <ele>50</ele>
        <time>2013-09-29T12:13:11Z</time>
      </trkpt>
      <trkpt lat="44.8097" lon="-0.34545">
        <ele>49</ele>
        <time>2013-09-29T12:13:12Z</time>
      </trkpt>
      <trkpt lat="44.80974" lon="-0.34548">
        <ele>49</ele>
        <time>2013-09-29T12:13:13Z</time>
      </trkpt>
      <trkpt lat="44.80994" lon="-0.34562">
        <ele>50</ele>
        <time>2013-09-29T12:13:19Z</time>
      </trkpt>
      <trkpt lat="44.81013" lon="-0.3457">
        <ele>51</ele>
        <time>2013-09-29T12:13:26Z</time>
      </trkpt>
      <trkpt lat="44.81029" lon="-0.34573">
        <ele>52</ele>
        <time>2013-09-29T12:13:33Z</time>
      </trkpt>
      <trkpt lat="44.81043" lon="-0.34573">
        <ele>52</ele>
        <time>2013-09-29T12:13:39Z</time>
      </trkpt>
      <trkpt lat="44.81047" lon="-0.34572">
        <ele>53</ele>
        <time>2013-09-29T12:13:40Z</time>
      </trkpt>
      <trkpt lat="44.81049" lon="-0.34572">
        <ele>53</ele>
        <time>2013-09-29T12:13:41Z</time>
      </trkpt>
      <trkpt lat="44.8107" lon="-0.34574">
        <ele>54</ele>
        <time>2013-09-29T12:13:48Z</time>
      </trkpt>
      <trkpt lat="44.81086" lon="-0.34574">
        <ele>54</ele>
        <time>2013-09-29T12:13:53Z</time>
      </trkpt>
      <trkpt lat="44.81103" lon="-0.34585">
        <ele>52</ele>
        <time>2013-09-29T12:13:58Z</time>
      </trkpt>
      <trkpt lat="44.81119" lon="-0.34596">
        <ele>52</ele>
        <time>2013-09-29T12:14:03Z</time>
      </trkpt>
      <trkpt lat="44.81138" lon="-0.34606">
        <ele>52</ele>
        <time>2013-09-29T12:14:08Z</time>
      </trkpt>
      <trkpt lat="44.81155" lon="-0.34618">
        <ele>51</ele>
        <time>2013-09-29T12:14:13Z</time>
      </trkpt>
      <trkpt lat="44.81172" lon="-0.3463">
        <ele>50</ele>
        <time>2013-09-29T12:14:18Z</time>
      </trkpt>
      <trkpt lat="44.81194" lon="-0.34641">
        <ele>50</ele>
        <time>2013-09-29T12:14:24Z</time>
      </trkpt>
      <trkpt lat="44.81212" lon="-0.34651">
        <ele>50</ele>
        <time>2013-09-29T12:14:29Z</time>
      </trkpt>
      <trkpt lat="44.81229" lon="-0.34668">
        <ele>49</ele>
        <time>2013-09-29T12:14:34Z</time>
      </trkpt>
      <trkpt lat="44.81241" lon="-0.34688">
        <ele>49</ele>
        <time>2013-09-29T12:14:38Z</time>
      </trkpt>
      <trkpt lat="44.81245" lon="-0.34693">
        <ele>49</ele>
        <time>2013-09-29T12:14:39Z</time>
      </trkpt>
      <trkpt lat="44.81249" lon="-0.34698">
        <ele>49</ele>
        <time>2013-09-29T12:14:40Z</time>
      </trkpt>
      <trkpt lat="44.81252" lon="-0.34703">
        <ele>49</ele>
        <time>2013-09-29T12:14:41Z</time>
      </trkpt>
      <trkpt lat="44.81255" lon="-0.34709">
        <ele>49</ele>
        <time>2013-09-29T12:14:42Z</time>
      </trkpt>
      <trkpt lat="44.81265" lon="-0.34723">
        <ele>48</ele>
        <time>2013-09-29T12:14:45Z</time>
      </trkpt>
      <trkpt lat="44.81269" lon="-0.34726">
        <ele>48</ele>
        <time>2013-09-29T12:14:46Z</time>
      </trkpt>
      <trkpt lat="44.81282" lon="-0.34734">
        <ele>48</ele>
        <time>2013-09-29T12:14:49Z</time>
      </trkpt>
      <trkpt lat="44.81312" lon="-0.34741">
        <ele>48</ele>
        <time>2013-09-29T12:14:55Z</time>
      </trkpt>
      <trkpt lat="44.81316" lon="-0.34741">
        <ele>48</ele>
        <time>2013-09-29T12:14:56Z</time>
      </trkpt>
      <trkpt lat="44.81321" lon="-0.34741">
        <ele>48</ele>
        <time>2013-09-29T12:14:57Z</time>
      </trkpt>
      <trkpt lat="44.81325" lon="-0.3474">
        <ele>48</ele>
        <time>2013-09-29T12:14:58Z</time>
      </trkpt>
      <trkpt lat="44.8133" lon="-0.34739">
        <ele>48</ele>
        <time>2013-09-29T12:14:59Z</time>
      </trkpt>
      <trkpt lat="44.81335" lon="-0.34738">
        <ele>48</ele>
        <time>2013-09-29T12:15:00Z</time>
      </trkpt>
      <trkpt lat="44.8135" lon="-0.34738">
        <ele>48</ele>
        <time>2013-09-29T12:15:03Z</time>
      </trkpt>
      <trkpt lat="44.81369" lon="-0.34745">
        <ele>48</ele>
        <time>2013-09-29T12:15:07Z</time>
      </trkpt>
      <trkpt lat="44.81385" lon="-0.34752">
        <ele>47</ele>
        <time>2013-09-29T12:15:10Z</time>
      </trkpt>
      <trkpt lat="44.8139" lon="-0.34754">
        <ele>47</ele>
        <time>2013-09-29T12:15:11Z</time>
      </trkpt>
      <trkpt lat="44.81407" lon="-0.34763">
        <ele>46</ele>
        <time>2013-09-29T12:15:14Z</time>
      </trkpt>
      <trkpt lat="44.81413" lon="-0.34767">
        <ele>46</ele>
        <time>2013-09-29T12:15:15Z</time>
      </trkpt>
      <trkpt lat="44.81419" lon="-0.3477">
        <ele>46</ele>
        <time>2013-09-29T12:15:16Z</time>
      </trkpt>
      <trkpt lat="44.81425" lon="-0.34775">
        <ele>46</ele>
        <time>2013-09-29T12:15:17Z</time>
      </trkpt>
      <trkpt lat="44.8143" lon="-0.3478">
        <ele>46</ele>
        <time>2013-09-29T12:15:18Z</time>
      </trkpt>
      <trkpt lat="44.81468" lon="-0.34808">
        <ele>46</ele>
        <time>2013-09-29T12:15:25Z</time>
      </trkpt>
      <trkpt lat="44.81498" lon="-0.34824">
        <ele>48</ele>
        <time>2013-09-29T12:15:32Z</time>
      </trkpt>
      <trkpt lat="44.81524" lon="-0.34839">
        <ele>49</ele>
        <time>2013-09-29T12:15:39Z</time>
      </trkpt>
      <trkpt lat="44.81542" lon="-0.3486">
        <ele>48</ele>
        <time>2013-09-29T12:15:46Z</time>
      </trkpt>
      <trkpt lat="44.81548" lon="-0.34866">
        <ele>48</ele>
        <time>2013-09-29T12:15:49Z</time>
      </trkpt>
      <trkpt lat="44.8155" lon="-0.34867">
        <ele>48</ele>
        <time>2013-09-29T12:15:54Z</time>
      </trkpt>
      <trkpt lat="44.81552" lon="-0.34868">
        <ele>48</ele>
        <time>2013-09-29T12:16:08Z</time>
      </trkpt>
      <trkpt lat="44.81553" lon="-0.34869">
        <ele>48</ele>
        <time>2013-09-29T12:16:20Z</time>
      </trkpt>
      <trkpt lat="44.81554" lon="-0.34869">
        <ele>48</ele>
        <time>2013-09-29T12:16:35Z</time>
      </trkpt>
      <trkpt lat="44.81553" lon="-0.3487">
        <ele>48</ele>
        <time>2013-09-29T12:16:49Z</time>
      </trkpt>
      <trkpt lat="44.81553" lon="-0.3487">
        <ele>48</ele>
        <time>2013-09-29T12:17:00Z</time>
      </trkpt>
      <trkpt lat="44.81553" lon="-0.3487">
        <ele>48</ele>
        <time>2013-09-29T12:17:11Z</time>
      </trkpt>
      <trkpt lat="44.81551" lon="-0.3487">
        <ele>48</ele>
        <time>2013-09-29T12:17:27Z</time>
      </trkpt>
      <trkpt lat="44.81552" lon="-0.3487">
        <ele>48</ele>
        <time>2013-09-29T12:17:39Z</time>
      </trkpt>
      <trkpt lat="44.81553" lon="-0.3487">
        <ele>48</ele>
        <time>2013-09-29T12:17:40Z</time>
      </trkpt>
      <trkpt lat="44.81554" lon="-0.34871">
        <ele>48</ele>
        <time>2013-09-29T12:17:41Z</time>
      </trkpt>
      <trkpt lat="44.81555" lon="-0.34872">
        <ele>48</ele>
        <time>2013-09-29T12:17:42Z</time>
      </trkpt>
      <trkpt lat="44.81564" lon="-0.34872">
        <ele>48</ele>
        <time>2013-09-29T12:17:49Z</time>
      </trkpt>
      <trkpt lat="44.81578" lon="-0.34871">
        <ele>48</ele>
        <time>2013-09-29T12:17:56Z</time>
      </trkpt>
      <trkpt lat="44.81602" lon="-0.34868">
        <ele>49</ele>
        <time>2013-09-29T12:18:04Z</time>
      </trkpt>
      <trkpt lat="44.81631" lon="-0.34863">
        <ele>47</ele>
        <time>2013-09-29T12:18:11Z</time>
      </trkpt>
      <trkpt lat="44.81636" lon="-0.3486">
        <ele>46</ele>
        <time>2013-09-29T12:18:12Z</time>
      </trkpt>
      <trkpt lat="44.81662" lon="-0.34845">
        <ele>44</ele>
        <time>2013-09-29T12:18:19Z</time>
      </trkpt>
      <trkpt lat="44.81664" lon="-0.34847">
        <ele>43</ele>
        <time>2013-09-29T12:18:20Z</time>
      </trkpt>
      <trkpt lat="44.81665" lon="-0.3485">
        <ele>43</ele>
        <time>2013-09-29T12:18:21Z</time>
      </trkpt>
      <trkpt lat="44.81665" lon="-0.34854">
        <ele>43</ele>
        <time>2013-09-29T12:18:22Z</time>
      </trkpt>
      <trkpt lat="44.81664" lon="-0.34858">
        <ele>43</ele>
        <time>2013-09-29T12:18:23Z</time>
      </trkpt>
      <trkpt lat="44.81663" lon="-0.34861">
        <ele>43</ele>
        <time>2013-09-29T12:18:24Z</time>
      </trkpt>
      <trkpt lat="44.8166" lon="-0.34864">
        <ele>43</ele>
        <time>2013-09-29T12:18:25Z</time>
      </trkpt>
      <trkpt lat="44.81659" lon="-0.34868">
        <ele>43</ele>
        <time>2013-09-29T12:18:26Z</time>
      </trkpt>
      <trkpt lat="44.81645" lon="-0.34895">
        <ele>42</ele>
        <time>2013-09-29T12:18:33Z</time>
      </trkpt>
      <trkpt lat="44.81627" lon="-0.34934">
        <ele>41</ele>
        <time>2013-09-29T12:18:42Z</time>
      </trkpt>
      <trkpt lat="44.81614" lon="-0.34975">
        <ele>39</ele>
        <time>2013-09-29T12:18:49Z</time>
      </trkpt>
      <trkpt lat="44.81612" lon="-0.35006">
        <ele>37</ele>
        <time>2013-09-29T12:18:55Z</time>
      </trkpt>
      <trkpt lat="44.81613" lon="-0.35023">
        <ele>36</ele>
        <time>2013-09-29T12:19:01Z</time>
      </trkpt>
      <trkpt lat="44.81613" lon="-0.35058">
        <ele>36</ele>
        <time>2013-09-29T12:19:08Z</time>
      </trkpt>
      <trkpt lat="44.81612" lon="-0.35093">
        <ele>37</ele>
        <time>2013-09-29T12:19:15Z</time>
      </trkpt>
      <trkpt lat="44.81611" lon="-0.35101">
        <ele>37</ele>
        <time>2013-09-29T12:19:17Z</time>
      </trkpt>
      <trkpt lat="44.81612" lon="-0.35104">
        <ele>37</ele>
        <time>2013-09-29T12:19:18Z</time>
      </trkpt>
      <trkpt lat="44.81619" lon="-0.35106">
        <ele>37</ele>
        <time>2013-09-29T12:19:21Z</time>
      </trkpt>
      <trkpt lat="44.8164" lon="-0.35105">
        <ele>37</ele>
        <time>2013-09-29T12:19:29Z</time>
      </trkpt>
      <trkpt lat="44.81657" lon="-0.351">
        <ele>37</ele>
        <time>2013-09-29T12:19:35Z</time>
      </trkpt>
      <trkpt lat="44.81676" lon="-0.35093">
        <ele>37</ele>
        <time>2013-09-29T12:19:42Z</time>
      </trkpt>
      <trkpt lat="44.81697" lon="-0.35085">
        <ele>37</ele>
        <time>2013-09-29T12:19:48Z</time>
      </trkpt>
      <trkpt lat="44.81719" lon="-0.35076">
        <ele>38</ele>
        <time>2013-09-29T12:19:54Z</time>
      </trkpt>
      <trkpt lat="44.81734" lon="-0.35068">
        <ele>37</ele>
        <time>2013-09-29T12:19:59Z</time>
      </trkpt>
      <trkpt lat="44.81754" lon="-0.35063">
        <ele>37</ele>
        <time>2013-09-29T12:20:05Z</time>
      </trkpt>
      <trkpt lat="44.81774" lon="-0.35061">
        <ele>37</ele>
        <time>2013-09-29T12:20:11Z</time>
      </trkpt>
      <trkpt lat="44.81779" lon="-0.35064">
        <ele>37</ele>
        <time>2013-09-29T12:20:13Z</time>
      </trkpt>
      <trkpt lat="44.81796" lon="-0.35081">
        <ele>37</ele>
        <time>2013-09-29T12:20:20Z</time>
      </trkpt>
      <trkpt lat="44.81804" lon="-0.35093">
        <ele>37</ele>
        <time>2013-09-29T12:20:25Z</time>
      </trkpt>
      <trkpt lat="44.81805" lon="-0.35096">
        <ele>37</ele>
        <time>2013-09-29T12:20:26Z</time>
      </trkpt>
      <trkpt lat="44.81815" lon="-0.35112">
        <ele>37</ele>
        <time>2013-09-29T12:20:34Z</time>
      </trkpt>
      <trkpt lat="44.81816" lon="-0.35117">
        <ele>37</ele>
        <time>2013-09-29T12:20:37Z</time>
      </trkpt>
      <trkpt lat="44.81823" lon="-0.35125">
        <ele>37</ele>
        <time>2013-09-29T12:20:41Z</time>
      </trkpt>
      <trkpt lat="44.81827" lon="-0.35138">
        <ele>37</ele>
        <time>2013-09-29T12:20:45Z</time>
      </trkpt>
      <trkpt lat="44.81828" lon="-0.35188">
        <ele>38</ele>
        <time>2013-09-29T12:20:53Z</time>
      </trkpt>
      <trkpt lat="44.81826" lon="-0.352">
        <ele>39</ele>
        <time>2013-09-29T12:20:55Z</time>
      </trkpt>
      <trkpt lat="44.8182" lon="-0.35223">
        <ele>39</ele>
        <time>2013-09-29T12:20:59Z</time>
      </trkpt>
      <trkpt lat="44.81812" lon="-0.35253">
        <ele>40</ele>
        <time>2013-09-29T12:21:04Z</time>
      </trkpt>
      <trkpt lat="44.81812" lon="-0.3526">
        <ele>40</ele>
        <time>2013-09-29T12:21:06Z</time>
      </trkpt>
      <trkpt lat="44.81824" lon="-0.35272">
        <ele>39</ele>
        <time>2013-09-29T12:21:13Z</time>
      </trkpt>
      <trkpt lat="44.81829" lon="-0.35277">
        <ele>39</ele>
        <time>2013-09-29T12:21:15Z</time>
      </trkpt>
      <trkpt lat="44.81834" lon="-0.35288">
        <ele>38</ele>
        <time>2013-09-29T12:21:19Z</time>
      </trkpt>
      <trkpt lat="44.81839" lon="-0.35303">
        <ele>38</ele>
        <time>2013-09-29T12:21:25Z</time>
      </trkpt>
      <trkpt lat="44.81839" lon="-0.35313">
        <ele>38</ele>
        <time>2013-09-29T12:21:28Z</time>
      </trkpt>
      <trkpt lat="44.81848" lon="-0.35332">
        <ele>38</ele>
        <time>2013-09-29T12:21:35Z</time>
      </trkpt>
      <trkpt lat="44.8185" lon="-0.35332">
        <ele>38</ele>
        <time>2013-09-29T12:21:36Z</time>
      </trkpt>
      <trkpt lat="44.81864" lon="-0.35324">
        <ele>39</ele>
        <time>2013-09-29T12:21:42Z</time>
      </trkpt>
      <trkpt lat="44.81875" lon="-0.35312">
        <ele>39</ele>
        <time>2013-09-29T12:21:48Z</time>
      </trkpt>
      <trkpt lat="44.8189" lon="-0.35298">
        <ele>40</ele>
        <time>2013-09-29T12:21:54Z</time>
      </trkpt>
      <trkpt lat="44.819" lon="-0.35293">
        <ele>40</ele>
        <time>2013-09-29T12:22:00Z</time>
      </trkpt>
      <trkpt lat="44.81908" lon="-0.35298">
        <ele>41</ele>
        <time>2013-09-29T12:22:05Z</time>
      </trkpt>
      <trkpt lat="44.8191" lon="-0.35301">
        <ele>41</ele>
        <time>2013-09-29T12:22:07Z</time>
      </trkpt>
      <trkpt lat="44.81927" lon="-0.35311">
        <ele>44</ele>
        <time>2013-09-29T12:22:16Z</time>
      </trkpt>
      <trkpt lat="44.81932" lon="-0.35318">
        <ele>45</ele>
        <time>2013-09-29T12:22:21Z</time>
      </trkpt>
      <trkpt lat="44.81942" lon="-0.3533">
        <ele>46</ele>
        <time>2013-09-29T12:22:30Z</time>
      </trkpt>
      <trkpt lat="44.81948" lon="-0.35332">
        <ele>47</ele>
        <time>2013-09-29T12:22:39Z</time>
      </trkpt>
      <trkpt lat="44.81957" lon="-0.3534">
        <ele>47</ele>
        <time>2013-09-29T12:22:48Z</time>
      </trkpt>
      <trkpt lat="44.81961" lon="-0.35343">
        <ele>48</ele>
        <time>2013-09-29T12:22:55Z</time>
      </trkpt>
      <trkpt lat="44.81963" lon="-0.35345">
        <ele>48</ele>
        <time>2013-09-29T12:22:59Z</time>
      </trkpt>
      <trkpt lat="44.81967" lon="-0.3535">
        <ele>48</ele>
        <time>2013-09-29T12:23:03Z</time>
      </trkpt>
      <trkpt lat="44.8197" lon="-0.35355">
        <ele>48</ele>
        <time>2013-09-29T12:23:06Z</time>
      </trkpt>
      <trkpt lat="44.81983" lon="-0.35364">
        <ele>49</ele>
        <time>2013-09-29T12:23:13Z</time>
      </trkpt>
      <trkpt lat="44.81984" lon="-0.35366">
        <ele>49</ele>
        <time>2013-09-29T12:23:14Z</time>
      </trkpt>
      <trkpt lat="44.82005" lon="-0.35385">
        <ele>50</ele>
        <time>2013-09-29T12:23:25Z</time>
      </trkpt>
      <trkpt lat="44.82017" lon="-0.35403">
        <ele>51</ele>
        <time>2013-09-29T12:23:33Z</time>
      </trkpt>
      <trkpt lat="44.8202" lon="-0.35408">
        <ele>51</ele>
        <time>2013-09-29T12:23:36Z</time>
      </trkpt>
      <trkpt lat="44.82023" lon="-0.3541">
        <ele>51</ele>
        <time>2013-09-29T12:23:44Z</time>
      </trkpt>
      <trkpt lat="44.82023" lon="-0.35412">
        <ele>51</ele>
        <time>2013-09-29T12:23:54Z</time>
      </trkpt>
      <trkpt lat="44.82023" lon="-0.35412">
        <ele>51</ele>
        <time>2013-09-29T12:24:09Z</time>
      </trkpt>
      <trkpt lat="44.82023" lon="-0.35412">
        <ele>51</ele>
        <time>2013-09-29T12:24:19Z</time>
      </trkpt>
      <trkpt lat="44.82023" lon="-0.35413">
        <ele>51</ele>
        <time>2013-09-29T12:24:30Z</time>
      </trkpt>
      <trkpt lat="44.82023" lon="-0.35413">
        <ele>51</ele>
        <time>2013-09-29T12:24:40Z</time>
      </trkpt>
      <trkpt lat="44.82023" lon="-0.35412">
        <ele>51</ele>
        <time>2013-09-29T12:24:52Z</time>
      </trkpt>
      <trkpt lat="44.82023" lon="-0.35411">
        <ele>51</ele>
        <time>2013-09-29T12:25:03Z</time>
      </trkpt>
      <trkpt lat="44.82023" lon="-0.35412">
        <ele>51</ele>
        <time>2013-09-29T12:25:06Z</time>
      </trkpt>
      <trkpt lat="44.82027" lon="-0.35414">
        <ele>51</ele>
        <time>2013-09-29T12:25:10Z</time>
      </trkpt>
      <trkpt lat="44.82035" lon="-0.35426">
        <ele>52</ele>
        <time>2013-09-29T12:25:17Z</time>
      </trkpt>
      <trkpt lat="44.82049" lon="-0.35447">
        <ele>52</ele>
        <time>2013-09-29T12:25:23Z</time>
      </trkpt>
      <trkpt lat="44.82051" lon="-0.35451">
        <ele>52</ele>
        <time>2013-09-29T12:25:24Z</time>
      </trkpt>
      <trkpt lat="44.8207" lon="-0.35481">
        <ele>52</ele>
        <time>2013-09-29T12:25:32Z</time>
      </trkpt>
      <trkpt lat="44.82088" lon="-0.35514">
        <ele>53</ele>
        <time>2013-09-29T12:25:40Z</time>
      </trkpt>
      <trkpt lat="44.82099" lon="-0.35538">
        <ele>53</ele>
        <time>2013-09-29T12:25:46Z</time>
      </trkpt>
      <trkpt lat="44.82103" lon="-0.35549">
        <ele>53</ele>
        <time>2013-09-29T12:25:51Z</time>
      </trkpt>
      <trkpt lat="44.82109" lon="-0.35575">
        <ele>53</ele>
        <time>2013-09-29T12:25:59Z</time>
      </trkpt>
      <trkpt lat="44.82114" lon="-0.35608">
        <ele>54</ele>
        <time>2013-09-29T12:26:09Z</time>
      </trkpt>
      <trkpt lat="44.82117" lon="-0.35639">
        <ele>55</ele>
        <time>2013-09-29T12:26:17Z</time>
      </trkpt>
      <trkpt lat="44.82121" lon="-0.35672">
        <ele>55</ele>
        <time>2013-09-29T12:26:25Z</time>
      </trkpt>
      <trkpt lat="44.82122" lon="-0.35698">
        <ele>56</ele>
        <time>2013-09-29T12:26:32Z</time>
      </trkpt>
      <trkpt lat="44.82125" lon="-0.35726">
        <ele>57</ele>
        <time>2013-09-29T12:26:39Z</time>
      </trkpt>
      <trkpt lat="44.82126" lon="-0.35753">
        <ele>58</ele>
        <time>2013-09-29T12:26:46Z</time>
      </trkpt>
      <trkpt lat="44.82126" lon="-0.35778">
        <ele>58</ele>
        <time>2013-09-29T12:26:53Z</time>
      </trkpt>
      <trkpt lat="44.82125" lon="-0.35786">
        <ele>58</ele>
        <time>2013-09-29T12:26:56Z</time>
      </trkpt>
      <trkpt lat="44.82136" lon="-0.3579">
        <ele>58</ele>
        <time>2013-09-29T12:27:02Z</time>
      </trkpt>
      <trkpt lat="44.8216" lon="-0.35783">
        <ele>58</ele>
        <time>2013-09-29T12:27:10Z</time>
      </trkpt>
      <trkpt lat="44.82174" lon="-0.35778">
        <ele>58</ele>
        <time>2013-09-29T12:27:16Z</time>
      </trkpt>
      <trkpt lat="44.82192" lon="-0.35773">
        <ele>58</ele>
        <time>2013-09-29T12:27:23Z</time>
      </trkpt>
      <trkpt lat="44.82207" lon="-0.35761">
        <ele>58</ele>
        <time>2013-09-29T12:27:30Z</time>
      </trkpt>
      <trkpt lat="44.82213" lon="-0.35744">
        <ele>57</ele>
        <time>2013-09-29T12:27:34Z</time>
      </trkpt>
      <trkpt lat="44.82238" lon="-0.3571">
        <ele>56</ele>
        <time>2013-09-29T12:27:42Z</time>
      </trkpt>
      <trkpt lat="44.82261" lon="-0.35678">
        <ele>55</ele>
        <time>2013-09-29T12:27:50Z</time>
      </trkpt>
      <trkpt lat="44.82278" lon="-0.35657">
        <ele>55</ele>
        <time>2013-09-29T12:27:56Z</time>
      </trkpt>
      <trkpt lat="44.82281" lon="-0.35652">
        <ele>55</ele>
        <time>2013-09-29T12:27:57Z</time>
      </trkpt>
      <trkpt lat="44.82301" lon="-0.35628">
        <ele>54</ele>
        <time>2013-09-29T12:28:03Z</time>
      </trkpt>
      <trkpt lat="44.82315" lon="-0.35612">
        <ele>53</ele>
        <time>2013-09-29T12:28:07Z</time>
      </trkpt>
      <trkpt lat="44.82346" lon="-0.35576">
        <ele>52</ele>
        <time>2013-09-29T12:28:15Z</time>
      </trkpt>
      <trkpt lat="44.82361" lon="-0.35557">
        <ele>51</ele>
        <time>2013-09-29T12:28:20Z</time>
      </trkpt>
      <trkpt lat="44.82374" lon="-0.35538">
        <ele>50</ele>
        <time>2013-09-29T12:28:24Z</time>
      </trkpt>
      <trkpt lat="44.8239" lon="-0.35519">
        <ele>49</ele>
        <time>2013-09-29T12:28:30Z</time>
      </trkpt>
      <trkpt lat="44.824" lon="-0.35509">
        <ele>48</ele>
        <time>2013-09-29T12:28:36Z</time>
      </trkpt>
      <trkpt lat="44.82409" lon="-0.35496">
        <ele>47</ele>
        <time>2013-09-29T12:28:42Z</time>
      </trkpt>
      <trkpt lat="44.82423" lon="-0.35473">
        <ele>46</ele>
        <time>2013-09-29T12:28:49Z</time>
      </trkpt>
      <trkpt lat="44.82441" lon="-0.35449">
        <ele>45</ele>
        <time>2013-09-29T12:28:55Z</time>
      </trkpt>
      <trkpt lat="44.82454" lon="-0.35431">
        <ele>44</ele>
        <time>2013-09-29T12:28:59Z</time>
      </trkpt>
      <trkpt lat="44.82469" lon="-0.3541">
        <ele>43</ele>
        <time>2013-09-29T12:29:04Z</time>
      </trkpt>
      <trkpt lat="44.82486" lon="-0.3539">
        <ele>42</ele>
        <time>2013-09-29T12:29:09Z</time>
      </trkpt>
      <trkpt lat="44.82502" lon="-0.3536">
        <ele>40</ele>
        <time>2013-09-29T12:29:16Z</time>
      </trkpt>
      <trkpt lat="44.82509" lon="-0.35344">
        <ele>39</ele>
        <time>2013-09-29T12:29:21Z</time>
      </trkpt>
      <trkpt lat="44.82521" lon="-0.35345">
        <ele>39</ele>
        <time>2013-09-29T12:29:29Z</time>
      </trkpt>
      <trkpt lat="44.82526" lon="-0.35348">
        <ele>38</ele>
        <time>2013-09-29T12:29:32Z</time>
      </trkpt>
      <trkpt lat="44.82534" lon="-0.35351">
        <ele>38</ele>
        <time>2013-09-29T12:29:36Z</time>
      </trkpt>
      <trkpt lat="44.82553" lon="-0.35357">
        <ele>37</ele>
        <time>2013-09-29T12:29:43Z</time>
      </trkpt>
      <trkpt lat="44.82579" lon="-0.35366">
        <ele>35</ele>
        <time>2013-09-29T12:29:49Z</time>
      </trkpt>
      <trkpt lat="44.8261" lon="-0.35382">
        <ele>34</ele>
        <time>2013-09-29T12:29:56Z</time>
      </trkpt>
      <trkpt lat="44.82618" lon="-0.35388">
        <ele>34</ele>
        <time>2013-09-29T12:29:58Z</time>
      </trkpt>
      <trkpt lat="44.82648" lon="-0.35424">
        <ele>34</ele>
        <time>2013-09-29T12:30:06Z</time>
      </trkpt>
      <trkpt lat="44.82669" lon="-0.35452">
        <ele>34</ele>
        <time>2013-09-29T12:30:13Z</time>
      </trkpt>
      <trkpt lat="44.82671" lon="-0.35457">
        <ele>34</ele>
        <time>2013-09-29T12:30:14Z</time>
      </trkpt>
      <trkpt lat="44.82675" lon="-0.35469">
        <ele>34</ele>
        <time>2013-09-29T12:30:16Z</time>
      </trkpt>
      <trkpt lat="44.82686" lon="-0.3552">
        <ele>35</ele>
        <time>2013-09-29T12:30:25Z</time>
      </trkpt>
      <trkpt lat="44.82695" lon="-0.35557">
        <ele>36</ele>
        <time>2013-09-29T12:30:31Z</time>
      </trkpt>
      <trkpt lat="44.82709" lon="-0.35594">
        <ele>37</ele>
        <time>2013-09-29T12:30:38Z</time>
      </trkpt>
      <trkpt lat="44.82711" lon="-0.35599">
        <ele>37</ele>
        <time>2013-09-29T12:30:39Z</time>
      </trkpt>
      <trkpt lat="44.82724" lon="-0.35622">
        <ele>38</ele>
        <time>2013-09-29T12:30:44Z</time>
      </trkpt>
      <trkpt lat="44.82747" lon="-0.35664">
        <ele>39</ele>
        <time>2013-09-29T12:30:53Z</time>
      </trkpt>
      <trkpt lat="44.82763" lon="-0.35706">
        <ele>39</ele>
        <time>2013-09-29T12:31:02Z</time>
      </trkpt>
      <trkpt lat="44.82778" lon="-0.3575">
        <ele>39</ele>
        <time>2013-09-29T12:31:11Z</time>
      </trkpt>
      <trkpt lat="44.82791" lon="-0.35791">
        <ele>39</ele>
        <time>2013-09-29T12:31:19Z</time>
      </trkpt>
      <trkpt lat="44.82806" lon="-0.35837">
        <ele>39</ele>
        <time>2013-09-29T12:31:27Z</time>
      </trkpt>
      <trkpt lat="44.82824" lon="-0.35889">
        <ele>38</ele>
        <time>2013-09-29T12:31:35Z</time>
      </trkpt>
      <trkpt lat="44.82827" lon="-0.35896">
        <ele>38</ele>
        <time>2013-09-29T12:31:36Z</time>
      </trkpt>
      <trkpt lat="44.82848" lon="-0.35937">
        <ele>36</ele>
        <time>2013-09-29T12:31:42Z</time>
      </trkpt>
      <trkpt lat="44.82876" lon="-0.3598">
        <ele>35</ele>
        <time>2013-09-29T12:31:48Z</time>
      </trkpt>
      <trkpt lat="44.82907" lon="-0.36034">
        <ele>33</ele>
        <time>2013-09-29T12:31:55Z</time>
      </trkpt>
      <trkpt lat="44.82924" lon="-0.36086">
        <ele>34</ele>
        <time>2013-09-29T12:32:02Z</time>
      </trkpt>
      <trkpt lat="44.82939" lon="-0.36127">
        <ele>34</ele>
        <time>2013-09-29T12:32:08Z</time>
      </trkpt>
      <trkpt lat="44.82946" lon="-0.36138">
        <ele>34</ele>
        <time>2013-09-29T12:32:10Z</time>
      </trkpt>
      <trkpt lat="44.82962" lon="-0.36158">
        <ele>35</ele>
        <time>2013-09-29T12:32:14Z</time>
      </trkpt>
      <trkpt lat="44.82987" lon="-0.36182">
        <ele>36</ele>
        <time>2013-09-29T12:32:21Z</time>
      </trkpt>
      <trkpt lat="44.83015" lon="-0.3622">
        <ele>37</ele>
        <time>2013-09-29T12:32:31Z</time>
      </trkpt>
      <trkpt lat="44.83017" lon="-0.36253">
        <ele>39</ele>
        <time>2013-09-29T12:32:38Z</time>
      </trkpt>
      <trkpt lat="44.83016" lon="-0.36276">
        <ele>40</ele>
        <time>2013-09-29T12:32:45Z</time>
      </trkpt>
      <trkpt lat="44.83015" lon="-0.3629">
        <ele>41</ele>
        <time>2013-09-29T12:32:51Z</time>
      </trkpt>
      <trkpt lat="44.83016" lon="-0.36292">
        <ele>41</ele>
        <time>2013-09-29T12:32:52Z</time>
      </trkpt>
      <trkpt lat="44.83025" lon="-0.36297">
        <ele>41</ele>
        <time>2013-09-29T12:32:58Z</time>
      </trkpt>
      <trkpt lat="44.83043" lon="-0.36308">
        <ele>41</ele>
        <time>2013-09-29T12:33:05Z</time>
      </trkpt>
      <trkpt lat="44.83062" lon="-0.36333">
        <ele>41</ele>
        <time>2013-09-29T12:33:12Z</time>
      </trkpt>
      <trkpt lat="44.8308" lon="-0.36348">
        <ele>41</ele>
        <time>2013-09-29T12:33:17Z</time>
      </trkpt>
      <trkpt lat="44.83084" lon="-0.36348">
        <ele>41</ele>
        <time>2013-09-29T12:33:18Z</time>
      </trkpt>
      <trkpt lat="44.83113" lon="-0.36336">
        <ele>40</ele>
        <time>2013-09-29T12:33:26Z</time>
      </trkpt>
      <trkpt lat="44.83135" lon="-0.36328">
        <ele>40</ele>
        <time>2013-09-29T12:33:34Z</time>
      </trkpt>
      <trkpt lat="44.83141" lon="-0.36325">
        <ele>40</ele>
        <time>2013-09-29T12:33:36Z</time>
      </trkpt>
      <trkpt lat="44.83143" lon="-0.36323">
        <ele>40</ele>
        <time>2013-09-29T12:33:37Z</time>
      </trkpt>
      <trkpt lat="44.83145" lon="-0.36321">
        <ele>40</ele>
        <time>2013-09-29T12:33:38Z</time>
      </trkpt>
      <trkpt lat="44.83169" lon="-0.363">
        <ele>40</ele>
        <time>2013-09-29T12:33:46Z</time>
      </trkpt>
      <trkpt lat="44.832" lon="-0.3628">
        <ele>39</ele>
        <time>2013-09-29T12:33:54Z</time>
      </trkpt>
      <trkpt lat="44.83246" lon="-0.36264">
        <ele>36</ele>
        <time>2013-09-29T12:34:03Z</time>
      </trkpt>
      <trkpt lat="44.83252" lon="-0.36263">
        <ele>36</ele>
        <time>2013-09-29T12:34:04Z</time>
      </trkpt>
      <trkpt lat="44.83277" lon="-0.36271">
        <ele>34</ele>
        <time>2013-09-29T12:34:09Z</time>
      </trkpt>
      <trkpt lat="44.83282" lon="-0.36276">
        <ele>34</ele>
        <time>2013-09-29T12:34:10Z</time>
      </trkpt>
      <trkpt lat="44.83286" lon="-0.3628">
        <ele>34</ele>
        <time>2013-09-29T12:34:11Z</time>
      </trkpt>
      <trkpt lat="44.83307" lon="-0.36298">
        <ele>34</ele>
        <time>2013-09-29T12:34:17Z</time>
      </trkpt>
      <trkpt lat="44.83311" lon="-0.36299">
        <ele>33</ele>
        <time>2013-09-29T12:34:19Z</time>
      </trkpt>
      <trkpt lat="44.83312" lon="-0.36299">
        <ele>33</ele>
        <time>2013-09-29T12:34:24Z</time>
      </trkpt>
      <trkpt lat="44.83313" lon="-0.36298">
        <ele>33</ele>
        <time>2013-09-29T12:34:27Z</time>
      </trkpt>
      <trkpt lat="44.83315" lon="-0.36295">
        <ele>33</ele>
        <time>2013-09-29T12:34:28Z</time>
      </trkpt>
      <trkpt lat="44.83316" lon="-0.36291">
        <ele>33</ele>
        <time>2013-09-29T12:34:29Z</time>
      </trkpt>
      <trkpt lat="44.83317" lon="-0.36286">
        <ele>32</ele>
        <time>2013-09-29T12:34:30Z</time>
      </trkpt>
      <trkpt lat="44.83317" lon="-0.36281">
        <ele>32</ele>
        <time>2013-09-29T12:34:31Z</time>
      </trkpt>
      <trkpt lat="44.83326" lon="-0.36239">
        <ele>30</ele>
        <time>2013-09-29T12:34:37Z</time>
      </trkpt>
      <trkpt lat="44.8334" lon="-0.36175">
        <ele>28</ele>
        <time>2013-09-29T12:34:45Z</time>
      </trkpt>
      <trkpt lat="44.83353" lon="-0.36118">
        <ele>26</ele>
        <time>2013-09-29T12:34:53Z</time>
      </trkpt>
      <trkpt lat="44.83371" lon="-0.36033">
        <ele>27</ele>
        <time>2013-09-29T12:35:03Z</time>
      </trkpt>
      <trkpt lat="44.83381" lon="-0.35989">
        <ele>29</ele>
        <time>2013-09-29T12:35:10Z</time>
      </trkpt>
      <trkpt lat="44.83384" lon="-0.35986">
        <ele>29</ele>
        <time>2013-09-29T12:35:11Z</time>
      </trkpt>
      <trkpt lat="44.83394" lon="-0.35989">
        <ele>30</ele>
        <time>2013-09-29T12:35:14Z</time>
      </trkpt>
      <trkpt lat="44.83408" lon="-0.36002">
        <ele>30</ele>
        <time>2013-09-29T12:35:18Z</time>
      </trkpt>
      <trkpt lat="44.83411" lon="-0.36007">
        <ele>30</ele>
        <time>2013-09-29T12:35:19Z</time>
      </trkpt>
      <trkpt lat="44.83412" lon="-0.36011">
        <ele>29</ele>
        <time>2013-09-29T12:35:20Z</time>
      </trkpt>
      <trkpt lat="44.83419" lon="-0.36025">
        <ele>29</ele>
        <time>2013-09-29T12:35:25Z</time>
      </trkpt>
      <trkpt lat="44.83432" lon="-0.36035">
        <ele>29</ele>
        <time>2013-09-29T12:35:31Z</time>
      </trkpt>
      <trkpt lat="44.83439" lon="-0.36037">
        <ele>30</ele>
        <time>2013-09-29T12:35:34Z</time>
      </trkpt>
      <trkpt lat="44.83451" lon="-0.36042">
        <ele>30</ele>
        <time>2013-09-29T12:35:39Z</time>
      </trkpt>
      <trkpt lat="44.83463" lon="-0.36045">
        <ele>30</ele>
        <time>2013-09-29T12:35:45Z</time>
      </trkpt>
      <trkpt lat="44.83478" lon="-0.36052">
        <ele>30</ele>
        <time>2013-09-29T12:35:50Z</time>
      </trkpt>
      <trkpt lat="44.83487" lon="-0.36054">
        <ele>30</ele>
        <time>2013-09-29T12:35:53Z</time>
      </trkpt>
      <trkpt lat="44.83514" lon="-0.36063">
        <ele>30</ele>
        <time>2013-09-29T12:35:59Z</time>
      </trkpt>
      <trkpt lat="44.83544" lon="-0.36071">
        <ele>30</ele>
        <time>2013-09-29T12:36:07Z</time>
      </trkpt>
      <trkpt lat="44.83569" lon="-0.36077">
        <ele>31</ele>
        <time>2013-09-29T12:36:14Z</time>
      </trkpt>
      <trkpt lat="44.83592" lon="-0.36077">
        <ele>33</ele>
        <time>2013-09-29T12:36:19Z</time>
      </trkpt>
      <trkpt lat="44.83611" lon="-0.36079">
        <ele>34</ele>
        <time>2013-09-29T12:36:24Z</time>
      </trkpt>
      <trkpt lat="44.83623" lon="-0.36086">
        <ele>35</ele>
        <time>2013-09-29T12:36:28Z</time>
      </trkpt>
      <trkpt lat="44.83643" lon="-0.3609">
        <ele>35</ele>
        <time>2013-09-29T12:36:34Z</time>
      </trkpt>
      <trkpt lat="44.83658" lon="-0.36103">
        <ele>35</ele>
        <time>2013-09-29T12:36:39Z</time>
      </trkpt>
      <trkpt lat="44.83676" lon="-0.36112">
        <ele>34</ele>
        <time>2013-09-29T12:36:44Z</time>
      </trkpt>
      <trkpt lat="44.83698" lon="-0.36115">
        <ele>34</ele>
        <time>2013-09-29T12:36:50Z</time>
      </trkpt>
      <trkpt lat="44.83707" lon="-0.36117">
        <ele>34</ele>
        <time>2013-09-29T12:36:53Z</time>
      </trkpt>
      <trkpt lat="44.83718" lon="-0.36115">
        <ele>34</ele>
        <time>2013-09-29T12:36:57Z</time>
      </trkpt>
      <trkpt lat="44.83727" lon="-0.36113">
        <ele>34</ele>
        <time>2013-09-29T12:36:59Z</time>
      </trkpt>
      <trkpt lat="44.83764" lon="-0.36102">
        <ele>35</ele>
        <time>2013-09-29T12:37:06Z</time>
      </trkpt>
      <trkpt lat="44.83782" lon="-0.36096">
        <ele>35</ele>
        <time>2013-09-29T12:37:09Z</time>
      </trkpt>
      <trkpt lat="44.838" lon="-0.36091">
        <ele>35</ele>
        <time>2013-09-29T12:37:13Z</time>
      </trkpt>
      <trkpt lat="44.83809" lon="-0.36093">
        <ele>35</ele>
        <time>2013-09-29T12:37:19Z</time>
      </trkpt>
      <trkpt lat="44.83813" lon="-0.36096">
        <ele>35</ele>
        <time>2013-09-29T12:37:22Z</time>
      </trkpt>
      <trkpt lat="44.83822" lon="-0.36101">
        <ele>34</ele>
        <time>2013-09-29T12:37:29Z</time>
      </trkpt>
      <trkpt lat="44.83823" lon="-0.36103">
        <ele>34</ele>
        <time>2013-09-29T12:37:37Z</time>
      </trkpt>
      <trkpt lat="44.83824" lon="-0.36102">
        <ele>34</ele>
        <time>2013-09-29T12:37:49Z</time>
      </trkpt>
      <trkpt lat="44.83824" lon="-0.36102">
        <ele>34</ele>
        <time>2013-09-29T12:37:55Z</time>
      </trkpt>
      <trkpt lat="44.83824" lon="-0.36103">
        <ele>34</ele>
        <time>2013-09-29T12:38:06Z</time>
      </trkpt>
      <trkpt lat="44.83824" lon="-0.36104">
        <ele>34</ele>
        <time>2013-09-29T12:38:23Z</time>
      </trkpt>
      <trkpt lat="44.83825" lon="-0.36105">
        <ele>33</ele>
        <time>2013-09-29T12:38:39Z</time>
      </trkpt>
      <trkpt lat="44.83824" lon="-0.36105">
        <ele>34</ele>
        <time>2013-09-29T12:38:46Z</time>
      </trkpt>
      <trkpt lat="44.83825" lon="-0.36104">
        <ele>34</ele>
        <time>2013-09-29T12:38:53Z</time>
      </trkpt>
      <trkpt lat="44.83825" lon="-0.36105">
        <ele>33</ele>
        <time>2013-09-29T12:39:02Z</time>
      </trkpt>
      <trkpt lat="44.83825" lon="-0.36105">
        <ele>33</ele>
        <time>2013-09-29T12:39:12Z</time>
      </trkpt>
      <trkpt lat="44.83833" lon="-0.3611">
        <ele>33</ele>
        <time>2013-09-29T12:39:18Z</time>
      </trkpt>
      <trkpt lat="44.83843" lon="-0.3611">
        <ele>32</ele>
        <time>2013-09-29T12:39:22Z</time>
      </trkpt>
      <trkpt lat="44.83859" lon="-0.36104">
        <ele>32</ele>
        <time>2013-09-29T12:39:29Z</time>
      </trkpt>
      <trkpt lat="44.83877" lon="-0.36104">
        <ele>31</ele>
        <time>2013-09-29T12:39:36Z</time>
      </trkpt>
      <trkpt lat="44.83897" lon="-0.36103">
        <ele>31</ele>
        <time>2013-09-29T12:39:43Z</time>
      </trkpt>
      <trkpt lat="44.83926" lon="-0.36101">
        <ele>30</ele>
        <time>2013-09-29T12:39:49Z</time>
      </trkpt>
      <trkpt lat="44.83951" lon="-0.36099">
        <ele>29</ele>
        <time>2013-09-29T12:39:54Z</time>
      </trkpt>
      <trkpt lat="44.83986" lon="-0.36096">
        <ele>29</ele>
        <time>2013-09-29T12:40:00Z</time>
      </trkpt>
      <trkpt lat="44.83999" lon="-0.36095">
        <ele>29</ele>
        <time>2013-09-29T12:40:03Z</time>
      </trkpt>
      <trkpt lat="44.84026" lon="-0.36091">
        <ele>29</ele>
        <time>2013-09-29T12:40:08Z</time>
      </trkpt>
      <trkpt lat="44.84044" lon="-0.36094">
        <ele>27</ele>
        <time>2013-09-29T12:40:12Z</time>
      </trkpt>
      <trkpt lat="44.84067" lon="-0.36091">
        <ele>28</ele>
        <time>2013-09-29T12:40:17Z</time>
      </trkpt>
      <trkpt lat="44.84078" lon="-0.36088">
        <ele>29</ele>
        <time>2013-09-29T12:40:19Z</time>
      </trkpt>
      <trkpt lat="44.841" lon="-0.36078">
        <ele>30</ele>
        <time>2013-09-29T12:40:25Z</time>
      </trkpt>
      <trkpt lat="44.84121" lon="-0.36069">
        <ele>32</ele>
        <time>2013-09-29T12:40:31Z</time>
      </trkpt>
      <trkpt lat="44.84153" lon="-0.3606">
        <ele>31</ele>
        <time>2013-09-29T12:40:39Z</time>
      </trkpt>
      <trkpt lat="44.84175" lon="-0.36056">
        <ele>30</ele>
        <time>2013-09-29T12:40:45Z</time>
      </trkpt>
      <trkpt lat="44.84196" lon="-0.36046">
        <ele>30</ele>
        <time>2013-09-29T12:40:51Z</time>
      </trkpt>
      <trkpt lat="44.84213" lon="-0.36029">
        <ele>30</ele>
        <time>2013-09-29T12:40:57Z</time>
      </trkpt>
      <trkpt lat="44.84219" lon="-0.36021">
        <ele>29</ele>
        <time>2013-09-29T12:41:00Z</time>
      </trkpt>
      <trkpt lat="44.8423" lon="-0.35999">
        <ele>29</ele>
        <time>2013-09-29T12:41:06Z</time>
      </trkpt>
      <trkpt lat="44.84234" lon="-0.35986">
        <ele>30</ele>
        <time>2013-09-29T12:41:09Z</time>
      </trkpt>
      <trkpt lat="44.84237" lon="-0.35967">
        <ele>31</ele>
        <time>2013-09-29T12:41:14Z</time>
      </trkpt>
      <trkpt lat="44.84235" lon="-0.3595">
        <ele>33</ele>
        <time>2013-09-29T12:41:22Z</time>
      </trkpt>
      <trkpt lat="44.84237" lon="-0.35947">
        <ele>33</ele>
        <time>2013-09-29T12:41:31Z</time>
      </trkpt>
      <trkpt lat="44.84237" lon="-0.35947">
        <ele>33</ele>
        <time>2013-09-29T12:41:43Z</time>
      </trkpt>
      <trkpt lat="44.84238" lon="-0.35946">
        <ele>33</ele>
        <time>2013-09-29T12:41:58Z</time>
      </trkpt>
      <trkpt lat="44.84238" lon="-0.35946">
        <ele>33</ele>
        <time>2013-09-29T12:42:09Z</time>
      </trkpt>
      <trkpt lat="44.84238" lon="-0.35946">
        <ele>33</ele>
        <time>2013-09-29T12:42:24Z</time>
      </trkpt>
      <trkpt lat="44.84239" lon="-0.35945">
        <ele>33</ele>
        <time>2013-09-29T12:42:36Z</time>
      </trkpt>
      <trkpt lat="44.8424" lon="-0.35935">
        <ele>33</ele>
        <time>2013-09-29T12:42:41Z</time>
      </trkpt>
      <trkpt lat="44.84245" lon="-0.35919">
        <ele>33</ele>
        <time>2013-09-29T12:42:48Z</time>
      </trkpt>
      <trkpt lat="44.84249" lon="-0.35907">
        <ele>32</ele>
        <time>2013-09-29T12:42:53Z</time>
      </trkpt>
      <trkpt lat="44.84261" lon="-0.3589">
        <ele>31</ele>
        <time>2013-09-29T12:43:01Z</time>
      </trkpt>
      <trkpt lat="44.84272" lon="-0.35884">
        <ele>30</ele>
        <time>2013-09-29T12:43:08Z</time>
      </trkpt>
      <trkpt lat="44.84281" lon="-0.35877">
        <ele>29</ele>
        <time>2013-09-29T12:43:13Z</time>
      </trkpt>
      <trkpt lat="44.84291" lon="-0.35867">
        <ele>29</ele>
        <time>2013-09-29T12:43:21Z</time>
      </trkpt>
      <trkpt lat="44.84304" lon="-0.35863">
        <ele>28</ele>
        <time>2013-09-29T12:43:29Z</time>
      </trkpt>
      <trkpt lat="44.84305" lon="-0.35863">
        <ele>28</ele>
        <time>2013-09-29T12:43:30Z</time>
      </trkpt>
      <trkpt lat="44.84316" lon="-0.35858">
        <ele>27</ele>
        <time>2013-09-29T12:43:36Z</time>
      </trkpt>
      <trkpt lat="44.84335" lon="-0.35853">
        <ele>29</ele>
        <time>2013-09-29T12:43:43Z</time>
      </trkpt>
      <trkpt lat="44.84348" lon="-0.35852">
        <ele>30</ele>
        <time>2013-09-29T12:43:48Z</time>
      </trkpt>
      <trkpt lat="44.84366" lon="-0.35855">
        <ele>32</ele>
        <time>2013-09-29T12:43:55Z</time>
      </trkpt>
      <trkpt lat="44.84377" lon="-0.35859">
        <ele>33</ele>
        <time>2013-09-29T12:44:01Z</time>
      </trkpt>
      <trkpt lat="44.84379" lon="-0.35859">
        <ele>34</ele>
        <time>2013-09-29T12:44:02Z</time>
      </trkpt>
      <trkpt lat="44.84396" lon="-0.35865">
        <ele>36</ele>
        <time>2013-09-29T12:44:11Z</time>
      </trkpt>
      <trkpt lat="44.84402" lon="-0.35866">
        <ele>37</ele>
        <time>2013-09-29T12:44:16Z</time>
      </trkpt>
      <trkpt lat="44.84409" lon="-0.35866">
        <ele>39</ele>
        <time>2013-09-29T12:44:20Z</time>
      </trkpt>
      <trkpt lat="44.84423" lon="-0.35867">
        <ele>40</ele>
        <time>2013-09-29T12:44:27Z</time>
      </trkpt>
      <trkpt lat="44.84438" lon="-0.35867">
        <ele>41</ele>
        <time>2013-09-29T12:44:34Z</time>
      </trkpt>
      <trkpt lat="44.84457" lon="-0.35856">
        <ele>42</ele>
        <time>2013-09-29T12:44:43Z</time>
      </trkpt>
      <trkpt lat="44.84472" lon="-0.35846">
        <ele>42</ele>
        <time>2013-09-29T12:44:51Z</time>
      </trkpt>
      <trkpt lat="44.84473" lon="-0.35846">
        <ele>42</ele>
        <time>2013-09-29T12:44:56Z</time>
      </trkpt>
      <trkpt lat="44.84473" lon="-0.35846">
        <ele>42</ele>
        <time>2013-09-29T12:45:11Z</time>
      </trkpt>
      <trkpt lat="44.84473" lon="-0.35847">
        <ele>42</ele>
        <time>2013-09-29T12:45:24Z</time>
      </trkpt>
      <trkpt lat="44.84473" lon="-0.35847">
        <ele>42</ele>
        <time>2013-09-29T12:45:33Z</time>
      </trkpt>
      <trkpt lat="44.84472" lon="-0.35847">
        <ele>42</ele>
        <time>2013-09-29T12:45:43Z</time>
      </trkpt>
      <trkpt lat="44.84472" lon="-0.35847">
        <ele>42</ele>
        <time>2013-09-29T12:45:55Z</time>
      </trkpt>
      <trkpt lat="44.84472" lon="-0.35846">
        <ele>42</ele>
        <time>2013-09-29T12:46:07Z</time>
      </trkpt>
      <trkpt lat="44.84472" lon="-0.35847">
        <ele>42</ele>
        <time>2013-09-29T12:46:18Z</time>
      </trkpt>
      <trkpt lat="44.84472" lon="-0.35847">
        <ele>42</ele>
        <time>2013-09-29T12:46:28Z</time>
      </trkpt>
      <trkpt lat="44.84472" lon="-0.35847">
        <ele>42</ele>
        <time>2013-09-29T12:46:44Z</time>
      </trkpt>
      <trkpt lat="44.84472" lon="-0.35847">
        <ele>42</ele>
        <time>2013-09-29T12:46:54Z</time>
      </trkpt>
      <trkpt lat="44.84472" lon="-0.35847">
        <ele>42</ele>
        <time>2013-09-29T12:46:57Z</time>
      </trkpt>
      <trkpt lat="44.84475" lon="-0.35852">
        <ele>42</ele>
        <time>2013-09-29T12:47:02Z</time>
      </trkpt>
      <trkpt lat="44.84482" lon="-0.35854">
        <ele>41</ele>
        <time>2013-09-29T12:47:07Z</time>
      </trkpt>
      <trkpt lat="44.84506" lon="-0.35861">
        <ele>40</ele>
        <time>2013-09-29T12:47:15Z</time>
      </trkpt>
      <trkpt lat="44.8451" lon="-0.35862">
        <ele>40</ele>
        <time>2013-09-29T12:47:16Z</time>
      </trkpt>
      <trkpt lat="44.84543" lon="-0.35872">
        <ele>36</ele>
        <time>2013-09-29T12:47:24Z</time>
      </trkpt>
      <trkpt lat="44.84552" lon="-0.35875">
        <ele>37</ele>
        <time>2013-09-29T12:47:28Z</time>
      </trkpt>
      <trkpt lat="44.84554" lon="-0.35876">
        <ele>37</ele>
        <time>2013-09-29T12:47:29Z</time>
      </trkpt>
      <trkpt lat="44.84555" lon="-0.35879">
        <ele>37</ele>
        <time>2013-09-29T12:47:30Z</time>
      </trkpt>
      <trkpt lat="44.84555" lon="-0.35883">
        <ele>37</ele>
        <time>2013-09-29T12:47:31Z</time>
      </trkpt>
      <trkpt lat="44.84554" lon="-0.35887">
        <ele>37</ele>
        <time>2013-09-29T12:47:32Z</time>
      </trkpt>
      <trkpt lat="44.84553" lon="-0.35891">
        <ele>37</ele>
        <time>2013-09-29T12:47:33Z</time>
      </trkpt>
      <trkpt lat="44.84553" lon="-0.35896">
        <ele>37</ele>
        <time>2013-09-29T12:47:34Z</time>
      </trkpt>
      <trkpt lat="44.84553" lon="-0.35899">
        <ele>37</ele>
        <time>2013-09-29T12:47:35Z</time>
      </trkpt>
      <trkpt lat="44.84553" lon="-0.35903">
        <ele>37</ele>
        <time>2013-09-29T12:47:36Z</time>
      </trkpt>
      <trkpt lat="44.84552" lon="-0.35905">
        <ele>37</ele>
        <time>2013-09-29T12:47:37Z</time>
      </trkpt>
      <trkpt lat="44.84551" lon="-0.35908">
        <ele>37</ele>
        <time>2013-09-29T12:47:38Z</time>
      </trkpt>
      <trkpt lat="44.8455" lon="-0.35911">
        <ele>37</ele>
        <time>2013-09-29T12:47:39Z</time>
      </trkpt>
      <trkpt lat="44.84549" lon="-0.35914">
        <ele>37</ele>
        <time>2013-09-29T12:47:40Z</time>
      </trkpt>
      <trkpt lat="44.84548" lon="-0.35917">
        <ele>37</ele>
        <time>2013-09-29T12:47:41Z</time>
      </trkpt>
      <trkpt lat="44.84547" lon="-0.3592">
        <ele>37</ele>
        <time>2013-09-29T12:47:42Z</time>
      </trkpt>
      <trkpt lat="44.84546" lon="-0.35923">
        <ele>36</ele>
        <time>2013-09-29T12:47:43Z</time>
      </trkpt>
      <trkpt lat="44.84546" lon="-0.35926">
        <ele>36</ele>
        <time>2013-09-29T12:47:44Z</time>
      </trkpt>
      <trkpt lat="44.84545" lon="-0.35929">
        <ele>36</ele>
        <time>2013-09-29T12:47:45Z</time>
      </trkpt>
      <trkpt lat="44.84544" lon="-0.35939">
        <ele>36</ele>
        <time>2013-09-29T12:47:49Z</time>
      </trkpt>
      <trkpt lat="44.84543" lon="-0.3594">
        <ele>36</ele>
        <time>2013-09-29T12:47:50Z</time>
      </trkpt>
      <trkpt lat="44.84536" lon="-0.3595">
        <ele>36</ele>
        <time>2013-09-29T12:47:54Z</time>
      </trkpt>
      <trkpt lat="44.84529" lon="-0.35974">
        <ele>35</ele>
        <time>2013-09-29T12:48:00Z</time>
      </trkpt>
      <trkpt lat="44.84527" lon="-0.35984">
        <ele>35</ele>
        <time>2013-09-29T12:48:05Z</time>
      </trkpt>
      <trkpt lat="44.84526" lon="-0.35985">
        <ele>35</ele>
        <time>2013-09-29T12:48:06Z</time>
      </trkpt>
      <trkpt lat="44.84525" lon="-0.35986">
        <ele>35</ele>
        <time>2013-09-29T12:48:07Z</time>
      </trkpt>
      <trkpt lat="44.84524" lon="-0.35989">
        <ele>35</ele>
        <time>2013-09-29T12:48:08Z</time>
      </trkpt>
      <trkpt lat="44.84512" lon="-0.36">
        <ele>33</ele>
        <time>2013-09-29T12:48:14Z</time>
      </trkpt>
      <trkpt lat="44.84511" lon="-0.36001">
        <ele>33</ele>
        <time>2013-09-29T12:48:20Z</time>
      </trkpt>
      <trkpt lat="44.8451" lon="-0.36003">
        <ele>32</ele>
        <time>2013-09-29T12:48:21Z</time>
      </trkpt>
      <trkpt lat="44.84509" lon="-0.36008">
        <ele>32</ele>
        <time>2013-09-29T12:48:23Z</time>
      </trkpt>
      <trkpt lat="44.84508" lon="-0.36012">
        <ele>32</ele>
        <time>2013-09-29T12:48:24Z</time>
      </trkpt>
      <trkpt lat="44.84506" lon="-0.36048">
        <ele>28</ele>
        <time>2013-09-29T12:48:32Z</time>
      </trkpt>
      <trkpt lat="44.84505" lon="-0.3607">
        <ele>26</ele>
        <time>2013-09-29T12:48:35Z</time>
      </trkpt>
      <trkpt lat="44.84506" lon="-0.36098">
        <ele>24</ele>
        <time>2013-09-29T12:48:40Z</time>
      </trkpt>
      <trkpt lat="44.84507" lon="-0.36111">
        <ele>24</ele>
        <time>2013-09-29T12:49:09Z</time>
      </trkpt>
      <trkpt lat="44.84504" lon="-0.36122">
        <ele>23</ele>
        <time>2013-09-29T12:49:14Z</time>
      </trkpt>
      <trkpt lat="44.84504" lon="-0.36161">
        <ele>22</ele>
        <time>2013-09-29T12:49:23Z</time>
      </trkpt>
      <trkpt lat="44.84507" lon="-0.36197">
        <ele>21</ele>
        <time>2013-09-29T12:49:31Z</time>
      </trkpt>
      <trkpt lat="44.84509" lon="-0.36231">
        <ele>22</ele>
        <time>2013-09-29T12:49:38Z</time>
      </trkpt>
      <trkpt lat="44.84512" lon="-0.3628">
        <ele>23</ele>
        <time>2013-09-29T12:49:46Z</time>
      </trkpt>
      <trkpt lat="44.84513" lon="-0.36317">
        <ele>24</ele>
        <time>2013-09-29T12:49:53Z</time>
      </trkpt>
      <trkpt lat="44.84515" lon="-0.36346">
        <ele>25</ele>
        <time>2013-09-29T12:49:59Z</time>
      </trkpt>
      <trkpt lat="44.84517" lon="-0.3635">
        <ele>25</ele>
        <time>2013-09-29T12:50:00Z</time>
      </trkpt>
      <trkpt lat="44.8452" lon="-0.36352">
        <ele>25</ele>
        <time>2013-09-29T12:50:01Z</time>
      </trkpt>
      <trkpt lat="44.84551" lon="-0.36356">
        <ele>25</ele>
        <time>2013-09-29T12:50:08Z</time>
      </trkpt>
      <trkpt lat="44.84559" lon="-0.36358">
        <ele>25</ele>
        <time>2013-09-29T12:50:10Z</time>
      </trkpt>
      <trkpt lat="44.84582" lon="-0.36365">
        <ele>25</ele>
        <time>2013-09-29T12:50:15Z</time>
      </trkpt>
      <trkpt lat="44.84586" lon="-0.36367">
        <ele>25</ele>
        <time>2013-09-29T12:50:16Z</time>
      </trkpt>
      <trkpt lat="44.84607" lon="-0.36376">
        <ele>26</ele>
        <time>2013-09-29T12:50:21Z</time>
      </trkpt>
      <trkpt lat="44.84611" lon="-0.36379">
        <ele>26</ele>
        <time>2013-09-29T12:50:22Z</time>
      </trkpt>
      <trkpt lat="44.84626" lon="-0.36395">
        <ele>27</ele>
        <time>2013-09-29T12:50:27Z</time>
      </trkpt>
      <trkpt lat="44.84637" lon="-0.36404">
        <ele>28</ele>
        <time>2013-09-29T12:50:30Z</time>
      </trkpt>
      <trkpt lat="44.84652" lon="-0.36425">
        <ele>29</ele>
        <time>2013-09-29T12:50:35Z</time>
      </trkpt>
      <trkpt lat="44.84668" lon="-0.36438">
        <ele>30</ele>
        <time>2013-09-29T12:50:40Z</time>
      </trkpt>
      <trkpt lat="44.84672" lon="-0.36438">
        <ele>30</ele>
        <time>2013-09-29T12:50:41Z</time>
      </trkpt>
      <trkpt lat="44.84676" lon="-0.36436">
        <ele>30</ele>
        <time>2013-09-29T12:50:42Z</time>
      </trkpt>
      <trkpt lat="44.84684" lon="-0.36429">
        <ele>30</ele>
        <time>2013-09-29T12:50:44Z</time>
      </trkpt>
      <trkpt lat="44.84691" lon="-0.36422">
        <ele>29</ele>
        <time>2013-09-29T12:50:46Z</time>
      </trkpt>
      <trkpt lat="44.84696" lon="-0.36419">
        <ele>29</ele>
        <time>2013-09-29T12:50:47Z</time>
      </trkpt>
      <trkpt lat="44.84704" lon="-0.36414">
        <ele>29</ele>
        <time>2013-09-29T12:50:49Z</time>
      </trkpt>
      <trkpt lat="44.84742" lon="-0.36387">
        <ele>27</ele>
        <time>2013-09-29T12:50:57Z</time>
      </trkpt>
      <trkpt lat="44.84789" lon="-0.36353">
        <ele>27</ele>
        <time>2013-09-29T12:51:07Z</time>
      </trkpt>
      <trkpt lat="44.84822" lon="-0.36336">
        <ele>26</ele>
        <time>2013-09-29T12:51:14Z</time>
      </trkpt>
      <trkpt lat="44.84826" lon="-0.36336">
        <ele>26</ele>
        <time>2013-09-29T12:51:15Z</time>
      </trkpt>
      <trkpt lat="44.84829" lon="-0.36337">
        <ele>26</ele>
        <time>2013-09-29T12:51:16Z</time>
      </trkpt>
      <trkpt lat="44.84843" lon="-0.36344">
        <ele>27</ele>
        <time>2013-09-29T12:51:23Z</time>
      </trkpt>
      <trkpt lat="44.84845" lon="-0.36345">
        <ele>27</ele>
        <time>2013-09-29T12:51:24Z</time>
      </trkpt>
      <trkpt lat="44.84847" lon="-0.36345">
        <ele>27</ele>
        <time>2013-09-29T12:51:25Z</time>
      </trkpt>
      <trkpt lat="44.84849" lon="-0.36345">
        <ele>27</ele>
        <time>2013-09-29T12:51:26Z</time>
      </trkpt>
      <trkpt lat="44.8485" lon="-0.36346">
        <ele>27</ele>
        <time>2013-09-29T12:51:27Z</time>
      </trkpt>
      <trkpt lat="44.84857" lon="-0.36351">
        <ele>27</ele>
        <time>2013-09-29T12:51:32Z</time>
      </trkpt>
      <trkpt lat="44.84858" lon="-0.36353">
        <ele>27</ele>
        <time>2013-09-29T12:51:33Z</time>
      </trkpt>
      <trkpt lat="44.84867" lon="-0.36363">
        <ele>27</ele>
        <time>2013-09-29T12:51:36Z</time>
      </trkpt>
      <trkpt lat="44.84875" lon="-0.3637">
        <ele>26</ele>
        <time>2013-09-29T12:51:38Z</time>
      </trkpt>
      <trkpt lat="44.84886" lon="-0.36381">
        <ele>26</ele>
        <time>2013-09-29T12:51:42Z</time>
      </trkpt>
      <trkpt lat="44.84892" lon="-0.36383">
        <ele>26</ele>
        <time>2013-09-29T12:51:45Z</time>
      </trkpt>
      <trkpt lat="44.84902" lon="-0.36381">
        <ele>25</ele>
        <time>2013-09-29T12:51:50Z</time>
      </trkpt>
      <trkpt lat="44.84911" lon="-0.36375">
        <ele>25</ele>
        <time>2013-09-29T12:51:55Z</time>
      </trkpt>
      <trkpt lat="44.84916" lon="-0.36363">
        <ele>25</ele>
        <time>2013-09-29T12:52:00Z</time>
      </trkpt>
      <trkpt lat="44.84919" lon="-0.36358">
        <ele>24</ele>
        <time>2013-09-29T12:52:08Z</time>
      </trkpt>
      <trkpt lat="44.8492" lon="-0.36356">
        <ele>24</ele>
        <time>2013-09-29T12:52:15Z</time>
      </trkpt>
      <trkpt lat="44.84922" lon="-0.36355">
        <ele>24</ele>
        <time>2013-09-29T12:52:27Z</time>
      </trkpt>
      <trkpt lat="44.84923" lon="-0.36354">
        <ele>24</ele>
        <time>2013-09-29T12:52:34Z</time>
      </trkpt>
      <trkpt lat="44.84924" lon="-0.36354">
        <ele>24</ele>
        <time>2013-09-29T12:52:45Z</time>
      </trkpt>
      <trkpt lat="44.84925" lon="-0.36353">
        <ele>24</ele>
        <time>2013-09-29T12:52:56Z</time>
      </trkpt>
      <trkpt lat="44.84926" lon="-0.36351">
        <ele>24</ele>
        <time>2013-09-29T12:53:07Z</time>
      </trkpt>
      <trkpt lat="44.84927" lon="-0.36351">
        <ele>24</ele>
        <time>2013-09-29T12:53:13Z</time>
      </trkpt>
      <trkpt lat="44.84931" lon="-0.36353">
        <ele>24</ele>
        <time>2013-09-29T12:53:20Z</time>
      </trkpt>
      <trkpt lat="44.84932" lon="-0.36353">
        <ele>24</ele>
        <time>2013-09-29T12:53:28Z</time>
      </trkpt>
      <trkpt lat="44.84932" lon="-0.36354">
        <ele>24</ele>
        <time>2013-09-29T12:53:43Z</time>
      </trkpt>
      <trkpt lat="44.84932" lon="-0.36355">
        <ele>24</ele>
        <time>2013-09-29T12:53:59Z</time>
      </trkpt>
      <trkpt lat="44.84933" lon="-0.36355">
        <ele>24</ele>
        <time>2013-09-29T12:54:15Z</time>
      </trkpt>
      <trkpt lat="44.84934" lon="-0.36355">
        <ele>24</ele>
        <time>2013-09-29T12:54:31Z</time>
      </trkpt>
      <trkpt lat="44.84934" lon="-0.36355">
        <ele>24</ele>
        <time>2013-09-29T12:54:44Z</time>
      </trkpt>
      <trkpt lat="44.84934" lon="-0.36354">
        <ele>24</ele>
        <time>2013-09-29T12:55:01Z</time>
      </trkpt>
      <trkpt lat="44.84934" lon="-0.36355">
        <ele>24</ele>
        <time>2013-09-29T12:55:16Z</time>
      </trkpt>
      <trkpt lat="44.84936" lon="-0.36357">
        <ele>24</ele>
        <time>2013-09-29T12:55:23Z</time>
      </trkpt>
      <trkpt lat="44.84937" lon="-0.3636">
        <ele>24</ele>
        <time>2013-09-29T12:55:29Z</time>
      </trkpt>
      <trkpt lat="44.84937" lon="-0.3636">
        <ele>24</ele>
        <time>2013-09-29T12:55:42Z</time>
      </trkpt>
      <trkpt lat="44.84937" lon="-0.3636">
        <ele>24</ele>
        <time>2013-09-29T12:55:57Z</time>
      </trkpt>
      <trkpt lat="44.84936" lon="-0.36361">
        <ele>24</ele>
        <time>2013-09-29T12:56:04Z</time>
      </trkpt>
      <trkpt lat="44.84936" lon="-0.36361">
        <ele>24</ele>
        <time>2013-09-29T12:56:05Z</time>
      </trkpt>
      <trkpt lat="44.84936" lon="-0.36368">
        <ele>24</ele>
        <time>2013-09-29T12:56:09Z</time>
      </trkpt>
      <trkpt lat="44.84934" lon="-0.36377">
        <ele>24</ele>
        <time>2013-09-29T12:56:15Z</time>
      </trkpt>
      <trkpt lat="44.84935" lon="-0.36383">
        <ele>24</ele>
        <time>2013-09-29T12:56:21Z</time>
      </trkpt>
      <trkpt lat="44.84937" lon="-0.36394">
        <ele>24</ele>
        <time>2013-09-29T12:56:28Z</time>
      </trkpt>
      <trkpt lat="44.84938" lon="-0.36393">
        <ele>24</ele>
        <time>2013-09-29T12:56:37Z</time>
      </trkpt>
      <trkpt lat="44.84939" lon="-0.36396">
        <ele>24</ele>
        <time>2013-09-29T12:56:45Z</time>
      </trkpt>
      <trkpt lat="44.84939" lon="-0.36397">
        <ele>24</ele>
        <time>2013-09-29T12:56:50Z</time>
      </trkpt>
      <trkpt lat="44.84939" lon="-0.36402">
        <ele>24</ele>
        <time>2013-09-29T12:56:59Z</time>
      </trkpt>
      <trkpt lat="44.84939" lon="-0.36402">
        <ele>24</ele>
        <time>2013-09-29T12:57:01Z</time>
      </trkpt>
      <trkpt lat="44.84943" lon="-0.36401">
        <ele>24</ele>
        <time>2013-09-29T12:57:08Z</time>
      </trkpt>
      <trkpt lat="44.84951" lon="-0.364">
        <ele>24</ele>
        <time>2013-09-29T12:57:16Z</time>
      </trkpt>
      <trkpt lat="44.84956" lon="-0.36398">
        <ele>24</ele>
        <time>2013-09-29T12:57:19Z</time>
      </trkpt>
      <trkpt lat="44.84964" lon="-0.36385">
        <ele>24</ele>
        <time>2013-09-29T12:57:25Z</time>
      </trkpt>
      <trkpt lat="44.84967" lon="-0.36381">
        <ele>24</ele>
        <time>2013-09-29T12:57:27Z</time>
      </trkpt>
      <trkpt lat="44.84978" lon="-0.36369">
        <ele>24</ele>
        <time>2013-09-29T12:57:33Z</time>
      </trkpt>
      <trkpt lat="44.84991" lon="-0.3635">
        <ele>25</ele>
        <time>2013-09-29T12:57:39Z</time>
      </trkpt>
      <trkpt lat="44.85004" lon="-0.36325">
        <ele>25</ele>
        <time>2013-09-29T12:57:48Z</time>
      </trkpt>
      <trkpt lat="44.85012" lon="-0.36313">
        <ele>25</ele>
        <time>2013-09-29T12:57:55Z</time>
      </trkpt>
      <trkpt lat="44.85013" lon="-0.36312">
        <ele>25</ele>
        <time>2013-09-29T12:57:56Z</time>
      </trkpt>
      <trkpt lat="44.85022" lon="-0.36295">
        <ele>25</ele>
        <time>2013-09-29T12:58:03Z</time>
      </trkpt>
      <trkpt lat="44.85026" lon="-0.36288">
        <ele>25</ele>
        <time>2013-09-29T12:58:05Z</time>
      </trkpt>
      <trkpt lat="44.85032" lon="-0.36275">
        <ele>25</ele>
        <time>2013-09-29T12:58:09Z</time>
      </trkpt>
      <trkpt lat="44.85041" lon="-0.36263">
        <ele>25</ele>
        <time>2013-09-29T12:58:15Z</time>
      </trkpt>
      <trkpt lat="44.85048" lon="-0.36257">
        <ele>25</ele>
        <time>2013-09-29T12:58:21Z</time>
      </trkpt>
      <trkpt lat="44.85051" lon="-0.36255">
        <ele>25</ele>
        <time>2013-09-29T12:58:25Z</time>
      </trkpt>
      <trkpt lat="44.85052" lon="-0.36251">
        <ele>25</ele>
        <time>2013-09-29T12:58:27Z</time>
      </trkpt>
      <trkpt lat="44.8506" lon="-0.36242">
        <ele>25</ele>
        <time>2013-09-29T12:58:34Z</time>
      </trkpt>
      <trkpt lat="44.85076" lon="-0.36233">
        <ele>25</ele>
        <time>2013-09-29T12:58:41Z</time>
      </trkpt>
      <trkpt lat="44.85083" lon="-0.36229">
        <ele>26</ele>
        <time>2013-09-29T12:58:45Z</time>
      </trkpt>
      <trkpt lat="44.85107" lon="-0.36213">
        <ele>26</ele>
        <time>2013-09-29T12:58:52Z</time>
      </trkpt>
      <trkpt lat="44.85125" lon="-0.36207">
        <ele>26</ele>
        <time>2013-09-29T12:58:58Z</time>
      </trkpt>
      <trkpt lat="44.85144" lon="-0.36201">
        <ele>26</ele>
        <time>2013-09-29T12:59:04Z</time>
      </trkpt>
      <trkpt lat="44.85159" lon="-0.36199">
        <ele>26</ele>
        <time>2013-09-29T12:59:07Z</time>
      </trkpt>
      <trkpt lat="44.85185" lon="-0.36198">
        <ele>25</ele>
        <time>2013-09-29T12:59:14Z</time>
      </trkpt>
      <trkpt lat="44.85197" lon="-0.36198">
        <ele>25</ele>
        <time>2013-09-29T12:59:19Z</time>
      </trkpt>
      <trkpt lat="44.85214" lon="-0.36201">
        <ele>25</ele>
        <time>2013-09-29T12:59:25Z</time>
      </trkpt>
      <trkpt lat="44.85227" lon="-0.36214">
        <ele>26</ele>
        <time>2013-09-29T12:59:31Z</time>
      </trkpt>
      <trkpt lat="44.85235" lon="-0.36231">
        <ele>26</ele>
        <time>2013-09-29T12:59:37Z</time>
      </trkpt>
      <trkpt lat="44.85245" lon="-0.36248">
        <ele>26</ele>
        <time>2013-09-29T12:59:43Z</time>
      </trkpt>
      <trkpt lat="44.85257" lon="-0.3627">
        <ele>26</ele>
        <time>2013-09-29T12:59:50Z</time>
      </trkpt>
      <trkpt lat="44.85265" lon="-0.3629">
        <ele>26</ele>
        <time>2013-09-29T12:59:55Z</time>
      </trkpt>
      <trkpt lat="44.85269" lon="-0.36296">
        <ele>26</ele>
        <time>2013-09-29T12:59:57Z</time>
      </trkpt>
      <trkpt lat="44.85274" lon="-0.36308">
        <ele>26</ele>
        <time>2013-09-29T13:00:02Z</time>
      </trkpt>
      <trkpt lat="44.85281" lon="-0.36333">
        <ele>27</ele>
        <time>2013-09-29T13:00:09Z</time>
      </trkpt>
      <trkpt lat="44.85284" lon="-0.36347">
        <ele>28</ele>
        <time>2013-09-29T13:00:12Z</time>
      </trkpt>
      <trkpt lat="44.8529" lon="-0.3636">
        <ele>28</ele>
        <time>2013-09-29T13:00:20Z</time>
      </trkpt>
      <trkpt lat="44.85292" lon="-0.36361">
        <ele>27</ele>
        <time>2013-09-29T13:00:31Z</time>
      </trkpt>
      <trkpt lat="44.85292" lon="-0.36363">
        <ele>27</ele>
        <time>2013-09-29T13:00:35Z</time>
      </trkpt>
      <trkpt lat="44.85296" lon="-0.36377">
        <ele>28</ele>
        <time>2013-09-29T13:00:40Z</time>
      </trkpt>
      <trkpt lat="44.85298" lon="-0.36384">
        <ele>28</ele>
        <time>2013-09-29T13:00:42Z</time>
      </trkpt>
      <trkpt lat="44.85301" lon="-0.36391">
        <ele>28</ele>
        <time>2013-09-29T13:00:44Z</time>
      </trkpt>
      <trkpt lat="44.85309" lon="-0.36407">
        <ele>28</ele>
        <time>2013-09-29T13:00:50Z</time>
      </trkpt>
      <trkpt lat="44.85312" lon="-0.36412">
        <ele>28</ele>
        <time>2013-09-29T13:00:52Z</time>
      </trkpt>
      <trkpt lat="44.85315" lon="-0.36414">
        <ele>28</ele>
        <time>2013-09-29T13:00:54Z</time>
      </trkpt>
      <trkpt lat="44.8532" lon="-0.3642">
        <ele>28</ele>
        <time>2013-09-29T13:00:59Z</time>
      </trkpt>
      <trkpt lat="44.85328" lon="-0.36418">
        <ele>27</ele>
        <time>2013-09-29T13:01:05Z</time>
      </trkpt>
      <trkpt lat="44.85338" lon="-0.36408">
        <ele>26</ele>
        <time>2013-09-29T13:01:13Z</time>
      </trkpt>
      <trkpt lat="44.85341" lon="-0.36406">
        <ele>26</ele>
        <time>2013-09-29T13:01:15Z</time>
      </trkpt>
      <trkpt lat="44.85353" lon="-0.36406">
        <ele>26</ele>
        <time>2013-09-29T13:01:21Z</time>
      </trkpt>
      <trkpt lat="44.85372" lon="-0.36408">
        <ele>26</ele>
        <time>2013-09-29T13:01:29Z</time>
      </trkpt>
      <trkpt lat="44.85376" lon="-0.36409">
        <ele>26</ele>
        <time>2013-09-29T13:01:31Z</time>
      </trkpt>
      <trkpt lat="44.85386" lon="-0.36413">
        <ele>26</ele>
        <time>2013-09-29T13:01:36Z</time>
      </trkpt>
      <trkpt lat="44.85406" lon="-0.36418">
        <ele>26</ele>
        <time>2013-09-29T13:01:43Z</time>
      </trkpt>
      <trkpt lat="44.85422" lon="-0.36419">
        <ele>27</ele>
        <time>2013-09-29T13:01:48Z</time>
      </trkpt>
      <trkpt lat="44.85434" lon="-0.36422">
        <ele>27</ele>
        <time>2013-09-29T13:01:54Z</time>
      </trkpt>
      <trkpt lat="44.85449" lon="-0.36426">
        <ele>28</ele>
        <time>2013-09-29T13:02:02Z</time>
      </trkpt>
      <trkpt lat="44.85467" lon="-0.3643">
        <ele>28</ele>
        <time>2013-09-29T13:02:10Z</time>
      </trkpt>
      <trkpt lat="44.85477" lon="-0.36434">
        <ele>28</ele>
        <time>2013-09-29T13:02:16Z</time>
      </trkpt>
      <trkpt lat="44.85479" lon="-0.36435">
        <ele>28</ele>
        <time>2013-09-29T13:02:17Z</time>
      </trkpt>
      <trkpt lat="44.85487" lon="-0.36436">
        <ele>29</ele>
        <time>2013-09-29T13:02:21Z</time>
      </trkpt>
      <trkpt lat="44.85504" lon="-0.36438">
        <ele>30</ele>
        <time>2013-09-29T13:02:28Z</time>
      </trkpt>
      <trkpt lat="44.85524" lon="-0.36442">
        <ele>31</ele>
        <time>2013-09-29T13:02:36Z</time>
      </trkpt>
      <trkpt lat="44.85542" lon="-0.36447">
        <ele>32</ele>
        <time>2013-09-29T13:02:44Z</time>
      </trkpt>
      <trkpt lat="44.85557" lon="-0.36451">
        <ele>33</ele>
        <time>2013-09-29T13:02:51Z</time>
      </trkpt>
      <trkpt lat="44.85574" lon="-0.36455">
        <ele>34</ele>
        <time>2013-09-29T13:02:59Z</time>
      </trkpt>
      <trkpt lat="44.85589" lon="-0.36458">
        <ele>36</ele>
        <time>2013-09-29T13:03:06Z</time>
      </trkpt>
      <trkpt lat="44.85602" lon="-0.3646">
        <ele>37</ele>
        <time>2013-09-29T13:03:13Z</time>
      </trkpt>
      <trkpt lat="44.85619" lon="-0.36463">
        <ele>38</ele>
        <time>2013-09-29T13:03:21Z</time>
      </trkpt>
      <trkpt lat="44.85634" lon="-0.36469">
        <ele>40</ele>
        <time>2013-09-29T13:03:29Z</time>
      </trkpt>
      <trkpt lat="44.85646" lon="-0.36477">
        <ele>41</ele>
        <time>2013-09-29T13:03:37Z</time>
      </trkpt>
      <trkpt lat="44.85648" lon="-0.36478">
        <ele>41</ele>
        <time>2013-09-29T13:03:38Z</time>
      </trkpt>
      <trkpt lat="44.85653" lon="-0.36482">
        <ele>42</ele>
        <time>2013-09-29T13:03:42Z</time>
      </trkpt>
      <trkpt lat="44.85662" lon="-0.36488">
        <ele>43</ele>
        <time>2013-09-29T13:03:49Z</time>
      </trkpt>
      <trkpt lat="44.85668" lon="-0.36492">
        <ele>44</ele>
        <time>2013-09-29T13:03:55Z</time>
      </trkpt>
      <trkpt lat="44.85676" lon="-0.36499">
        <ele>45</ele>
        <time>2013-09-29T13:04:02Z</time>
      </trkpt>
      <trkpt lat="44.85681" lon="-0.36504">
        <ele>46</ele>
        <time>2013-09-29T13:04:06Z</time>
      </trkpt>
      <trkpt lat="44.85694" lon="-0.36514">
        <ele>47</ele>
        <time>2013-09-29T13:04:14Z</time>
      </trkpt>
      <trkpt lat="44.85707" lon="-0.36525">
        <ele>49</ele>
        <time>2013-09-29T13:04:23Z</time>
      </trkpt>
      <trkpt lat="44.85716" lon="-0.36532">
        <ele>50</ele>
        <time>2013-09-29T13:04:30Z</time>
      </trkpt>
      <trkpt lat="44.85727" lon="-0.36541">
        <ele>51</ele>
        <time>2013-09-29T13:04:37Z</time>
      </trkpt>
      <trkpt lat="44.8574" lon="-0.36551">
        <ele>52</ele>
        <time>2013-09-29T13:04:45Z</time>
      </trkpt>
      <trkpt lat="44.85751" lon="-0.3656">
        <ele>54</ele>
        <time>2013-09-29T13:04:52Z</time>
      </trkpt>
      <trkpt lat="44.85764" lon="-0.36572">
        <ele>56</ele>
        <time>2013-09-29T13:05:01Z</time>
      </trkpt>
      <trkpt lat="44.85777" lon="-0.36586">
        <ele>59</ele>
        <time>2013-09-29T13:05:09Z</time>
      </trkpt>
      <trkpt lat="44.85789" lon="-0.36597">
        <ele>61</ele>
        <time>2013-09-29T13:05:17Z</time>
      </trkpt>
      <trkpt lat="44.858" lon="-0.36611">
        <ele>62</ele>
        <time>2013-09-29T13:05:26Z</time>
      </trkpt>
      <trkpt lat="44.85809" lon="-0.36624">
        <ele>63</ele>
        <time>2013-09-29T13:05:35Z</time>
      </trkpt>
      <trkpt lat="44.85816" lon="-0.36637">
        <ele>64</ele>
        <time>2013-09-29T13:05:42Z</time>
      </trkpt>
      <trkpt lat="44.85821" lon="-0.3665">
        <ele>65</ele>
        <time>2013-09-29T13:05:49Z</time>
      </trkpt>
      <trkpt lat="44.85827" lon="-0.36661">
        <ele>66</ele>
        <time>2013-09-29T13:05:56Z</time>
      </trkpt>
      <trkpt lat="44.8583" lon="-0.36667">
        <ele>66</ele>
        <time>2013-09-29T13:06:00Z</time>
      </trkpt>
      <trkpt lat="44.85833" lon="-0.36674">
        <ele>67</ele>
        <time>2013-09-29T13:06:04Z</time>
      </trkpt>
      <trkpt lat="44.85842" lon="-0.36691">
        <ele>68</ele>
        <time>2013-09-29T13:06:13Z</time>
      </trkpt>
      <trkpt lat="44.8585" lon="-0.36702">
        <ele>68</ele>
        <time>2013-09-29T13:06:21Z</time>
      </trkpt>
      <trkpt lat="44.8586" lon="-0.36712">
        <ele>69</ele>
        <time>2013-09-29T13:06:28Z</time>
      </trkpt>
      <trkpt lat="44.85867" lon="-0.36717">
        <ele>69</ele>
        <time>2013-09-29T13:06:32Z</time>
      </trkpt>
      <trkpt lat="44.85878" lon="-0.36728">
        <ele>70</ele>
        <time>2013-09-29T13:06:39Z</time>
      </trkpt>
      <trkpt lat="44.8589" lon="-0.36742">
        <ele>70</ele>
        <time>2013-09-29T13:06:47Z</time>
      </trkpt>
      <trkpt lat="44.85901" lon="-0.3675">
        <ele>71</ele>
        <time>2013-09-29T13:06:54Z</time>
      </trkpt>
      <trkpt lat="44.85915" lon="-0.36758">
        <ele>72</ele>
        <time>2013-09-29T13:07:01Z</time>
      </trkpt>
      <trkpt lat="44.85926" lon="-0.36762">
        <ele>73</ele>
        <time>2013-09-29T13:07:08Z</time>
      </trkpt>
      <trkpt lat="44.85941" lon="-0.36765">
        <ele>74</ele>
        <time>2013-09-29T13:07:16Z</time>
      </trkpt>
      <trkpt lat="44.85951" lon="-0.36766">
        <ele>74</ele>
        <time>2013-09-29T13:07:23Z</time>
      </trkpt>
      <trkpt lat="44.85956" lon="-0.36769">
        <ele>75</ele>
        <time>2013-09-29T13:07:29Z</time>
      </trkpt>
      <trkpt lat="44.85957" lon="-0.36769">
        <ele>75</ele>
        <time>2013-09-29T13:07:36Z</time>
      </trkpt>
      <trkpt lat="44.85957" lon="-0.3677">
        <ele>75</ele>
        <time>2013-09-29T13:07:42Z</time>
      </trkpt>
      <trkpt lat="44.85958" lon="-0.3677">
        <ele>75</ele>
        <time>2013-09-29T13:07:54Z</time>
      </trkpt>
      <trkpt lat="44.85959" lon="-0.3677">
        <ele>75</ele>
        <time>2013-09-29T13:08:04Z</time>
      </trkpt>
      <trkpt lat="44.85959" lon="-0.36769">
        <ele>75</ele>
        <time>2013-09-29T13:08:10Z</time>
      </trkpt>
      <trkpt lat="44.85959" lon="-0.36769">
        <ele>75</ele>
        <time>2013-09-29T13:08:15Z</time>
      </trkpt>
      <trkpt lat="44.8596" lon="-0.36769">
        <ele>75</ele>
        <time>2013-09-29T13:08:23Z</time>
      </trkpt>
      <trkpt lat="44.85961" lon="-0.36768">
        <ele>75</ele>
        <time>2013-09-29T13:08:30Z</time>
      </trkpt>
      <trkpt lat="44.85962" lon="-0.36768">
        <ele>75</ele>
        <time>2013-09-29T13:08:40Z</time>
      </trkpt>
      <trkpt lat="44.85963" lon="-0.36768">
        <ele>75</ele>
        <time>2013-09-29T13:08:55Z</time>
      </trkpt>
      <trkpt lat="44.85963" lon="-0.36767">
        <ele>75</ele>
        <time>2013-09-29T13:09:13Z</time>
      </trkpt>
      <trkpt lat="44.85963" lon="-0.36766">
        <ele>75</ele>
        <time>2013-09-29T13:09:33Z</time>
      </trkpt>
      <trkpt lat="44.85964" lon="-0.36766">
        <ele>75</ele>
        <time>2013-09-29T13:09:49Z</time>
      </trkpt>
      <trkpt lat="44.85963" lon="-0.36766">
        <ele>75</ele>
        <time>2013-09-29T13:10:01Z</time>
      </trkpt>
      <trkpt lat="44.85963" lon="-0.36766">
        <ele>75</ele>
        <time>2013-09-29T13:10:14Z</time>
      </trkpt>
      <trkpt lat="44.85963" lon="-0.36766">
        <ele>75</ele>
        <time>2013-09-29T13:10:25Z</time>
      </trkpt>
      <trkpt lat="44.85964" lon="-0.36765">
        <ele>75</ele>
        <time>2013-09-29T13:10:31Z</time>
      </trkpt>
      <trkpt lat="44.85964" lon="-0.36765">
        <ele>75</ele>
        <time>2013-09-29T13:10:38Z</time>
      </trkpt>
      <trkpt lat="44.85964" lon="-0.36764">
        <ele>75</ele>
        <time>2013-09-29T13:10:53Z</time>
      </trkpt>
      <trkpt lat="44.85965" lon="-0.36764">
        <ele>75</ele>
        <time>2013-09-29T13:10:55Z</time>
      </trkpt>
      <trkpt lat="44.85968" lon="-0.36767">
        <ele>75</ele>
        <time>2013-09-29T13:10:59Z</time>
      </trkpt>
      <trkpt lat="44.85988" lon="-0.36772">
        <ele>76</ele>
        <time>2013-09-29T13:11:09Z</time>
      </trkpt>
      <trkpt lat="44.8601" lon="-0.36783">
        <ele>76</ele>
        <time>2013-09-29T13:11:19Z</time>
      </trkpt>
      <trkpt lat="44.8603" lon="-0.36793">
        <ele>76</ele>
        <time>2013-09-29T13:11:27Z</time>
      </trkpt>
      <trkpt lat="44.86045" lon="-0.36803">
        <ele>76</ele>
        <time>2013-09-29T13:11:34Z</time>
      </trkpt>
      <trkpt lat="44.86062" lon="-0.36817">
        <ele>76</ele>
        <time>2013-09-29T13:11:40Z</time>
      </trkpt>
      <trkpt lat="44.86074" lon="-0.36826">
        <ele>76</ele>
        <time>2013-09-29T13:11:43Z</time>
      </trkpt>
      <trkpt lat="44.8609" lon="-0.3683">
        <ele>76</ele>
        <time>2013-09-29T13:11:47Z</time>
      </trkpt>
      <trkpt lat="44.86094" lon="-0.36831">
        <ele>76</ele>
        <time>2013-09-29T13:11:48Z</time>
      </trkpt>
      <trkpt lat="44.86115" lon="-0.36841">
        <ele>77</ele>
        <time>2013-09-29T13:11:53Z</time>
      </trkpt>
      <trkpt lat="44.86148" lon="-0.36857">
        <ele>78</ele>
        <time>2013-09-29T13:12:01Z</time>
      </trkpt>
      <trkpt lat="44.86175" lon="-0.3687">
        <ele>78</ele>
        <time>2013-09-29T13:12:08Z</time>
      </trkpt>
      <trkpt lat="44.86208" lon="-0.36885">
        <ele>78</ele>
        <time>2013-09-29T13:12:17Z</time>
      </trkpt>
      <trkpt lat="44.86223" lon="-0.36884">
        <ele>78</ele>
        <time>2013-09-29T13:12:21Z</time>
      </trkpt>
      <trkpt lat="44.86227" lon="-0.36886">
        <ele>78</ele>
        <time>2013-09-29T13:12:22Z</time>
      </trkpt>
      <trkpt lat="44.86228" lon="-0.3689">
        <ele>78</ele>
        <time>2013-09-29T13:12:23Z</time>
      </trkpt>
      <trkpt lat="44.86229" lon="-0.36896">
        <ele>78</ele>
        <time>2013-09-29T13:12:24Z</time>
      </trkpt>
      <trkpt lat="44.86228" lon="-0.36901">
        <ele>78</ele>
        <time>2013-09-29T13:12:25Z</time>
      </trkpt>
      <trkpt lat="44.86227" lon="-0.36924">
        <ele>78</ele>
        <time>2013-09-29T13:12:29Z</time>
      </trkpt>
      <trkpt lat="44.86228" lon="-0.36972">
        <ele>77</ele>
        <time>2013-09-29T13:12:37Z</time>
      </trkpt>
      <trkpt lat="44.86235" lon="-0.37025">
        <ele>76</ele>
        <time>2013-09-29T13:12:46Z</time>
      </trkpt>
      <trkpt lat="44.86238" lon="-0.37044">
        <ele>76</ele>
        <time>2013-09-29T13:12:49Z</time>
      </trkpt>
      <trkpt lat="44.86239" lon="-0.37051">
        <ele>76</ele>
        <time>2013-09-29T13:12:50Z</time>
      </trkpt>
      <trkpt lat="44.8624" lon="-0.37057">
        <ele>76</ele>
        <time>2013-09-29T13:12:51Z</time>
      </trkpt>
      <trkpt lat="44.86245" lon="-0.37095">
        <ele>76</ele>
        <time>2013-09-29T13:12:57Z</time>
      </trkpt>
      <trkpt lat="44.86246" lon="-0.37101">
        <ele>76</ele>
        <time>2013-09-29T13:12:58Z</time>
      </trkpt>
      <trkpt lat="44.86246" lon="-0.37107">
        <ele>75</ele>
        <time>2013-09-29T13:12:59Z</time>
      </trkpt>
      <trkpt lat="44.86254" lon="-0.37162">
        <ele>75</ele>
        <time>2013-09-29T13:13:08Z</time>
      </trkpt>
      <trkpt lat="44.86267" lon="-0.37219">
        <ele>75</ele>
        <time>2013-09-29T13:13:18Z</time>
      </trkpt>
      <trkpt lat="44.86273" lon="-0.37237">
        <ele>75</ele>
        <time>2013-09-29T13:13:21Z</time>
      </trkpt>
      <trkpt lat="44.86294" lon="-0.37291">
        <ele>76</ele>
        <time>2013-09-29T13:13:31Z</time>
      </trkpt>
      <trkpt lat="44.86304" lon="-0.37313">
        <ele>76</ele>
        <time>2013-09-29T13:13:35Z</time>
      </trkpt>
      <trkpt lat="44.86309" lon="-0.37328">
        <ele>76</ele>
        <time>2013-09-29T13:13:38Z</time>
      </trkpt>
      <trkpt lat="44.86315" lon="-0.37371">
        <ele>77</ele>
        <time>2013-09-29T13:13:47Z</time>
      </trkpt>
      <trkpt lat="44.86312" lon="-0.37374">
        <ele>77</ele>
        <time>2013-09-29T13:13:48Z</time>
      </trkpt>
      <trkpt lat="44.86298" lon="-0.37387">
        <ele>77</ele>
        <time>2013-09-29T13:13:55Z</time>
      </trkpt>
      <trkpt lat="44.86283" lon="-0.37399">
        <ele>77</ele>
        <time>2013-09-29T13:14:02Z</time>
      </trkpt>
      <trkpt lat="44.86267" lon="-0.37415">
        <ele>76</ele>
        <time>2013-09-29T13:14:09Z</time>
      </trkpt>
      <trkpt lat="44.86251" lon="-0.37426">
        <ele>76</ele>
        <time>2013-09-29T13:14:15Z</time>
      </trkpt>
      <trkpt lat="44.86224" lon="-0.37444">
        <ele>76</ele>
        <time>2013-09-29T13:14:25Z</time>
      </trkpt>
      <trkpt lat="44.86205" lon="-0.37457">
        <ele>76</ele>
        <time>2013-09-29T13:14:32Z</time>
      </trkpt>
      <trkpt lat="44.86187" lon="-0.37471">
        <ele>77</ele>
        <time>2013-09-29T13:14:38Z</time>
      </trkpt>
      <trkpt lat="44.86187" lon="-0.37475">
        <ele>77</ele>
        <time>2013-09-29T13:14:39Z</time>
      </trkpt>
      <trkpt lat="44.86187" lon="-0.37479">
        <ele>78</ele>
        <time>2013-09-29T13:14:40Z</time>
      </trkpt>
      <trkpt lat="44.8619" lon="-0.375">
        <ele>79</ele>
        <time>2013-09-29T13:14:46Z</time>
      </trkpt>
      <trkpt lat="44.86178" lon="-0.37517">
        <ele>80</ele>
        <time>2013-09-29T13:14:52Z</time>
      </trkpt>
      <trkpt lat="44.8616" lon="-0.37527">
        <ele>80</ele>
        <time>2013-09-29T13:14:59Z</time>
      </trkpt>
      <trkpt lat="44.86146" lon="-0.37534">
        <ele>80</ele>
        <time>2013-09-29T13:15:06Z</time>
      </trkpt>
      <trkpt lat="44.86129" lon="-0.37547">
        <ele>80</ele>
        <time>2013-09-29T13:15:14Z</time>
      </trkpt>
      <trkpt lat="44.86129" lon="-0.37549">
        <ele>80</ele>
        <time>2013-09-29T13:15:15Z</time>
      </trkpt>
      <trkpt lat="44.86131" lon="-0.37565">
        <ele>80</ele>
        <time>2013-09-29T13:15:22Z</time>
      </trkpt>
      <trkpt lat="44.86131" lon="-0.37567">
        <ele>80</ele>
        <time>2013-09-29T13:15:23Z</time>
      </trkpt>
      <trkpt lat="44.86132" lon="-0.37571">
        <ele>80</ele>
        <time>2013-09-29T13:15:25Z</time>
      </trkpt>
      <trkpt lat="44.86133" lon="-0.37592">
        <ele>80</ele>
        <time>2013-09-29T13:15:33Z</time>
      </trkpt>
      <trkpt lat="44.86138" lon="-0.37605">
        <ele>81</ele>
        <time>2013-09-29T13:15:39Z</time>
      </trkpt>
      <trkpt lat="44.86139" lon="-0.37626">
        <ele>81</ele>
        <time>2013-09-29T13:15:46Z</time>
      </trkpt>
      <trkpt lat="44.86141" lon="-0.37647">
        <ele>81</ele>
        <time>2013-09-29T13:15:52Z</time>
      </trkpt>
      <trkpt lat="44.86136" lon="-0.37667">
        <ele>81</ele>
        <time>2013-09-29T13:15:59Z</time>
      </trkpt>
      <trkpt lat="44.86135" lon="-0.37669">
        <ele>81</ele>
        <time>2013-09-29T13:16:00Z</time>
      </trkpt>
      <trkpt lat="44.86134" lon="-0.37673">
        <ele>81</ele>
        <time>2013-09-29T13:16:05Z</time>
      </trkpt>
      <trkpt lat="44.86134" lon="-0.37673">
        <ele>81</ele>
        <time>2013-09-29T13:16:17Z</time>
      </trkpt>
      <trkpt lat="44.86134" lon="-0.37676">
        <ele>81</ele>
        <time>2013-09-29T13:16:28Z</time>
      </trkpt>
      <trkpt lat="44.86135" lon="-0.3768">
        <ele>81</ele>
        <time>2013-09-29T13:16:35Z</time>
      </trkpt>
      <trkpt lat="44.86134" lon="-0.37683">
        <ele>81</ele>
        <time>2013-09-29T13:16:37Z</time>
      </trkpt>
      <trkpt lat="44.86132" lon="-0.37703">
        <ele>81</ele>
        <time>2013-09-29T13:16:44Z</time>
      </trkpt>
      <trkpt lat="44.86133" lon="-0.37723">
        <ele>81</ele>
        <time>2013-09-29T13:16:51Z</time>
      </trkpt>
      <trkpt lat="44.86135" lon="-0.37741">
        <ele>81</ele>
        <time>2013-09-29T13:16:58Z</time>
      </trkpt>
      <trkpt lat="44.86136" lon="-0.37764">
        <ele>82</ele>
        <time>2013-09-29T13:17:06Z</time>
      </trkpt>
      <trkpt lat="44.86136" lon="-0.37782">
        <ele>82</ele>
        <time>2013-09-29T13:17:12Z</time>
      </trkpt>
      <trkpt lat="44.86135" lon="-0.37806">
        <ele>82</ele>
        <time>2013-09-29T13:17:20Z</time>
      </trkpt>
      <trkpt lat="44.86135" lon="-0.37831">
        <ele>82</ele>
        <time>2013-09-29T13:17:28Z</time>
      </trkpt>
      <trkpt lat="44.86135" lon="-0.37861">
        <ele>82</ele>
        <time>2013-09-29T13:17:38Z</time>
      </trkpt>
      <trkpt lat="44.86131" lon="-0.37862">
        <ele>82</ele>
        <time>2013-09-29T13:17:44Z</time>
      </trkpt>
      <trkpt lat="44.86131" lon="-0.37862">
        <ele>82</ele>
        <time>2013-09-29T13:17:53Z</time>
      </trkpt>
      <trkpt lat="44.86121" lon="-0.37865">
        <ele>82</ele>
        <time>2013-09-29T13:18:00Z</time>
      </trkpt>
      <trkpt lat="44.86119" lon="-0.37865">
        <ele>82</ele>
        <time>2013-09-29T13:18:01Z</time>
      </trkpt>
      <trkpt lat="44.86102" lon="-0.37867">
        <ele>81</ele>
        <time>2013-09-29T13:18:10Z</time>
      </trkpt>
      <trkpt lat="44.86089" lon="-0.37868">
        <ele>81</ele>
        <time>2013-09-29T13:18:17Z</time>
      </trkpt>
      <trkpt lat="44.8607" lon="-0.37871">
        <ele>80</ele>
        <time>2013-09-29T13:18:24Z</time>
      </trkpt>
      <trkpt lat="44.86037" lon="-0.37872">
        <ele>77</ele>
        <time>2013-09-29T13:18:33Z</time>
      </trkpt>
      <trkpt lat="44.86027" lon="-0.37872">
        <ele>76</ele>
        <time>2013-09-29T13:18:35Z</time>
      </trkpt>
      <trkpt lat="44.85984" lon="-0.37878">
        <ele>73</ele>
        <time>2013-09-29T13:18:44Z</time>
      </trkpt>
      <trkpt lat="44.85956" lon="-0.37881">
        <ele>72</ele>
        <time>2013-09-29T13:18:51Z</time>
      </trkpt>
      <trkpt lat="44.85944" lon="-0.37882">
        <ele>71</ele>
        <time>2013-09-29T13:18:54Z</time>
      </trkpt>
      <trkpt lat="44.85925" lon="-0.37887">
        <ele>72</ele>
        <time>2013-09-29T13:19:00Z</time>
      </trkpt>
      <trkpt lat="44.85908" lon="-0.37886">
        <ele>73</ele>
        <time>2013-09-29T13:19:06Z</time>
      </trkpt>
      <trkpt lat="44.85898" lon="-0.37886">
        <ele>73</ele>
        <time>2013-09-29T13:19:11Z</time>
      </trkpt>
      <trkpt lat="44.85897" lon="-0.37884">
        <ele>73</ele>
        <time>2013-09-29T13:19:12Z</time>
      </trkpt>
      <trkpt lat="44.85896" lon="-0.37882">
        <ele>73</ele>
        <time>2013-09-29T13:19:13Z</time>
      </trkpt>
      <trkpt lat="44.85891" lon="-0.37862">
        <ele>73</ele>
        <time>2013-09-29T13:19:20Z</time>
      </trkpt>
      <trkpt lat="44.85888" lon="-0.37852">
        <ele>72</ele>
        <time>2013-09-29T13:19:24Z</time>
      </trkpt>
      <trkpt lat="44.85886" lon="-0.37845">
        <ele>72</ele>
        <time>2013-09-29T13:19:31Z</time>
      </trkpt>
      <trkpt lat="44.85886" lon="-0.37844">
        <ele>72</ele>
        <time>2013-09-29T13:19:42Z</time>
      </trkpt>
      <trkpt lat="44.85886" lon="-0.37844">
        <ele>72</ele>
        <time>2013-09-29T13:19:48Z</time>
      </trkpt>
      <trkpt lat="44.85886" lon="-0.37843">
        <ele>72</ele>
        <time>2013-09-29T13:19:59Z</time>
      </trkpt>
      <trkpt lat="44.85886" lon="-0.37843">
        <ele>72</ele>
        <time>2013-09-29T13:20:02Z</time>
      </trkpt>
      <trkpt lat="44.85888" lon="-0.37848">
        <ele>72</ele>
        <time>2013-09-29T13:20:09Z</time>
      </trkpt>
      <trkpt lat="44.85887" lon="-0.3785">
        <ele>72</ele>
        <time>2013-09-29T13:20:17Z</time>
      </trkpt>
      <trkpt lat="44.85887" lon="-0.3785">
        <ele>72</ele>
        <time>2013-09-29T13:20:28Z</time>
      </trkpt>
      <trkpt lat="44.85888" lon="-0.37851">
        <ele>72</ele>
        <time>2013-09-29T13:20:37Z</time>
      </trkpt>
      <trkpt lat="44.85887" lon="-0.3785">
        <ele>72</ele>
        <time>2013-09-29T13:20:45Z</time>
      </trkpt>
      <trkpt lat="44.85887" lon="-0.3785">
        <ele>72</ele>
        <time>2013-09-29T13:20:57Z</time>
      </trkpt>
      <trkpt lat="44.85886" lon="-0.37849">
        <ele>72</ele>
        <time>2013-09-29T13:21:15Z</time>
      </trkpt>
      <trkpt lat="44.85886" lon="-0.3785">
        <ele>72</ele>
        <time>2013-09-29T13:21:31Z</time>
      </trkpt>
      <trkpt lat="44.85886" lon="-0.3785">
        <ele>72</ele>
        <time>2013-09-29T13:21:38Z</time>
      </trkpt>
      <trkpt lat="44.85886" lon="-0.3785">
        <ele>72</ele>
        <time>2013-09-29T13:21:45Z</time>
      </trkpt>
      <trkpt lat="44.85887" lon="-0.3785">
        <ele>72</ele>
        <time>2013-09-29T13:21:46Z</time>
      </trkpt>
      <trkpt lat="44.85886" lon="-0.37846">
        <ele>72</ele>
        <time>2013-09-29T13:21:53Z</time>
      </trkpt>
      <trkpt lat="44.85883" lon="-0.37836">
        <ele>72</ele>
        <time>2013-09-29T13:21:59Z</time>
      </trkpt>
      <trkpt lat="44.85878" lon="-0.37813">
        <ele>71</ele>
        <time>2013-09-29T13:22:05Z</time>
      </trkpt>
      <trkpt lat="44.8587" lon="-0.37774">
        <ele>69</ele>
        <time>2013-09-29T13:22:13Z</time>
      </trkpt>
      <trkpt lat="44.85861" lon="-0.37748">
        <ele>69</ele>
        <time>2013-09-29T13:22:19Z</time>
      </trkpt>
      <trkpt lat="44.85846" lon="-0.37728">
        <ele>70</ele>
        <time>2013-09-29T13:22:25Z</time>
      </trkpt>
      <trkpt lat="44.8584" lon="-0.37714">
        <ele>69</ele>
        <time>2013-09-29T13:22:29Z</time>
      </trkpt>
      <trkpt lat="44.85831" lon="-0.37678">
        <ele>67</ele>
        <time>2013-09-29T13:22:38Z</time>
      </trkpt>
      <trkpt lat="44.85824" lon="-0.37645">
        <ele>66</ele>
        <time>2013-09-29T13:22:45Z</time>
      </trkpt>
      <trkpt lat="44.85811" lon="-0.37625">
        <ele>66</ele>
        <time>2013-09-29T13:22:51Z</time>
      </trkpt>
      <trkpt lat="44.85807" lon="-0.37624">
        <ele>66</ele>
        <time>2013-09-29T13:22:53Z</time>
      </trkpt>
      <trkpt lat="44.85784" lon="-0.37632">
        <ele>68</ele>
        <time>2013-09-29T13:23:01Z</time>
      </trkpt>
      <trkpt lat="44.85764" lon="-0.37641">
        <ele>69</ele>
        <time>2013-09-29T13:23:08Z</time>
      </trkpt>
      <trkpt lat="44.85752" lon="-0.3763">
        <ele>69</ele>
        <time>2013-09-29T13:23:13Z</time>
      </trkpt>
      <trkpt lat="44.85748" lon="-0.37605">
        <ele>69</ele>
        <time>2013-09-29T13:23:19Z</time>
      </trkpt>
      <trkpt lat="44.85738" lon="-0.37566">
        <ele>68</ele>
        <time>2013-09-29T13:23:28Z</time>
      </trkpt>
      <trkpt lat="44.85729" lon="-0.37532">
        <ele>67</ele>
        <time>2013-09-29T13:23:36Z</time>
      </trkpt>
      <trkpt lat="44.8572" lon="-0.37503">
        <ele>66</ele>
        <time>2013-09-29T13:23:43Z</time>
      </trkpt>
      <trkpt lat="44.85716" lon="-0.37493">
        <ele>66</ele>
        <time>2013-09-29T13:23:47Z</time>
      </trkpt>
      <trkpt lat="44.85699" lon="-0.37499">
        <ele>66</ele>
        <time>2013-09-29T13:23:55Z</time>
      </trkpt>
      <trkpt lat="44.85694" lon="-0.37501">
        <ele>67</ele>
        <time>2013-09-29T13:24:00Z</time>
      </trkpt>
      <trkpt lat="44.8569" lon="-0.37502">
        <ele>67</ele>
        <time>2013-09-29T13:24:06Z</time>
      </trkpt>
      <trkpt lat="44.85685" lon="-0.37504">
        <ele>67</ele>
        <time>2013-09-29T13:24:12Z</time>
      </trkpt>
      <trkpt lat="44.85679" lon="-0.37507">
        <ele>67</ele>
        <time>2013-09-29T13:24:17Z</time>
      </trkpt>
      <trkpt lat="44.85664" lon="-0.37513">
        <ele>66</ele>
        <time>2013-09-29T13:24:24Z</time>
      </trkpt>
      <trkpt lat="44.85648" lon="-0.37523">
        <ele>66</ele>
        <time>2013-09-29T13:24:30Z</time>
      </trkpt>
      <trkpt lat="44.85635" lon="-0.3753">
        <ele>65</ele>
        <time>2013-09-29T13:24:37Z</time>
      </trkpt>
      <trkpt lat="44.85634" lon="-0.37532">
        <ele>65</ele>
        <time>2013-09-29T13:24:38Z</time>
      </trkpt>
      <trkpt lat="44.85636" lon="-0.37544">
        <ele>66</ele>
        <time>2013-09-29T13:24:45Z</time>
      </trkpt>
      <trkpt lat="44.85638" lon="-0.37555">
        <ele>66</ele>
        <time>2013-09-29T13:24:50Z</time>
      </trkpt>
      <trkpt lat="44.8564" lon="-0.37565">
        <ele>67</ele>
        <time>2013-09-29T13:24:54Z</time>
      </trkpt>
      <trkpt lat="44.85642" lon="-0.37574">
        <ele>68</ele>
        <time>2013-09-29T13:24:58Z</time>
      </trkpt>
      <trkpt lat="44.85645" lon="-0.37586">
        <ele>68</ele>
        <time>2013-09-29T13:25:03Z</time>
      </trkpt>
      <trkpt lat="44.85648" lon="-0.37599">
        <ele>69</ele>
        <time>2013-09-29T13:25:09Z</time>
      </trkpt>
      <trkpt lat="44.85651" lon="-0.37615">
        <ele>70</ele>
        <time>2013-09-29T13:25:17Z</time>
      </trkpt>
      <trkpt lat="44.85654" lon="-0.3763">
        <ele>70</ele>
        <time>2013-09-29T13:25:24Z</time>
      </trkpt>
      <trkpt lat="44.85654" lon="-0.37642">
        <ele>71</ele>
        <time>2013-09-29T13:25:30Z</time>
      </trkpt>
      <trkpt lat="44.85649" lon="-0.37656">
        <ele>71</ele>
        <time>2013-09-29T13:25:37Z</time>
      </trkpt>
      <trkpt lat="44.85647" lon="-0.37658">
        <ele>71</ele>
        <time>2013-09-29T13:25:39Z</time>
      </trkpt>
      <trkpt lat="44.85643" lon="-0.3766">
        <ele>71</ele>
        <time>2013-09-29T13:25:43Z</time>
      </trkpt>
      <trkpt lat="44.8564" lon="-0.3766">
        <ele>71</ele>
        <time>2013-09-29T13:25:49Z</time>
      </trkpt>
      <trkpt lat="44.8564" lon="-0.37658">
        <ele>70</ele>
        <time>2013-09-29T13:25:54Z</time>
      </trkpt>
      <trkpt lat="44.8564" lon="-0.37657">
        <ele>70</ele>
        <time>2013-09-29T13:26:02Z</time>
      </trkpt>
      <trkpt lat="44.8564" lon="-0.37657">
        <ele>70</ele>
        <time>2013-09-29T13:26:11Z</time>
      </trkpt>
      <trkpt lat="44.8564" lon="-0.37658">
        <ele>70</ele>
        <time>2013-09-29T13:26:17Z</time>
      </trkpt>
      <trkpt lat="44.85634" lon="-0.37662">
        <ele>70</ele>
        <time>2013-09-29T13:26:24Z</time>
      </trkpt>
      <trkpt lat="44.8563" lon="-0.37664">
        <ele>70</ele>
        <time>2013-09-29T13:26:31Z</time>
      </trkpt>
      <trkpt lat="44.85627" lon="-0.37664">
        <ele>70</ele>
        <time>2013-09-29T13:26:37Z</time>
      </trkpt>
      <trkpt lat="44.85626" lon="-0.37664">
        <ele>70</ele>
        <time>2013-09-29T13:26:42Z</time>
      </trkpt>
      <trkpt lat="44.85621" lon="-0.37668">
        <ele>69</ele>
        <time>2013-09-29T13:26:46Z</time>
      </trkpt>
      <trkpt lat="44.85605" lon="-0.37672">
        <ele>68</ele>
        <time>2013-09-29T13:26:55Z</time>
      </trkpt>
      <trkpt lat="44.85584" lon="-0.37681">
        <ele>66</ele>
        <time>2013-09-29T13:27:02Z</time>
      </trkpt>
      <trkpt lat="44.85579" lon="-0.37699">
        <ele>66</ele>
        <time>2013-09-29T13:27:06Z</time>
      </trkpt>
      <trkpt lat="44.85575" lon="-0.3772">
        <ele>66</ele>
        <time>2013-09-29T13:27:12Z</time>
      </trkpt>
      <trkpt lat="44.85563" lon="-0.37719">
        <ele>65</ele>
        <time>2013-09-29T13:27:20Z</time>
      </trkpt>
      <trkpt lat="44.85541" lon="-0.37716">
        <ele>63</ele>
        <time>2013-09-29T13:27:26Z</time>
      </trkpt>
      <trkpt lat="44.85533" lon="-0.37715">
        <ele>62</ele>
        <time>2013-09-29T13:27:28Z</time>
      </trkpt>
      <trkpt lat="44.85514" lon="-0.37713">
        <ele>60</ele>
        <time>2013-09-29T13:27:34Z</time>
      </trkpt>
      <trkpt lat="44.85508" lon="-0.37713">
        <ele>59</ele>
        <time>2013-09-29T13:27:36Z</time>
      </trkpt>
      <trkpt lat="44.85492" lon="-0.37705">
        <ele>57</ele>
        <time>2013-09-29T13:27:42Z</time>
      </trkpt>
      <trkpt lat="44.85489" lon="-0.37702">
        <ele>56</ele>
        <time>2013-09-29T13:27:43Z</time>
      </trkpt>
      <trkpt lat="44.85478" lon="-0.3768">
        <ele>56</ele>
        <time>2013-09-29T13:27:48Z</time>
      </trkpt>
      <trkpt lat="44.85477" lon="-0.37675">
        <ele>56</ele>
        <time>2013-09-29T13:27:49Z</time>
      </trkpt>
      <trkpt lat="44.85462" lon="-0.37647">
        <ele>55</ele>
        <time>2013-09-29T13:27:55Z</time>
      </trkpt>
      <trkpt lat="44.85458" lon="-0.37633">
        <ele>54</ele>
        <time>2013-09-29T13:27:57Z</time>
      </trkpt>
      <trkpt lat="44.85453" lon="-0.37588">
        <ele>51</ele>
        <time>2013-09-29T13:28:04Z</time>
      </trkpt>
      <trkpt lat="44.85443" lon="-0.37558">
        <ele>48</ele>
        <time>2013-09-29T13:28:10Z</time>
      </trkpt>
      <trkpt lat="44.85435" lon="-0.37537">
        <ele>47</ele>
        <time>2013-09-29T13:28:14Z</time>
      </trkpt>
      <trkpt lat="44.85421" lon="-0.37516">
        <ele>44</ele>
        <time>2013-09-29T13:28:20Z</time>
      </trkpt>
      <trkpt lat="44.85416" lon="-0.37508">
        <ele>43</ele>
        <time>2013-09-29T13:28:22Z</time>
      </trkpt>
      <trkpt lat="44.85404" lon="-0.37477">
        <ele>42</ele>
        <time>2013-09-29T13:28:28Z</time>
      </trkpt>
      <trkpt lat="44.85401" lon="-0.37454">
        <ele>42</ele>
        <time>2013-09-29T13:28:33Z</time>
      </trkpt>
      <trkpt lat="44.85397" lon="-0.37443">
        <ele>42</ele>
        <time>2013-09-29T13:28:37Z</time>
      </trkpt>
      <trkpt lat="44.85388" lon="-0.37419">
        <ele>43</ele>
        <time>2013-09-29T13:28:43Z</time>
      </trkpt>
      <trkpt lat="44.85372" lon="-0.37406">
        <ele>42</ele>
        <time>2013-09-29T13:28:49Z</time>
      </trkpt>
      <trkpt lat="44.85361" lon="-0.374">
        <ele>42</ele>
        <time>2013-09-29T13:28:52Z</time>
      </trkpt>
      <trkpt lat="44.85337" lon="-0.37399">
        <ele>41</ele>
        <time>2013-09-29T13:28:58Z</time>
      </trkpt>
      <trkpt lat="44.85296" lon="-0.37392">
        <ele>39</ele>
        <time>2013-09-29T13:29:07Z</time>
      </trkpt>
      <trkpt lat="44.8529" lon="-0.37387">
        <ele>39</ele>
        <time>2013-09-29T13:29:09Z</time>
      </trkpt>
      <trkpt lat="44.85265" lon="-0.37383">
        <ele>37</ele>
        <time>2013-09-29T13:29:16Z</time>
      </trkpt>
      <trkpt lat="44.85255" lon="-0.37382">
        <ele>36</ele>
        <time>2013-09-29T13:29:19Z</time>
      </trkpt>
      <trkpt lat="44.85241" lon="-0.37359">
        <ele>34</ele>
        <time>2013-09-29T13:29:25Z</time>
      </trkpt>
      <trkpt lat="44.85239" lon="-0.37341">
        <ele>34</ele>
        <time>2013-09-29T13:29:28Z</time>
      </trkpt>
      <trkpt lat="44.85242" lon="-0.3729">
        <ele>33</ele>
        <time>2013-09-29T13:29:37Z</time>
      </trkpt>
      <trkpt lat="44.8525" lon="-0.37265">
        <ele>33</ele>
        <time>2013-09-29T13:29:43Z</time>
      </trkpt>
      <trkpt lat="44.85258" lon="-0.37254">
        <ele>34</ele>
        <time>2013-09-29T13:29:47Z</time>
      </trkpt>
      <trkpt lat="44.8526" lon="-0.3725">
        <ele>34</ele>
        <time>2013-09-29T13:29:53Z</time>
      </trkpt>
      <trkpt lat="44.85261" lon="-0.37249">
        <ele>34</ele>
        <time>2013-09-29T13:30:02Z</time>
      </trkpt>
      <trkpt lat="44.85264" lon="-0.37248">
        <ele>35</ele>
        <time>2013-09-29T13:30:18Z</time>
      </trkpt>
      <trkpt lat="44.85264" lon="-0.37246">
        <ele>35</ele>
        <time>2013-09-29T13:30:36Z</time>
      </trkpt>
      <trkpt lat="44.85263" lon="-0.37245">
        <ele>35</ele>
        <time>2013-09-29T13:30:52Z</time>
      </trkpt>
      <trkpt lat="44.85263" lon="-0.37245">
        <ele>34</ele>
        <time>2013-09-29T13:31:04Z</time>
      </trkpt>
      <trkpt lat="44.85262" lon="-0.37245">
        <ele>34</ele>
        <time>2013-09-29T13:31:15Z</time>
      </trkpt>
      <trkpt lat="44.85262" lon="-0.37245">
        <ele>34</ele>
        <time>2013-09-29T13:31:27Z</time>
      </trkpt>
      <trkpt lat="44.85263" lon="-0.37246">
        <ele>34</ele>
        <time>2013-09-29T13:31:38Z</time>
      </trkpt>
      <trkpt lat="44.85262" lon="-0.37245">
        <ele>34</ele>
        <time>2013-09-29T13:31:44Z</time>
      </trkpt>
      <trkpt lat="44.85266" lon="-0.37226">
        <ele>35</ele>
        <time>2013-09-29T13:31:52Z</time>
      </trkpt>
      <trkpt lat="44.85266" lon="-0.37211">
        <ele>36</ele>
        <time>2013-09-29T13:31:58Z</time>
      </trkpt>
      <trkpt lat="44.85262" lon="-0.37195">
        <ele>36</ele>
        <time>2013-09-29T13:32:03Z</time>
      </trkpt>
      <trkpt lat="44.85261" lon="-0.37178">
        <ele>36</ele>
        <time>2013-09-29T13:32:08Z</time>
      </trkpt>
      <trkpt lat="44.85263" lon="-0.37161">
        <ele>37</ele>
        <time>2013-09-29T13:32:13Z</time>
      </trkpt>
      <trkpt lat="44.85262" lon="-0.37137">
        <ele>38</ele>
        <time>2013-09-29T13:32:19Z</time>
      </trkpt>
      <trkpt lat="44.85258" lon="-0.37122">
        <ele>38</ele>
        <time>2013-09-29T13:32:23Z</time>
      </trkpt>
      <trkpt lat="44.85258" lon="-0.37108">
        <ele>39</ele>
        <time>2013-09-29T13:32:26Z</time>
      </trkpt>
      <trkpt lat="44.85257" lon="-0.3709">
        <ele>39</ele>
        <time>2013-09-29T13:32:31Z</time>
      </trkpt>
      <trkpt lat="44.8525" lon="-0.37076">
        <ele>38</ele>
        <time>2013-09-29T13:32:37Z</time>
      </trkpt>
      <trkpt lat="44.85245" lon="-0.37076">
        <ele>38</ele>
        <time>2013-09-29T13:33:10Z</time>
      </trkpt>
      <trkpt lat="44.85238" lon="-0.37077">
        <ele>37</ele>
        <time>2013-09-29T13:33:13Z</time>
      </trkpt>
      <trkpt lat="44.8521" lon="-0.37067">
        <ele>34</ele>
        <time>2013-09-29T13:33:22Z</time>
      </trkpt>
      <trkpt lat="44.85195" lon="-0.37056">
        <ele>33</ele>
        <time>2013-09-29T13:33:27Z</time>
      </trkpt>
      <trkpt lat="44.85191" lon="-0.37055">
        <ele>33</ele>
        <time>2013-09-29T13:33:28Z</time>
      </trkpt>
      <trkpt lat="44.85186" lon="-0.37053">
        <ele>33</ele>
        <time>2013-09-29T13:33:29Z</time>
      </trkpt>
      <trkpt lat="44.85174" lon="-0.37046">
        <ele>33</ele>
        <time>2013-09-29T13:33:32Z</time>
      </trkpt>
      <trkpt lat="44.85169" lon="-0.37044">
        <ele>32</ele>
        <time>2013-09-29T13:33:33Z</time>
      </trkpt>
      <trkpt lat="44.85161" lon="-0.37043">
        <ele>32</ele>
        <time>2013-09-29T13:33:35Z</time>
      </trkpt>
      <trkpt lat="44.85135" lon="-0.37034">
        <ele>31</ele>
        <time>2013-09-29T13:33:41Z</time>
      </trkpt>
      <trkpt lat="44.8512" lon="-0.37027">
        <ele>32</ele>
        <time>2013-09-29T13:33:47Z</time>
      </trkpt>
      <trkpt lat="44.851" lon="-0.37013">
        <ele>32</ele>
        <time>2013-09-29T13:33:54Z</time>
      </trkpt>
      <trkpt lat="44.85084" lon="-0.36997">
        <ele>32</ele>
        <time>2013-09-29T13:33:59Z</time>
      </trkpt>
      <trkpt lat="44.85068" lon="-0.36982">
        <ele>31</ele>
        <time>2013-09-29T13:34:04Z</time>
      </trkpt>
      <trkpt lat="44.85057" lon="-0.36968">
        <ele>31</ele>
        <time>2013-09-29T13:34:07Z</time>
      </trkpt>
      <trkpt lat="44.85053" lon="-0.36964">
        <ele>31</ele>
        <time>2013-09-29T13:34:08Z</time>
      </trkpt>
      <trkpt lat="44.8505" lon="-0.3696">
        <ele>31</ele>
        <time>2013-09-29T13:34:09Z</time>
      </trkpt>
      <trkpt lat="44.85047" lon="-0.36956">
        <ele>31</ele>
        <time>2013-09-29T13:34:10Z</time>
      </trkpt>
      <trkpt lat="44.85043" lon="-0.36951">
        <ele>31</ele>
        <time>2013-09-29T13:34:11Z</time>
      </trkpt>
      <trkpt lat="44.8504" lon="-0.36946">
        <ele>31</ele>
        <time>2013-09-29T13:34:12Z</time>
      </trkpt>
      <trkpt lat="44.85038" lon="-0.3694">
        <ele>31</ele>
        <time>2013-09-29T13:34:13Z</time>
      </trkpt>
      <trkpt lat="44.85031" lon="-0.36921">
        <ele>32</ele>
        <time>2013-09-29T13:34:16Z</time>
      </trkpt>
      <trkpt lat="44.85028" lon="-0.36915">
        <ele>32</ele>
        <time>2013-09-29T13:34:17Z</time>
      </trkpt>
      <trkpt lat="44.85026" lon="-0.36908">
        <ele>32</ele>
        <time>2013-09-29T13:34:18Z</time>
      </trkpt>
      <trkpt lat="44.85024" lon="-0.36902">
        <ele>31</ele>
        <time>2013-09-29T13:34:19Z</time>
      </trkpt>
      <trkpt lat="44.85021" lon="-0.36897">
        <ele>31</ele>
        <time>2013-09-29T13:34:20Z</time>
      </trkpt>
      <trkpt lat="44.85018" lon="-0.36892">
        <ele>31</ele>
        <time>2013-09-29T13:34:21Z</time>
      </trkpt>
      <trkpt lat="44.85013" lon="-0.36879">
        <ele>31</ele>
        <time>2013-09-29T13:34:23Z</time>
      </trkpt>
      <trkpt lat="44.85011" lon="-0.36873">
        <ele>31</ele>
        <time>2013-09-29T13:34:24Z</time>
      </trkpt>
      <trkpt lat="44.8501" lon="-0.36867">
        <ele>31</ele>
        <time>2013-09-29T13:34:25Z</time>
      </trkpt>
      <trkpt lat="44.85007" lon="-0.36861">
        <ele>32</ele>
        <time>2013-09-29T13:34:26Z</time>
      </trkpt>
      <trkpt lat="44.85005" lon="-0.36855">
        <ele>32</ele>
        <time>2013-09-29T13:34:27Z</time>
      </trkpt>
      <trkpt lat="44.85002" lon="-0.3685">
        <ele>31</ele>
        <time>2013-09-29T13:34:28Z</time>
      </trkpt>
      <trkpt lat="44.84996" lon="-0.36841">
        <ele>31</ele>
        <time>2013-09-29T13:34:30Z</time>
      </trkpt>
      <trkpt lat="44.84993" lon="-0.36838">
        <ele>30</ele>
        <time>2013-09-29T13:34:31Z</time>
      </trkpt>
      <trkpt lat="44.8499" lon="-0.36834">
        <ele>30</ele>
        <time>2013-09-29T13:34:32Z</time>
      </trkpt>
      <trkpt lat="44.84974" lon="-0.36807">
        <ele>29</ele>
        <time>2013-09-29T13:34:38Z</time>
      </trkpt>
      <trkpt lat="44.84966" lon="-0.36791">
        <ele>28</ele>
        <time>2013-09-29T13:34:44Z</time>
      </trkpt>
      <trkpt lat="44.8496" lon="-0.36781">
        <ele>29</ele>
        <time>2013-09-29T13:34:51Z</time>
      </trkpt>
      <trkpt lat="44.84952" lon="-0.36772">
        <ele>28</ele>
        <time>2013-09-29T13:34:58Z</time>
      </trkpt>
      <trkpt lat="44.84948" lon="-0.36764">
        <ele>28</ele>
        <time>2013-09-29T13:35:04Z</time>
      </trkpt>
      <trkpt lat="44.84947" lon="-0.36762">
        <ele>28</ele>
        <time>2013-09-29T13:35:05Z</time>
      </trkpt>
      <trkpt lat="44.84945" lon="-0.36759">
        <ele>28</ele>
        <time>2013-09-29T13:35:06Z</time>
      </trkpt>
      <trkpt lat="44.84934" lon="-0.36735">
        <ele>28</ele>
        <time>2013-09-29T13:35:13Z</time>
      </trkpt>
      <trkpt lat="44.84926" lon="-0.36714">
        <ele>27</ele>
        <time>2013-09-29T13:35:18Z</time>
      </trkpt>
      <trkpt lat="44.84918" lon="-0.36684">
        <ele>28</ele>
        <time>2013-09-29T13:35:24Z</time>
      </trkpt>
      <trkpt lat="44.84912" lon="-0.36666">
        <ele>28</ele>
        <time>2013-09-29T13:35:29Z</time>
      </trkpt>
      <trkpt lat="44.84912" lon="-0.36661">
        <ele>28</ele>
        <time>2013-09-29T13:35:30Z</time>
      </trkpt>
      <trkpt lat="44.84912" lon="-0.36657">
        <ele>28</ele>
        <time>2013-09-29T13:35:31Z</time>
      </trkpt>
      <trkpt lat="44.84914" lon="-0.36638">
        <ele>28</ele>
        <time>2013-09-29T13:35:35Z</time>
      </trkpt>
      <trkpt lat="44.84921" lon="-0.36619">
        <ele>27</ele>
        <time>2013-09-29T13:35:41Z</time>
      </trkpt>
      <trkpt lat="44.84921" lon="-0.36615">
        <ele>27</ele>
        <time>2013-09-29T13:35:42Z</time>
      </trkpt>
      <trkpt lat="44.84922" lon="-0.36612">
        <ele>27</ele>
        <time>2013-09-29T13:35:43Z</time>
      </trkpt>
      <trkpt lat="44.84922" lon="-0.36608">
        <ele>27</ele>
        <time>2013-09-29T13:35:44Z</time>
      </trkpt>
      <trkpt lat="44.84923" lon="-0.36595">
        <ele>27</ele>
        <time>2013-09-29T13:35:50Z</time>
      </trkpt>
      <trkpt lat="44.84923" lon="-0.36593">
        <ele>27</ele>
        <time>2013-09-29T13:35:51Z</time>
      </trkpt>
      <trkpt lat="44.84923" lon="-0.3659">
        <ele>26</ele>
        <time>2013-09-29T13:35:52Z</time>
      </trkpt>
      <trkpt lat="44.84923" lon="-0.36583">
        <ele>26</ele>
        <time>2013-09-29T13:35:54Z</time>
      </trkpt>
      <trkpt lat="44.84927" lon="-0.36566">
        <ele>26</ele>
        <time>2013-09-29T13:36:00Z</time>
      </trkpt>
      <trkpt lat="44.84931" lon="-0.36562">
        <ele>26</ele>
        <time>2013-09-29T13:36:01Z</time>
      </trkpt>
      <trkpt lat="44.84934" lon="-0.36559">
        <ele>26</ele>
        <time>2013-09-29T13:36:02Z</time>
      </trkpt>
      <trkpt lat="44.84936" lon="-0.36555">
        <ele>27</ele>
        <time>2013-09-29T13:36:03Z</time>
      </trkpt>
      <trkpt lat="44.84937" lon="-0.36552">
        <ele>27</ele>
        <time>2013-09-29T13:36:04Z</time>
      </trkpt>
      <trkpt lat="44.84938" lon="-0.36549">
        <ele>27</ele>
        <time>2013-09-29T13:36:05Z</time>
      </trkpt>
      <trkpt lat="44.84936" lon="-0.36527">
        <ele>26</ele>
        <time>2013-09-29T13:36:12Z</time>
      </trkpt>
      <trkpt lat="44.84938" lon="-0.36505">
        <ele>26</ele>
        <time>2013-09-29T13:36:16Z</time>
      </trkpt>
      <trkpt lat="44.84937" lon="-0.365">
        <ele>25</ele>
        <time>2013-09-29T13:36:17Z</time>
      </trkpt>
      <trkpt lat="44.84937" lon="-0.36496">
        <ele>25</ele>
        <time>2013-09-29T13:36:18Z</time>
      </trkpt>
      <trkpt lat="44.84937" lon="-0.36491">
        <ele>25</ele>
        <time>2013-09-29T13:36:19Z</time>
      </trkpt>
      <trkpt lat="44.84938" lon="-0.36488">
        <ele>25</ele>
        <time>2013-09-29T13:36:20Z</time>
      </trkpt>
      <trkpt lat="44.84939" lon="-0.36485">
        <ele>25</ele>
        <time>2013-09-29T13:36:21Z</time>
      </trkpt>
      <trkpt lat="44.84945" lon="-0.36476">
        <ele>26</ele>
        <time>2013-09-29T13:36:25Z</time>
      </trkpt>
      <trkpt lat="44.84946" lon="-0.36473">
        <ele>26</ele>
        <time>2013-09-29T13:36:26Z</time>
      </trkpt>
      <trkpt lat="44.84946" lon="-0.36469">
        <ele>26</ele>
        <time>2013-09-29T13:36:27Z</time>
      </trkpt>
      <trkpt lat="44.84948" lon="-0.3645">
        <ele>25</ele>
        <time>2013-09-29T13:36:34Z</time>
      </trkpt>
      <trkpt lat="44.84951" lon="-0.36437">
        <ele>25</ele>
        <time>2013-09-29T13:36:40Z</time>
      </trkpt>
      <trkpt lat="44.8495" lon="-0.36436">
        <ele>25</ele>
        <time>2013-09-29T13:36:41Z</time>
      </trkpt>
      <trkpt lat="44.84949" lon="-0.36431">
        <ele>25</ele>
        <time>2013-09-29T13:36:45Z</time>
      </trkpt>
      <trkpt lat="44.84948" lon="-0.3643">
        <ele>25</ele>
        <time>2013-09-29T13:36:46Z</time>
      </trkpt>
      <trkpt lat="44.84945" lon="-0.36427">
        <ele>25</ele>
        <time>2013-09-29T13:36:52Z</time>
      </trkpt>
      <trkpt lat="44.84948" lon="-0.36425">
        <ele>25</ele>
        <time>2013-09-29T13:37:03Z</time>
      </trkpt>
      <trkpt lat="44.84946" lon="-0.36424">
        <ele>25</ele>
        <time>2013-09-29T13:37:11Z</time>
      </trkpt>
      <trkpt lat="44.84944" lon="-0.3642">
        <ele>24</ele>
        <time>2013-09-29T13:37:20Z</time>
      </trkpt>
      <trkpt lat="44.84943" lon="-0.36418">
        <ele>24</ele>
        <time>2013-09-29T13:37:21Z</time>
      </trkpt>
      <trkpt lat="44.84942" lon="-0.36414">
        <ele>24</ele>
        <time>2013-09-29T13:37:26Z</time>
      </trkpt>
      <trkpt lat="44.84942" lon="-0.36413">
        <ele>24</ele>
        <time>2013-09-29T13:37:29Z</time>
      </trkpt>
      <trkpt lat="44.84938" lon="-0.36409">
        <ele>24</ele>
        <time>2013-09-29T13:37:32Z</time>
      </trkpt>
      <trkpt lat="44.84937" lon="-0.36407">
        <ele>24</ele>
        <time>2013-09-29T13:37:33Z</time>
      </trkpt>
      <trkpt lat="44.84936" lon="-0.36402">
        <ele>24</ele>
        <time>2013-09-29T13:37:36Z</time>
      </trkpt>
      <trkpt lat="44.84936" lon="-0.36398">
        <ele>24</ele>
        <time>2013-09-29T13:37:37Z</time>
      </trkpt>
      <trkpt lat="44.84936" lon="-0.36395">
        <ele>24</ele>
        <time>2013-09-29T13:37:38Z</time>
      </trkpt>
      <trkpt lat="44.84937" lon="-0.36384">
        <ele>24</ele>
        <time>2013-09-29T13:37:43Z</time>
      </trkpt>
      <trkpt lat="44.84937" lon="-0.36382">
        <ele>24</ele>
        <time>2013-09-29T13:37:44Z</time>
      </trkpt>
      <trkpt lat="44.84937" lon="-0.36379">
        <ele>24</ele>
        <time>2013-09-29T13:37:45Z</time>
      </trkpt>
      <trkpt lat="44.84937" lon="-0.36377">
        <ele>24</ele>
        <time>2013-09-29T13:37:46Z</time>
      </trkpt>
      <trkpt lat="44.84937" lon="-0.36373">
        <ele>24</ele>
        <time>2013-09-29T13:37:47Z</time>
      </trkpt>
      <trkpt lat="44.84936" lon="-0.36363">
        <ele>24</ele>
        <time>2013-09-29T13:37:54Z</time>
      </trkpt>
      <trkpt lat="44.84933" lon="-0.36359">
        <ele>24</ele>
        <time>2013-09-29T13:38:00Z</time>
      </trkpt>
      <trkpt lat="44.84932" lon="-0.36355">
        <ele>24</ele>
        <time>2013-09-29T13:38:07Z</time>
      </trkpt>
      <trkpt lat="44.84932" lon="-0.36353">
        <ele>24</ele>
        <time>2013-09-29T13:38:14Z</time>
      </trkpt>
      <trkpt lat="44.84928" lon="-0.36353">
        <ele>24</ele>
        <time>2013-09-29T13:38:23Z</time>
      </trkpt>
      <trkpt lat="44.84927" lon="-0.36353">
        <ele>24</ele>
        <time>2013-09-29T13:38:30Z</time>
      </trkpt>
      <trkpt lat="44.84925" lon="-0.36354">
        <ele>24</ele>
        <time>2013-09-29T13:38:39Z</time>
      </trkpt>
      <trkpt lat="44.84924" lon="-0.36355">
        <ele>24</ele>
        <time>2013-09-29T13:38:50Z</time>
      </trkpt>
      <trkpt lat="44.84924" lon="-0.36356">
        <ele>24</ele>
        <time>2013-09-29T13:39:01Z</time>
      </trkpt>
      <trkpt lat="44.84924" lon="-0.36356">
        <ele>24</ele>
        <time>2013-09-29T13:39:10Z</time>
      </trkpt>
      <trkpt lat="44.84923" lon="-0.36355">
        <ele>24</ele>
        <time>2013-09-29T13:39:22Z</time>
      </trkpt>
      <trkpt lat="44.84923" lon="-0.36355">
        <ele>24</ele>
        <time>2013-09-29T13:39:36Z</time>
      </trkpt>
      <trkpt lat="44.84922" lon="-0.36355">
        <ele>24</ele>
        <time>2013-09-29T13:39:53Z</time>
      </trkpt>
      <trkpt lat="44.84922" lon="-0.36355">
        <ele>24</ele>
        <time>2013-09-29T13:40:06Z</time>
      </trkpt>
      <trkpt lat="44.84922" lon="-0.36356">
        <ele>24</ele>
        <time>2013-09-29T13:40:17Z</time>
      </trkpt>
      <trkpt lat="44.84922" lon="-0.36356">
        <ele>24</ele>
        <time>2013-09-29T13:40:28Z</time>
      </trkpt>
      <trkpt lat="44.84921" lon="-0.3636">
        <ele>24</ele>
        <time>2013-09-29T13:40:33Z</time>
      </trkpt>
      <trkpt lat="44.84921" lon="-0.36362">
        <ele>24</ele>
        <time>2013-09-29T13:40:34Z</time>
      </trkpt>
      <trkpt lat="44.84921" lon="-0.36367">
        <ele>24</ele>
        <time>2013-09-29T13:40:37Z</time>
      </trkpt>
      <trkpt lat="44.8492" lon="-0.36369">
        <ele>24</ele>
        <time>2013-09-29T13:40:38Z</time>
      </trkpt>
      <trkpt lat="44.84919" lon="-0.36372">
        <ele>25</ele>
        <time>2013-09-29T13:40:39Z</time>
      </trkpt>
      <trkpt lat="44.84918" lon="-0.36375">
        <ele>25</ele>
        <time>2013-09-29T13:40:40Z</time>
      </trkpt>
      <trkpt lat="44.84917" lon="-0.36377">
        <ele>25</ele>
        <time>2013-09-29T13:40:41Z</time>
      </trkpt>
      <trkpt lat="44.84911" lon="-0.3638">
        <ele>25</ele>
        <time>2013-09-29T13:40:47Z</time>
      </trkpt>
      <trkpt lat="44.84905" lon="-0.36385">
        <ele>25</ele>
        <time>2013-09-29T13:40:53Z</time>
      </trkpt>
      <trkpt lat="44.84903" lon="-0.36386">
        <ele>25</ele>
        <time>2013-09-29T13:41:00Z</time>
      </trkpt>
      <trkpt lat="44.84903" lon="-0.36385">
        <ele>25</ele>
        <time>2013-09-29T13:41:01Z</time>
      </trkpt>
      <trkpt lat="44.849" lon="-0.36383">
        <ele>25</ele>
        <time>2013-09-29T13:41:03Z</time>
      </trkpt>
      <trkpt lat="44.8489" lon="-0.36374">
        <ele>26</ele>
        <time>2013-09-29T13:41:09Z</time>
      </trkpt>
      <trkpt lat="44.84878" lon="-0.36363">
        <ele>26</ele>
        <time>2013-09-29T13:41:15Z</time>
      </trkpt>
      <trkpt lat="44.84867" lon="-0.36358">
        <ele>26</ele>
        <time>2013-09-29T13:41:20Z</time>
      </trkpt>
      <trkpt lat="44.84851" lon="-0.36349">
        <ele>27</ele>
        <time>2013-09-29T13:41:28Z</time>
      </trkpt>
      <trkpt lat="44.84847" lon="-0.36347">
        <ele>27</ele>
        <time>2013-09-29T13:41:30Z</time>
      </trkpt>
      <trkpt lat="44.84837" lon="-0.36344">
        <ele>27</ele>
        <time>2013-09-29T13:41:33Z</time>
      </trkpt>
      <trkpt lat="44.84832" lon="-0.36341">
        <ele>27</ele>
        <time>2013-09-29T13:41:34Z</time>
      </trkpt>
      <trkpt lat="44.84826" lon="-0.36339">
        <ele>26</ele>
        <time>2013-09-29T13:41:35Z</time>
      </trkpt>
      <trkpt lat="44.84821" lon="-0.3634">
        <ele>26</ele>
        <time>2013-09-29T13:41:36Z</time>
      </trkpt>
      <trkpt lat="44.84815" lon="-0.36341">
        <ele>26</ele>
        <time>2013-09-29T13:41:37Z</time>
      </trkpt>
      <trkpt lat="44.84809" lon="-0.36344">
        <ele>26</ele>
        <time>2013-09-29T13:41:38Z</time>
      </trkpt>
      <trkpt lat="44.84804" lon="-0.36347">
        <ele>27</ele>
        <time>2013-09-29T13:41:39Z</time>
      </trkpt>
      <trkpt lat="44.8479" lon="-0.36357">
        <ele>27</ele>
        <time>2013-09-29T13:41:42Z</time>
      </trkpt>
      <trkpt lat="44.84786" lon="-0.36361">
        <ele>27</ele>
        <time>2013-09-29T13:41:43Z</time>
      </trkpt>
      <trkpt lat="44.84782" lon="-0.36365">
        <ele>27</ele>
        <time>2013-09-29T13:41:44Z</time>
      </trkpt>
      <trkpt lat="44.84778" lon="-0.36367">
        <ele>27</ele>
        <time>2013-09-29T13:41:45Z</time>
      </trkpt>
      <trkpt lat="44.84774" lon="-0.36369">
        <ele>27</ele>
        <time>2013-09-29T13:41:46Z</time>
      </trkpt>
      <trkpt lat="44.84739" lon="-0.36391">
        <ele>28</ele>
        <time>2013-09-29T13:41:56Z</time>
      </trkpt>
      <trkpt lat="44.84707" lon="-0.36414">
        <ele>29</ele>
        <time>2013-09-29T13:42:05Z</time>
      </trkpt>
      <trkpt lat="44.84699" lon="-0.36422">
        <ele>29</ele>
        <time>2013-09-29T13:42:08Z</time>
      </trkpt>
      <trkpt lat="44.84696" lon="-0.36425">
        <ele>30</ele>
        <time>2013-09-29T13:42:09Z</time>
      </trkpt>
      <trkpt lat="44.84694" lon="-0.36428">
        <ele>30</ele>
        <time>2013-09-29T13:42:10Z</time>
      </trkpt>
      <trkpt lat="44.84691" lon="-0.3643">
        <ele>30</ele>
        <time>2013-09-29T13:42:11Z</time>
      </trkpt>
      <trkpt lat="44.84688" lon="-0.36431">
        <ele>30</ele>
        <time>2013-09-29T13:42:12Z</time>
      </trkpt>
      <trkpt lat="44.84684" lon="-0.36434">
        <ele>30</ele>
        <time>2013-09-29T13:42:13Z</time>
      </trkpt>
      <trkpt lat="44.8467" lon="-0.36442">
        <ele>31</ele>
        <time>2013-09-29T13:42:18Z</time>
      </trkpt>
      <trkpt lat="44.84668" lon="-0.36442">
        <ele>31</ele>
        <time>2013-09-29T13:42:19Z</time>
      </trkpt>
      <trkpt lat="44.84665" lon="-0.36441">
        <ele>31</ele>
        <time>2013-09-29T13:42:20Z</time>
      </trkpt>
      <trkpt lat="44.84654" lon="-0.36431">
        <ele>30</ele>
        <time>2013-09-29T13:42:25Z</time>
      </trkpt>
      <trkpt lat="44.84642" lon="-0.36418">
        <ele>29</ele>
        <time>2013-09-29T13:42:30Z</time>
      </trkpt>
      <trkpt lat="44.84626" lon="-0.36401">
        <ele>28</ele>
        <time>2013-09-29T13:42:36Z</time>
      </trkpt>
      <trkpt lat="44.8462" lon="-0.36394">
        <ele>27</ele>
        <time>2013-09-29T13:42:38Z</time>
      </trkpt>
      <trkpt lat="44.84616" lon="-0.3639">
        <ele>27</ele>
        <time>2013-09-29T13:42:39Z</time>
      </trkpt>
      <trkpt lat="44.84612" lon="-0.36387">
        <ele>27</ele>
        <time>2013-09-29T13:42:40Z</time>
      </trkpt>
      <trkpt lat="44.84607" lon="-0.36384">
        <ele>26</ele>
        <time>2013-09-29T13:42:41Z</time>
      </trkpt>
      <trkpt lat="44.84602" lon="-0.36382">
        <ele>26</ele>
        <time>2013-09-29T13:42:42Z</time>
      </trkpt>
      <trkpt lat="44.84597" lon="-0.36379">
        <ele>26</ele>
        <time>2013-09-29T13:42:43Z</time>
      </trkpt>
      <trkpt lat="44.84569" lon="-0.36367">
        <ele>26</ele>
        <time>2013-09-29T13:42:49Z</time>
      </trkpt>
      <trkpt lat="44.84565" lon="-0.36366">
        <ele>25</ele>
        <time>2013-09-29T13:42:50Z</time>
      </trkpt>
      <trkpt lat="44.84535" lon="-0.36361">
        <ele>26</ele>
        <time>2013-09-29T13:42:57Z</time>
      </trkpt>
      <trkpt lat="44.84518" lon="-0.36356">
        <ele>25</ele>
        <time>2013-09-29T13:43:03Z</time>
      </trkpt>
      <trkpt lat="44.84514" lon="-0.36349">
        <ele>25</ele>
        <time>2013-09-29T13:43:05Z</time>
      </trkpt>
      <trkpt lat="44.84513" lon="-0.36345">
        <ele>25</ele>
        <time>2013-09-29T13:43:06Z</time>
      </trkpt>
      <trkpt lat="44.84513" lon="-0.36319">
        <ele>24</ele>
        <time>2013-09-29T13:43:12Z</time>
      </trkpt>
      <trkpt lat="44.8451" lon="-0.36294">
        <ele>23</ele>
        <time>2013-09-29T13:43:17Z</time>
      </trkpt>
      <trkpt lat="44.84508" lon="-0.36246">
        <ele>22</ele>
        <time>2013-09-29T13:43:25Z</time>
      </trkpt>
      <trkpt lat="44.84507" lon="-0.36208">
        <ele>21</ele>
        <time>2013-09-29T13:43:32Z</time>
      </trkpt>
      <trkpt lat="44.84505" lon="-0.36169">
        <ele>22</ele>
        <time>2013-09-29T13:43:39Z</time>
      </trkpt>
      <trkpt lat="44.84504" lon="-0.36151">
        <ele>22</ele>
        <time>2013-09-29T13:43:42Z</time>
      </trkpt>
      <trkpt lat="44.84504" lon="-0.36145">
        <ele>22</ele>
        <time>2013-09-29T13:43:43Z</time>
      </trkpt>
      <trkpt lat="44.84501" lon="-0.36102">
        <ele>24</ele>
        <time>2013-09-29T13:43:51Z</time>
      </trkpt>
      <trkpt lat="44.84499" lon="-0.36073">
        <ele>25</ele>
        <time>2013-09-29T13:43:57Z</time>
      </trkpt>
      <trkpt lat="44.845" lon="-0.36041">
        <ele>28</ele>
        <time>2013-09-29T13:44:04Z</time>
      </trkpt>
      <trkpt lat="44.84502" lon="-0.36012">
        <ele>31</ele>
        <time>2013-09-29T13:44:11Z</time>
      </trkpt>
      <trkpt lat="44.8451" lon="-0.35984">
        <ele>34</ele>
        <time>2013-09-29T13:44:18Z</time>
      </trkpt>
      <trkpt lat="44.84521" lon="-0.35953">
        <ele>36</ele>
        <time>2013-09-29T13:44:26Z</time>
      </trkpt>
      <trkpt lat="44.84534" lon="-0.35924">
        <ele>36</ele>
        <time>2013-09-29T13:44:34Z</time>
      </trkpt>
      <trkpt lat="44.84546" lon="-0.35895">
        <ele>36</ele>
        <time>2013-09-29T13:44:42Z</time>
      </trkpt>
      <trkpt lat="44.84551" lon="-0.35882">
        <ele>37</ele>
        <time>2013-09-29T13:44:46Z</time>
      </trkpt>
      <trkpt lat="44.8455" lon="-0.35878">
        <ele>37</ele>
        <time>2013-09-29T13:44:47Z</time>
      </trkpt>
      <trkpt lat="44.84548" lon="-0.35876">
        <ele>37</ele>
        <time>2013-09-29T13:44:48Z</time>
      </trkpt>
      <trkpt lat="44.84547" lon="-0.35874">
        <ele>37</ele>
        <time>2013-09-29T13:44:49Z</time>
      </trkpt>
      <trkpt lat="44.84544" lon="-0.35874">
        <ele>36</ele>
        <time>2013-09-29T13:44:50Z</time>
      </trkpt>
      <trkpt lat="44.84525" lon="-0.35867">
        <ele>38</ele>
        <time>2013-09-29T13:44:59Z</time>
      </trkpt>
      <trkpt lat="44.84515" lon="-0.35864">
        <ele>39</ele>
        <time>2013-09-29T13:45:05Z</time>
      </trkpt>
      <trkpt lat="44.84504" lon="-0.35862">
        <ele>40</ele>
        <time>2013-09-29T13:45:12Z</time>
      </trkpt>
      <trkpt lat="44.84495" lon="-0.35859">
        <ele>41</ele>
        <time>2013-09-29T13:45:19Z</time>
      </trkpt>
      <trkpt lat="44.84493" lon="-0.35858">
        <ele>41</ele>
        <time>2013-09-29T13:45:21Z</time>
      </trkpt>
      <trkpt lat="44.84492" lon="-0.35857">
        <ele>41</ele>
        <time>2013-09-29T13:45:22Z</time>
      </trkpt>
      <trkpt lat="44.84486" lon="-0.35854">
        <ele>41</ele>
        <time>2013-09-29T13:45:27Z</time>
      </trkpt>
      <trkpt lat="44.84481" lon="-0.35851">
        <ele>41</ele>
        <time>2013-09-29T13:45:33Z</time>
      </trkpt>
      <trkpt lat="44.84474" lon="-0.35851">
        <ele>42</ele>
        <time>2013-09-29T13:45:40Z</time>
      </trkpt>
      <trkpt lat="44.84472" lon="-0.3585">
        <ele>42</ele>
        <time>2013-09-29T13:45:42Z</time>
      </trkpt>
      <trkpt lat="44.84458" lon="-0.35854">
        <ele>42</ele>
        <time>2013-09-29T13:49:23Z</time>
      </trkpt>
      <trkpt lat="44.8444" lon="-0.35866">
        <ele>41</ele>
        <time>2013-09-29T13:49:31Z</time>
      </trkpt>
      <trkpt lat="44.8442" lon="-0.35869">
        <ele>39</ele>
        <time>2013-09-29T13:49:38Z</time>
      </trkpt>
      <trkpt lat="44.84409" lon="-0.35869">
        <ele>38</ele>
        <time>2013-09-29T13:49:43Z</time>
      </trkpt>
      <trkpt lat="44.84408" lon="-0.35867">
        <ele>38</ele>
        <time>2013-09-29T13:49:49Z</time>
      </trkpt>
      <trkpt lat="44.84407" lon="-0.35863">
        <ele>38</ele>
        <time>2013-09-29T13:50:08Z</time>
      </trkpt>
      <trkpt lat="44.84408" lon="-0.35861">
        <ele>39</ele>
        <time>2013-09-29T13:50:29Z</time>
      </trkpt>
      <trkpt lat="44.84409" lon="-0.35861">
        <ele>39</ele>
        <time>2013-09-29T13:50:46Z</time>
      </trkpt>
      <trkpt lat="44.8441" lon="-0.35862">
        <ele>39</ele>
        <time>2013-09-29T13:51:07Z</time>
      </trkpt>
      <trkpt lat="44.84409" lon="-0.35863">
        <ele>39</ele>
        <time>2013-09-29T13:51:17Z</time>
      </trkpt>
      <trkpt lat="44.84408" lon="-0.35864">
        <ele>39</ele>
        <time>2013-09-29T13:51:26Z</time>
      </trkpt>
      <trkpt lat="44.84408" lon="-0.35865">
        <ele>38</ele>
        <time>2013-09-29T13:51:41Z</time>
      </trkpt>
      <trkpt lat="44.84408" lon="-0.35865">
        <ele>38</ele>
        <time>2013-09-29T13:51:52Z</time>
      </trkpt>
      <trkpt lat="44.84407" lon="-0.35866">
        <ele>38</ele>
        <time>2013-09-29T13:52:04Z</time>
      </trkpt>
      <trkpt lat="44.84405" lon="-0.35867">
        <ele>38</ele>
        <time>2013-09-29T13:52:07Z</time>
      </trkpt>
      <trkpt lat="44.84404" lon="-0.35868">
        <ele>38</ele>
        <time>2013-09-29T13:52:08Z</time>
      </trkpt>
      <trkpt lat="44.84401" lon="-0.35869">
        <ele>37</ele>
        <time>2013-09-29T13:52:10Z</time>
      </trkpt>
      <trkpt lat="44.84381" lon="-0.35864">
        <ele>34</ele>
        <time>2013-09-29T13:52:17Z</time>
      </trkpt>
      <trkpt lat="44.84373" lon="-0.3586">
        <ele>33</ele>
        <time>2013-09-29T13:52:19Z</time>
      </trkpt>
      <trkpt lat="44.84351" lon="-0.35853">
        <ele>30</ele>
        <time>2013-09-29T13:52:25Z</time>
      </trkpt>
      <trkpt lat="44.84346" lon="-0.35852">
        <ele>30</ele>
        <time>2013-09-29T13:52:27Z</time>
      </trkpt>
      <trkpt lat="44.84338" lon="-0.35851">
        <ele>29</ele>
        <time>2013-09-29T13:52:31Z</time>
      </trkpt>
      <trkpt lat="44.84331" lon="-0.35852">
        <ele>28</ele>
        <time>2013-09-29T13:52:34Z</time>
      </trkpt>
      <trkpt lat="44.84323" lon="-0.35854">
        <ele>28</ele>
        <time>2013-09-29T13:52:39Z</time>
      </trkpt>
      <trkpt lat="44.84309" lon="-0.35856">
        <ele>28</ele>
        <time>2013-09-29T13:52:46Z</time>
      </trkpt>
      <trkpt lat="44.84302" lon="-0.35858">
        <ele>28</ele>
        <time>2013-09-29T13:52:49Z</time>
      </trkpt>
      <trkpt lat="44.84296" lon="-0.35864">
        <ele>29</ele>
        <time>2013-09-29T13:52:56Z</time>
      </trkpt>
      <trkpt lat="44.84291" lon="-0.35868">
        <ele>29</ele>
        <time>2013-09-29T13:53:01Z</time>
      </trkpt>
      <trkpt lat="44.84282" lon="-0.35874">
        <ele>29</ele>
        <time>2013-09-29T13:53:06Z</time>
      </trkpt>
      <trkpt lat="44.84274" lon="-0.3588">
        <ele>30</ele>
        <time>2013-09-29T13:53:09Z</time>
      </trkpt>
      <trkpt lat="44.84265" lon="-0.35893">
        <ele>31</ele>
        <time>2013-09-29T13:53:15Z</time>
      </trkpt>
      <trkpt lat="44.84253" lon="-0.359">
        <ele>32</ele>
        <time>2013-09-29T13:53:22Z</time>
      </trkpt>
      <trkpt lat="44.84248" lon="-0.35907">
        <ele>32</ele>
        <time>2013-09-29T13:53:29Z</time>
      </trkpt>
      <trkpt lat="44.84247" lon="-0.35908">
        <ele>33</ele>
        <time>2013-09-29T13:53:30Z</time>
      </trkpt>
      <trkpt lat="44.84244" lon="-0.35916">
        <ele>33</ele>
        <time>2013-09-29T13:53:38Z</time>
      </trkpt>
      <trkpt lat="44.84242" lon="-0.35919">
        <ele>33</ele>
        <time>2013-09-29T13:53:50Z</time>
      </trkpt>
      <trkpt lat="44.84241" lon="-0.3592">
        <ele>33</ele>
        <time>2013-09-29T13:53:51Z</time>
      </trkpt>
      <trkpt lat="44.84241" lon="-0.3593">
        <ele>33</ele>
        <time>2013-09-29T13:53:55Z</time>
      </trkpt>
      <trkpt lat="44.84238" lon="-0.35941">
        <ele>33</ele>
        <time>2013-09-29T13:54:00Z</time>
      </trkpt>
      <trkpt lat="44.84239" lon="-0.35948">
        <ele>32</ele>
        <time>2013-09-29T13:54:02Z</time>
      </trkpt>
      <trkpt lat="44.84236" lon="-0.35969">
        <ele>31</ele>
        <time>2013-09-29T13:54:07Z</time>
      </trkpt>
      <trkpt lat="44.84229" lon="-0.35992">
        <ele>30</ele>
        <time>2013-09-29T13:54:15Z</time>
      </trkpt>
      <trkpt lat="44.84224" lon="-0.36005">
        <ele>30</ele>
        <time>2013-09-29T13:54:22Z</time>
      </trkpt>
      <trkpt lat="44.84221" lon="-0.36009">
        <ele>30</ele>
        <time>2013-09-29T13:54:29Z</time>
      </trkpt>
      <trkpt lat="44.84217" lon="-0.36015">
        <ele>30</ele>
        <time>2013-09-29T13:54:32Z</time>
      </trkpt>
      <trkpt lat="44.84208" lon="-0.3603">
        <ele>30</ele>
        <time>2013-09-29T13:54:37Z</time>
      </trkpt>
      <trkpt lat="44.842" lon="-0.36038">
        <ele>30</ele>
        <time>2013-09-29T13:54:40Z</time>
      </trkpt>
      <trkpt lat="44.84189" lon="-0.36043">
        <ele>31</ele>
        <time>2013-09-29T13:54:42Z</time>
      </trkpt>
      <trkpt lat="44.84161" lon="-0.36052">
        <ele>32</ele>
        <time>2013-09-29T13:54:48Z</time>
      </trkpt>
      <trkpt lat="44.84141" lon="-0.36055">
        <ele>33</ele>
        <time>2013-09-29T13:54:54Z</time>
      </trkpt>
      <trkpt lat="44.84127" lon="-0.3606">
        <ele>33</ele>
        <time>2013-09-29T13:54:59Z</time>
      </trkpt>
      <trkpt lat="44.8411" lon="-0.36069">
        <ele>32</ele>
        <time>2013-09-29T13:55:04Z</time>
      </trkpt>
      <trkpt lat="44.84093" lon="-0.36074">
        <ele>31</ele>
        <time>2013-09-29T13:55:08Z</time>
      </trkpt>
      <trkpt lat="44.84074" lon="-0.36081">
        <ele>30</ele>
        <time>2013-09-29T13:55:12Z</time>
      </trkpt>
      <trkpt lat="44.84053" lon="-0.36081">
        <ele>30</ele>
        <time>2013-09-29T13:55:17Z</time>
      </trkpt>
      <trkpt lat="44.84028" lon="-0.3608">
        <ele>30</ele>
        <time>2013-09-29T13:55:23Z</time>
      </trkpt>
      <trkpt lat="44.84001" lon="-0.36082">
        <ele>31</ele>
        <time>2013-09-29T13:55:30Z</time>
      </trkpt>
      <trkpt lat="44.83974" lon="-0.36086">
        <ele>31</ele>
        <time>2013-09-29T13:55:36Z</time>
      </trkpt>
      <trkpt lat="44.83956" lon="-0.36088">
        <ele>30</ele>
        <time>2013-09-29T13:55:41Z</time>
      </trkpt>
      <trkpt lat="44.83943" lon="-0.36089">
        <ele>30</ele>
        <time>2013-09-29T13:55:47Z</time>
      </trkpt>
      <trkpt lat="44.83939" lon="-0.36089">
        <ele>31</ele>
        <time>2013-09-29T13:55:57Z</time>
      </trkpt>
      <trkpt lat="44.83931" lon="-0.3609">
        <ele>31</ele>
        <time>2013-09-29T13:56:05Z</time>
      </trkpt>
      <trkpt lat="44.83916" lon="-0.36093">
        <ele>31</ele>
        <time>2013-09-29T13:56:11Z</time>
      </trkpt>
      <trkpt lat="44.83897" lon="-0.36095">
        <ele>31</ele>
        <time>2013-09-29T13:56:17Z</time>
      </trkpt>
      <trkpt lat="44.8388" lon="-0.36099">
        <ele>32</ele>
        <time>2013-09-29T13:56:23Z</time>
      </trkpt>
      <trkpt lat="44.83856" lon="-0.36106">
        <ele>32</ele>
        <time>2013-09-29T13:56:29Z</time>
      </trkpt>
      <trkpt lat="44.83834" lon="-0.36103">
        <ele>33</ele>
        <time>2013-09-29T13:56:35Z</time>
      </trkpt>
      <trkpt lat="44.8382" lon="-0.36096">
        <ele>34</ele>
        <time>2013-09-29T13:56:40Z</time>
      </trkpt>
      <trkpt lat="44.83812" lon="-0.36091">
        <ele>35</ele>
        <time>2013-09-29T13:56:44Z</time>
      </trkpt>
      <trkpt lat="44.83794" lon="-0.36092">
        <ele>35</ele>
        <time>2013-09-29T13:56:51Z</time>
      </trkpt>
      <trkpt lat="44.83785" lon="-0.36094">
        <ele>35</ele>
        <time>2013-09-29T13:56:54Z</time>
      </trkpt>
      <trkpt lat="44.83775" lon="-0.361">
        <ele>35</ele>
        <time>2013-09-29T13:56:58Z</time>
      </trkpt>
      <trkpt lat="44.83757" lon="-0.36107">
        <ele>35</ele>
        <time>2013-09-29T13:57:06Z</time>
      </trkpt>
      <trkpt lat="44.83739" lon="-0.36112">
        <ele>34</ele>
        <time>2013-09-29T13:57:12Z</time>
      </trkpt>
      <trkpt lat="44.83722" lon="-0.36114">
        <ele>34</ele>
        <time>2013-09-29T13:57:18Z</time>
      </trkpt>
      <trkpt lat="44.83704" lon="-0.36113">
        <ele>34</ele>
        <time>2013-09-29T13:57:24Z</time>
      </trkpt>
      <trkpt lat="44.83688" lon="-0.36115">
        <ele>34</ele>
        <time>2013-09-29T13:57:29Z</time>
      </trkpt>
      <trkpt lat="44.83678" lon="-0.36111">
        <ele>34</ele>
        <time>2013-09-29T13:57:33Z</time>
      </trkpt>
      <trkpt lat="44.83656" lon="-0.36104">
        <ele>34</ele>
        <time>2013-09-29T13:57:40Z</time>
      </trkpt>
      <trkpt lat="44.83632" lon="-0.36089">
        <ele>35</ele>
        <time>2013-09-29T13:57:47Z</time>
      </trkpt>
      <trkpt lat="44.83618" lon="-0.36084">
        <ele>34</ele>
        <time>2013-09-29T13:57:52Z</time>
      </trkpt>
      <trkpt lat="44.83611" lon="-0.36076">
        <ele>34</ele>
        <time>2013-09-29T13:57:57Z</time>
      </trkpt>
      <trkpt lat="44.83611" lon="-0.36075">
        <ele>34</ele>
        <time>2013-09-29T13:58:09Z</time>
      </trkpt>
      <trkpt lat="44.83609" lon="-0.36074">
        <ele>34</ele>
        <time>2013-09-29T13:58:26Z</time>
      </trkpt>
      <trkpt lat="44.83608" lon="-0.36075">
        <ele>34</ele>
        <time>2013-09-29T13:58:42Z</time>
      </trkpt>
      <trkpt lat="44.83608" lon="-0.36075">
        <ele>34</ele>
        <time>2013-09-29T13:59:02Z</time>
      </trkpt>
      <trkpt lat="44.83608" lon="-0.36075">
        <ele>34</ele>
        <time>2013-09-29T13:59:19Z</time>
      </trkpt>
      <trkpt lat="44.83608" lon="-0.36075">
        <ele>34</ele>
        <time>2013-09-29T13:59:35Z</time>
      </trkpt>
      <trkpt lat="44.83608" lon="-0.36074">
        <ele>34</ele>
        <time>2013-09-29T13:59:57Z</time>
      </trkpt>
      <trkpt lat="44.83608" lon="-0.36075">
        <ele>34</ele>
        <time>2013-09-29T14:00:18Z</time>
      </trkpt>
      <trkpt lat="44.83608" lon="-0.36076">
        <ele>34</ele>
        <time>2013-09-29T14:00:31Z</time>
      </trkpt>
      <trkpt lat="44.83608" lon="-0.36076">
        <ele>34</ele>
        <time>2013-09-29T14:00:47Z</time>
      </trkpt>
      <trkpt lat="44.83608" lon="-0.36076">
        <ele>34</ele>
        <time>2013-09-29T14:00:59Z</time>
      </trkpt>
      <trkpt lat="44.83608" lon="-0.36076">
        <ele>34</ele>
        <time>2013-09-29T14:01:14Z</time>
      </trkpt>
      <trkpt lat="44.83608" lon="-0.36077">
        <ele>34</ele>
        <time>2013-09-29T14:01:29Z</time>
      </trkpt>
      <trkpt lat="44.83607" lon="-0.36078">
        <ele>34</ele>
        <time>2013-09-29T14:01:40Z</time>
      </trkpt>
      <trkpt lat="44.83607" lon="-0.36078">
        <ele>34</ele>
        <time>2013-09-29T14:01:53Z</time>
      </trkpt>
      <trkpt lat="44.83607" lon="-0.36078">
        <ele>34</ele>
        <time>2013-09-29T14:02:06Z</time>
      </trkpt>
      <trkpt lat="44.83607" lon="-0.36078">
        <ele>34</ele>
        <time>2013-09-29T14:02:24Z</time>
      </trkpt>
      <trkpt lat="44.83608" lon="-0.36078">
        <ele>34</ele>
        <time>2013-09-29T14:02:39Z</time>
      </trkpt>
      <trkpt lat="44.83608" lon="-0.36077">
        <ele>34</ele>
        <time>2013-09-29T14:02:53Z</time>
      </trkpt>
      <trkpt lat="44.83608" lon="-0.36077">
        <ele>34</ele>
        <time>2013-09-29T14:03:03Z</time>
      </trkpt>
      <trkpt lat="44.83607" lon="-0.36077">
        <ele>34</ele>
        <time>2013-09-29T14:03:19Z</time>
      </trkpt>
      <trkpt lat="44.83608" lon="-0.36077">
        <ele>34</ele>
        <time>2013-09-29T14:03:27Z</time>
      </trkpt>
      <trkpt lat="44.83603" lon="-0.36078">
        <ele>34</ele>
        <time>2013-09-29T14:03:31Z</time>
      </trkpt>
      <trkpt lat="44.83596" lon="-0.36079">
        <ele>33</ele>
        <time>2013-09-29T14:03:37Z</time>
      </trkpt>
      <trkpt lat="44.8358" lon="-0.3608">
        <ele>32</ele>
        <time>2013-09-29T14:03:42Z</time>
      </trkpt>
      <trkpt lat="44.83564" lon="-0.36077">
        <ele>31</ele>
        <time>2013-09-29T14:03:47Z</time>
      </trkpt>
      <trkpt lat="44.8354" lon="-0.36072">
        <ele>30</ele>
        <time>2013-09-29T14:03:53Z</time>
      </trkpt>
      <trkpt lat="44.83516" lon="-0.36065">
        <ele>30</ele>
        <time>2013-09-29T14:03:59Z</time>
      </trkpt>
      <trkpt lat="44.83486" lon="-0.36055">
        <ele>30</ele>
        <time>2013-09-29T14:04:07Z</time>
      </trkpt>
      <trkpt lat="44.83464" lon="-0.36048">
        <ele>30</ele>
        <time>2013-09-29T14:04:13Z</time>
      </trkpt>
      <trkpt lat="44.83448" lon="-0.36042">
        <ele>30</ele>
        <time>2013-09-29T14:04:19Z</time>
      </trkpt>
      <trkpt lat="44.83446" lon="-0.36041">
        <ele>30</ele>
        <time>2013-09-29T14:04:20Z</time>
      </trkpt>
      <trkpt lat="44.83433" lon="-0.36037">
        <ele>29</ele>
        <time>2013-09-29T14:04:25Z</time>
      </trkpt>
      <trkpt lat="44.8342" lon="-0.36025">
        <ele>29</ele>
        <time>2013-09-29T14:04:30Z</time>
      </trkpt>
      <trkpt lat="44.83414" lon="-0.36012">
        <ele>29</ele>
        <time>2013-09-29T14:04:33Z</time>
      </trkpt>
      <trkpt lat="44.83408" lon="-0.36002">
        <ele>30</ele>
        <time>2013-09-29T14:04:35Z</time>
      </trkpt>
      <trkpt lat="44.83393" lon="-0.35989">
        <ele>30</ele>
        <time>2013-09-29T14:04:40Z</time>
      </trkpt>
      <trkpt lat="44.83386" lon="-0.35987">
        <ele>29</ele>
        <time>2013-09-29T14:04:47Z</time>
      </trkpt>
      <trkpt lat="44.83385" lon="-0.35987">
        <ele>29</ele>
        <time>2013-09-29T14:04:58Z</time>
      </trkpt>
      <trkpt lat="44.83384" lon="-0.35986">
        <ele>29</ele>
        <time>2013-09-29T14:05:06Z</time>
      </trkpt>
      <trkpt lat="44.83384" lon="-0.35987">
        <ele>29</ele>
        <time>2013-09-29T14:05:19Z</time>
      </trkpt>
      <trkpt lat="44.83384" lon="-0.35987">
        <ele>29</ele>
        <time>2013-09-29T14:05:32Z</time>
      </trkpt>
      <trkpt lat="44.83382" lon="-0.35988">
        <ele>29</ele>
        <time>2013-09-29T14:05:40Z</time>
      </trkpt>
      <trkpt lat="44.83381" lon="-0.35994">
        <ele>29</ele>
        <time>2013-09-29T14:05:48Z</time>
      </trkpt>
      <trkpt lat="44.83381" lon="-0.35994">
        <ele>29</ele>
        <time>2013-09-29T14:05:56Z</time>
      </trkpt>
      <trkpt lat="44.83381" lon="-0.35994">
        <ele>29</ele>
        <time>2013-09-29T14:06:08Z</time>
      </trkpt>
      <trkpt lat="44.83381" lon="-0.35995">
        <ele>29</ele>
        <time>2013-09-29T14:06:19Z</time>
      </trkpt>
      <trkpt lat="44.83381" lon="-0.35994">
        <ele>29</ele>
        <time>2013-09-29T14:06:35Z</time>
      </trkpt>
      <trkpt lat="44.83381" lon="-0.35994">
        <ele>29</ele>
        <time>2013-09-29T14:06:55Z</time>
      </trkpt>
      <trkpt lat="44.8338" lon="-0.35993">
        <ele>29</ele>
        <time>2013-09-29T14:07:16Z</time>
      </trkpt>
      <trkpt lat="44.83379" lon="-0.35997">
        <ele>28</ele>
        <time>2013-09-29T14:07:22Z</time>
      </trkpt>
      <trkpt lat="44.83376" lon="-0.36008">
        <ele>28</ele>
        <time>2013-09-29T14:07:30Z</time>
      </trkpt>
      <trkpt lat="44.8337" lon="-0.36041">
        <ele>27</ele>
        <time>2013-09-29T14:07:37Z</time>
      </trkpt>
      <trkpt lat="44.83358" lon="-0.36094">
        <ele>26</ele>
        <time>2013-09-29T14:07:46Z</time>
      </trkpt>
      <trkpt lat="44.83348" lon="-0.36147">
        <ele>27</ele>
        <time>2013-09-29T14:07:55Z</time>
      </trkpt>
      <trkpt lat="44.83338" lon="-0.36195">
        <ele>28</ele>
        <time>2013-09-29T14:08:04Z</time>
      </trkpt>
      <trkpt lat="44.83332" lon="-0.36237">
        <ele>29</ele>
        <time>2013-09-29T14:08:13Z</time>
      </trkpt>
      <trkpt lat="44.83323" lon="-0.36279">
        <ele>31</ele>
        <time>2013-09-29T14:08:23Z</time>
      </trkpt>
      <trkpt lat="44.83319" lon="-0.36291">
        <ele>32</ele>
        <time>2013-09-29T14:08:27Z</time>
      </trkpt>
      <trkpt lat="44.83318" lon="-0.36294">
        <ele>33</ele>
        <time>2013-09-29T14:08:28Z</time>
      </trkpt>
      <trkpt lat="44.83317" lon="-0.36296">
        <ele>33</ele>
        <time>2013-09-29T14:08:29Z</time>
      </trkpt>
      <trkpt lat="44.83316" lon="-0.36299">
        <ele>33</ele>
        <time>2013-09-29T14:08:30Z</time>
      </trkpt>
      <trkpt lat="44.83315" lon="-0.36301">
        <ele>33</ele>
        <time>2013-09-29T14:08:31Z</time>
      </trkpt>
      <trkpt lat="44.83314" lon="-0.36302">
        <ele>33</ele>
        <time>2013-09-29T14:08:32Z</time>
      </trkpt>
      <trkpt lat="44.83314" lon="-0.36304">
        <ele>34</ele>
        <time>2013-09-29T14:08:33Z</time>
      </trkpt>
      <trkpt lat="44.83314" lon="-0.36306">
        <ele>34</ele>
        <time>2013-09-29T14:08:34Z</time>
      </trkpt>
      <trkpt lat="44.83315" lon="-0.36308">
        <ele>34</ele>
        <time>2013-09-29T14:08:35Z</time>
      </trkpt>
      <trkpt lat="44.83315" lon="-0.3631">
        <ele>34</ele>
        <time>2013-09-29T14:08:36Z</time>
      </trkpt>
      <trkpt lat="44.83315" lon="-0.36313">
        <ele>34</ele>
        <time>2013-09-29T14:08:37Z</time>
      </trkpt>
      <trkpt lat="44.83314" lon="-0.36316">
        <ele>34</ele>
        <time>2013-09-29T14:08:38Z</time>
      </trkpt>
      <trkpt lat="44.83313" lon="-0.36319">
        <ele>34</ele>
        <time>2013-09-29T14:08:39Z</time>
      </trkpt>
      <trkpt lat="44.83313" lon="-0.36322">
        <ele>35</ele>
        <time>2013-09-29T14:08:40Z</time>
      </trkpt>
      <trkpt lat="44.83312" lon="-0.36325">
        <ele>35</ele>
        <time>2013-09-29T14:08:41Z</time>
      </trkpt>
      <trkpt lat="44.83311" lon="-0.36328">
        <ele>35</ele>
        <time>2013-09-29T14:08:42Z</time>
      </trkpt>
      <trkpt lat="44.83308" lon="-0.36353">
        <ele>37</ele>
        <time>2013-09-29T14:08:49Z</time>
      </trkpt>
      <trkpt lat="44.833" lon="-0.36385">
        <ele>39</ele>
        <time>2013-09-29T14:08:58Z</time>
      </trkpt>
      <trkpt lat="44.83292" lon="-0.3641">
        <ele>41</ele>
        <time>2013-09-29T14:09:06Z</time>
      </trkpt>
      <trkpt lat="44.8329" lon="-0.36418">
        <ele>42</ele>
        <time>2013-09-29T14:09:10Z</time>
      </trkpt>
      <trkpt lat="44.83289" lon="-0.3642">
        <ele>42</ele>
        <time>2013-09-29T14:09:11Z</time>
      </trkpt>
      <trkpt lat="44.83286" lon="-0.36436">
        <ele>43</ele>
        <time>2013-09-29T14:09:18Z</time>
      </trkpt>
      <trkpt lat="44.83282" lon="-0.36454">
        <ele>45</ele>
        <time>2013-09-29T14:09:26Z</time>
      </trkpt>
      <trkpt lat="44.8328" lon="-0.36465">
        <ele>45</ele>
        <time>2013-09-29T14:09:34Z</time>
      </trkpt>
      <trkpt lat="44.83279" lon="-0.36467">
        <ele>45</ele>
        <time>2013-09-29T14:09:35Z</time>
      </trkpt>
      <trkpt lat="44.83279" lon="-0.36468">
        <ele>45</ele>
        <time>2013-09-29T14:09:36Z</time>
      </trkpt>
      <trkpt lat="44.83277" lon="-0.36468">
        <ele>45</ele>
        <time>2013-09-29T14:09:37Z</time>
      </trkpt>
      <trkpt lat="44.83276" lon="-0.36466">
        <ele>45</ele>
        <time>2013-09-29T14:09:38Z</time>
      </trkpt>
      <trkpt lat="44.83274" lon="-0.36464">
        <ele>45</ele>
        <time>2013-09-29T14:09:39Z</time>
      </trkpt>
      <trkpt lat="44.83272" lon="-0.36461">
        <ele>45</ele>
        <time>2013-09-29T14:09:40Z</time>
      </trkpt>
      <trkpt lat="44.83256" lon="-0.36439">
        <ele>44</ele>
        <time>2013-09-29T14:09:46Z</time>
      </trkpt>
      <trkpt lat="44.83242" lon="-0.36416">
        <ele>43</ele>
        <time>2013-09-29T14:09:51Z</time>
      </trkpt>
      <trkpt lat="44.83238" lon="-0.36412">
        <ele>43</ele>
        <time>2013-09-29T14:09:52Z</time>
      </trkpt>
      <trkpt lat="44.83232" lon="-0.36403">
        <ele>43</ele>
        <time>2013-09-29T14:09:54Z</time>
      </trkpt>
      <trkpt lat="44.83206" lon="-0.36374">
        <ele>41</ele>
        <time>2013-09-29T14:10:01Z</time>
      </trkpt>
      <trkpt lat="44.83202" lon="-0.36371">
        <ele>41</ele>
        <time>2013-09-29T14:10:02Z</time>
      </trkpt>
      <trkpt lat="44.83193" lon="-0.36365">
        <ele>41</ele>
        <time>2013-09-29T14:10:04Z</time>
      </trkpt>
      <trkpt lat="44.83189" lon="-0.36361">
        <ele>41</ele>
        <time>2013-09-29T14:10:05Z</time>
      </trkpt>
      <trkpt lat="44.83184" lon="-0.36358">
        <ele>41</ele>
        <time>2013-09-29T14:10:06Z</time>
      </trkpt>
      <trkpt lat="44.83139" lon="-0.36331">
        <ele>40</ele>
        <time>2013-09-29T14:10:16Z</time>
      </trkpt>
      <trkpt lat="44.83135" lon="-0.3633">
        <ele>40</ele>
        <time>2013-09-29T14:10:17Z</time>
      </trkpt>
      <trkpt lat="44.8313" lon="-0.3633">
        <ele>40</ele>
        <time>2013-09-29T14:10:18Z</time>
      </trkpt>
      <trkpt lat="44.83121" lon="-0.36332">
        <ele>40</ele>
        <time>2013-09-29T14:10:20Z</time>
      </trkpt>
      <trkpt lat="44.83117" lon="-0.36333">
        <ele>40</ele>
        <time>2013-09-29T14:10:21Z</time>
      </trkpt>
      <trkpt lat="44.83105" lon="-0.36339">
        <ele>41</ele>
        <time>2013-09-29T14:10:24Z</time>
      </trkpt>
      <trkpt lat="44.83089" lon="-0.36351">
        <ele>41</ele>
        <time>2013-09-29T14:10:29Z</time>
      </trkpt>
      <trkpt lat="44.83089" lon="-0.36354">
        <ele>41</ele>
        <time>2013-09-29T14:10:30Z</time>
      </trkpt>
      <trkpt lat="44.83089" lon="-0.36357">
        <ele>41</ele>
        <time>2013-09-29T14:10:31Z</time>
      </trkpt>
      <trkpt lat="44.83095" lon="-0.3638">
        <ele>42</ele>
        <time>2013-09-29T14:10:37Z</time>
      </trkpt>
      <trkpt lat="44.83104" lon="-0.36408">
        <ele>42</ele>
        <time>2013-09-29T14:10:44Z</time>
      </trkpt>
      <trkpt lat="44.83098" lon="-0.36426">
        <ele>43</ele>
        <time>2013-09-29T14:10:49Z</time>
      </trkpt>
      <trkpt lat="44.83077" lon="-0.36445">
        <ele>43</ele>
        <time>2013-09-29T14:10:57Z</time>
      </trkpt>
      <trkpt lat="44.8306" lon="-0.36466">
        <ele>44</ele>
        <time>2013-09-29T14:11:05Z</time>
      </trkpt>
      <trkpt lat="44.83045" lon="-0.36482">
        <ele>45</ele>
        <time>2013-09-29T14:11:12Z</time>
      </trkpt>
      <trkpt lat="44.83033" lon="-0.36492">
        <ele>46</ele>
        <time>2013-09-29T14:11:18Z</time>
      </trkpt>
      <trkpt lat="44.83023" lon="-0.36504">
        <ele>47</ele>
        <time>2013-09-29T14:11:24Z</time>
      </trkpt>
      <trkpt lat="44.83012" lon="-0.36512">
        <ele>48</ele>
        <time>2013-09-29T14:11:29Z</time>
      </trkpt>
      <trkpt lat="44.83" lon="-0.36526">
        <ele>50</ele>
        <time>2013-09-29T14:11:36Z</time>
      </trkpt>
      <trkpt lat="44.82988" lon="-0.36538">
        <ele>51</ele>
        <time>2013-09-29T14:11:43Z</time>
      </trkpt>
      <trkpt lat="44.82976" lon="-0.36548">
        <ele>53</ele>
        <time>2013-09-29T14:11:50Z</time>
      </trkpt>
      <trkpt lat="44.82975" lon="-0.3655">
        <ele>53</ele>
        <time>2013-09-29T14:11:51Z</time>
      </trkpt>
      <trkpt lat="44.82973" lon="-0.36552">
        <ele>53</ele>
        <time>2013-09-29T14:11:52Z</time>
      </trkpt>
      <trkpt lat="44.82972" lon="-0.36553">
        <ele>53</ele>
        <time>2013-09-29T14:11:53Z</time>
      </trkpt>
      <trkpt lat="44.8297" lon="-0.36554">
        <ele>53</ele>
        <time>2013-09-29T14:11:54Z</time>
      </trkpt>
      <trkpt lat="44.82968" lon="-0.36555">
        <ele>53</ele>
        <time>2013-09-29T14:11:55Z</time>
      </trkpt>
      <trkpt lat="44.82966" lon="-0.36557">
        <ele>54</ele>
        <time>2013-09-29T14:11:56Z</time>
      </trkpt>
      <trkpt lat="44.82964" lon="-0.36558">
        <ele>54</ele>
        <time>2013-09-29T14:11:57Z</time>
      </trkpt>
      <trkpt lat="44.82962" lon="-0.36559">
        <ele>54</ele>
        <time>2013-09-29T14:11:58Z</time>
      </trkpt>
      <trkpt lat="44.82949" lon="-0.36565">
        <ele>55</ele>
        <time>2013-09-29T14:12:04Z</time>
      </trkpt>
      <trkpt lat="44.82933" lon="-0.36564">
        <ele>56</ele>
        <time>2013-09-29T14:12:11Z</time>
      </trkpt>
      <trkpt lat="44.82914" lon="-0.3656">
        <ele>57</ele>
        <time>2013-09-29T14:12:19Z</time>
      </trkpt>
      <trkpt lat="44.82886" lon="-0.36548">
        <ele>57</ele>
        <time>2013-09-29T14:12:29Z</time>
      </trkpt>
      <trkpt lat="44.82848" lon="-0.36526">
        <ele>59</ele>
        <time>2013-09-29T14:12:41Z</time>
      </trkpt>
      <trkpt lat="44.82825" lon="-0.36507">
        <ele>60</ele>
        <time>2013-09-29T14:12:49Z</time>
      </trkpt>
      <trkpt lat="44.82818" lon="-0.36497">
        <ele>60</ele>
        <time>2013-09-29T14:12:53Z</time>
      </trkpt>
      <trkpt lat="44.82816" lon="-0.36496">
        <ele>60</ele>
        <time>2013-09-29T14:12:54Z</time>
      </trkpt>
      <trkpt lat="44.82813" lon="-0.36498">
        <ele>60</ele>
        <time>2013-09-29T14:12:55Z</time>
      </trkpt>
      <trkpt lat="44.82812" lon="-0.36501">
        <ele>61</ele>
        <time>2013-09-29T14:12:56Z</time>
      </trkpt>
      <trkpt lat="44.82812" lon="-0.36504">
        <ele>61</ele>
        <time>2013-09-29T14:12:57Z</time>
      </trkpt>
      <trkpt lat="44.82813" lon="-0.36507">
        <ele>61</ele>
        <time>2013-09-29T14:12:58Z</time>
      </trkpt>
      <trkpt lat="44.82814" lon="-0.3651">
        <ele>61</ele>
        <time>2013-09-29T14:12:59Z</time>
      </trkpt>
      <trkpt lat="44.82821" lon="-0.36534">
        <ele>62</ele>
        <time>2013-09-29T14:13:07Z</time>
      </trkpt>
      <trkpt lat="44.82828" lon="-0.36564">
        <ele>63</ele>
        <time>2013-09-29T14:13:16Z</time>
      </trkpt>
      <trkpt lat="44.82836" lon="-0.36587">
        <ele>63</ele>
        <time>2013-09-29T14:13:24Z</time>
      </trkpt>
      <trkpt lat="44.82846" lon="-0.36609">
        <ele>64</ele>
        <time>2013-09-29T14:13:32Z</time>
      </trkpt>
      <trkpt lat="44.82853" lon="-0.36633">
        <ele>65</ele>
        <time>2013-09-29T14:13:40Z</time>
      </trkpt>
      <trkpt lat="44.82853" lon="-0.36656">
        <ele>66</ele>
        <time>2013-09-29T14:13:47Z</time>
      </trkpt>
      <trkpt lat="44.82851" lon="-0.36682">
        <ele>68</ele>
        <time>2013-09-29T14:13:55Z</time>
      </trkpt>
      <trkpt lat="44.8285" lon="-0.36708">
        <ele>69</ele>
        <time>2013-09-29T14:14:02Z</time>
      </trkpt>
      <trkpt lat="44.82848" lon="-0.3674">
        <ele>70</ele>
        <time>2013-09-29T14:14:11Z</time>
      </trkpt>
      <trkpt lat="44.82849" lon="-0.36762">
        <ele>71</ele>
        <time>2013-09-29T14:14:18Z</time>
      </trkpt>
      <trkpt lat="44.82848" lon="-0.36782">
        <ele>72</ele>
        <time>2013-09-29T14:14:24Z</time>
      </trkpt>
      <trkpt lat="44.82845" lon="-0.368">
        <ele>73</ele>
        <time>2013-09-29T14:14:29Z</time>
      </trkpt>
      <trkpt lat="44.82843" lon="-0.36802">
        <ele>74</ele>
        <time>2013-09-29T14:14:30Z</time>
      </trkpt>
      <trkpt lat="44.8284" lon="-0.36803">
        <ele>74</ele>
        <time>2013-09-29T14:14:31Z</time>
      </trkpt>
      <trkpt lat="44.82838" lon="-0.36804">
        <ele>74</ele>
        <time>2013-09-29T14:14:32Z</time>
      </trkpt>
      <trkpt lat="44.82836" lon="-0.36805">
        <ele>74</ele>
        <time>2013-09-29T14:14:33Z</time>
      </trkpt>
      <trkpt lat="44.82834" lon="-0.36805">
        <ele>74</ele>
        <time>2013-09-29T14:14:34Z</time>
      </trkpt>
      <trkpt lat="44.82832" lon="-0.36806">
        <ele>74</ele>
        <time>2013-09-29T14:14:35Z</time>
      </trkpt>
      <trkpt lat="44.82813" lon="-0.3681">
        <ele>75</ele>
        <time>2013-09-29T14:14:43Z</time>
      </trkpt>
      <trkpt lat="44.82794" lon="-0.36809">
        <ele>75</ele>
        <time>2013-09-29T14:14:52Z</time>
      </trkpt>
      <trkpt lat="44.82767" lon="-0.36808">
        <ele>75</ele>
        <time>2013-09-29T14:15:01Z</time>
      </trkpt>
      <trkpt lat="44.82742" lon="-0.36812">
        <ele>72</ele>
        <time>2013-09-29T14:15:07Z</time>
      </trkpt>
      <trkpt lat="44.82722" lon="-0.36818">
        <ele>71</ele>
        <time>2013-09-29T14:15:12Z</time>
      </trkpt>
      <trkpt lat="44.82718" lon="-0.3682">
        <ele>70</ele>
        <time>2013-09-29T14:15:13Z</time>
      </trkpt>
      <trkpt lat="44.82714" lon="-0.36822">
        <ele>70</ele>
        <time>2013-09-29T14:15:14Z</time>
      </trkpt>
      <trkpt lat="44.82696" lon="-0.3683">
        <ele>68</ele>
        <time>2013-09-29T14:15:18Z</time>
      </trkpt>
      <trkpt lat="44.82691" lon="-0.36833">
        <ele>68</ele>
        <time>2013-09-29T14:15:19Z</time>
      </trkpt>
      <trkpt lat="44.82668" lon="-0.36856">
        <ele>65</ele>
        <time>2013-09-29T14:15:25Z</time>
      </trkpt>
      <trkpt lat="44.82644" lon="-0.36875">
        <ele>63</ele>
        <time>2013-09-29T14:15:32Z</time>
      </trkpt>
      <trkpt lat="44.82641" lon="-0.36879">
        <ele>63</ele>
        <time>2013-09-29T14:15:33Z</time>
      </trkpt>
      <trkpt lat="44.82623" lon="-0.36905">
        <ele>61</ele>
        <time>2013-09-29T14:15:38Z</time>
      </trkpt>
      <trkpt lat="44.82619" lon="-0.36911">
        <ele>61</ele>
        <time>2013-09-29T14:15:39Z</time>
      </trkpt>
      <trkpt lat="44.82615" lon="-0.36917">
        <ele>61</ele>
        <time>2013-09-29T14:15:40Z</time>
      </trkpt>
      <trkpt lat="44.82602" lon="-0.36942">
        <ele>59</ele>
        <time>2013-09-29T14:15:44Z</time>
      </trkpt>
      <trkpt lat="44.82599" lon="-0.36947">
        <ele>59</ele>
        <time>2013-09-29T14:15:45Z</time>
      </trkpt>
      <trkpt lat="44.82585" lon="-0.36978">
        <ele>57</ele>
        <time>2013-09-29T14:15:51Z</time>
      </trkpt>
      <trkpt lat="44.8257" lon="-0.37006">
        <ele>55</ele>
        <time>2013-09-29T14:15:56Z</time>
      </trkpt>
      <trkpt lat="44.8255" lon="-0.37053">
        <ele>53</ele>
        <time>2013-09-29T14:16:03Z</time>
      </trkpt>
      <trkpt lat="44.82536" lon="-0.37071">
        <ele>52</ele>
        <time>2013-09-29T14:16:08Z</time>
      </trkpt>
      <trkpt lat="44.82532" lon="-0.37074">
        <ele>52</ele>
        <time>2013-09-29T14:16:09Z</time>
      </trkpt>
      <trkpt lat="44.82529" lon="-0.37077">
        <ele>52</ele>
        <time>2013-09-29T14:16:10Z</time>
      </trkpt>
      <trkpt lat="44.82525" lon="-0.37079">
        <ele>52</ele>
        <time>2013-09-29T14:16:11Z</time>
      </trkpt>
      <trkpt lat="44.82521" lon="-0.3708">
        <ele>52</ele>
        <time>2013-09-29T14:16:12Z</time>
      </trkpt>
      <trkpt lat="44.82503" lon="-0.37088">
        <ele>51</ele>
        <time>2013-09-29T14:16:18Z</time>
      </trkpt>
      <trkpt lat="44.82495" lon="-0.37095">
        <ele>51</ele>
        <time>2013-09-29T14:16:22Z</time>
      </trkpt>
      <trkpt lat="44.82485" lon="-0.37099">
        <ele>51</ele>
        <time>2013-09-29T14:16:29Z</time>
      </trkpt>
      <trkpt lat="44.82476" lon="-0.37104">
        <ele>51</ele>
        <time>2013-09-29T14:16:35Z</time>
      </trkpt>
      <trkpt lat="44.8247" lon="-0.37108">
        <ele>51</ele>
        <time>2013-09-29T14:16:38Z</time>
      </trkpt>
      <trkpt lat="44.82454" lon="-0.37115">
        <ele>51</ele>
        <time>2013-09-29T14:16:45Z</time>
      </trkpt>
      <trkpt lat="44.82439" lon="-0.37122">
        <ele>52</ele>
        <time>2013-09-29T14:16:52Z</time>
      </trkpt>
      <trkpt lat="44.82419" lon="-0.37129">
        <ele>53</ele>
        <time>2013-09-29T14:16:59Z</time>
      </trkpt>
      <trkpt lat="44.82398" lon="-0.37129">
        <ele>53</ele>
        <time>2013-09-29T14:17:05Z</time>
      </trkpt>
      <trkpt lat="44.82382" lon="-0.37123">
        <ele>54</ele>
        <time>2013-09-29T14:17:12Z</time>
      </trkpt>
      <trkpt lat="44.82375" lon="-0.37117">
        <ele>54</ele>
        <time>2013-09-29T14:17:16Z</time>
      </trkpt>
      <trkpt lat="44.82373" lon="-0.37116">
        <ele>54</ele>
        <time>2013-09-29T14:17:17Z</time>
      </trkpt>
      <trkpt lat="44.82356" lon="-0.37114">
        <ele>55</ele>
        <time>2013-09-29T14:17:24Z</time>
      </trkpt>
      <trkpt lat="44.8234" lon="-0.37117">
        <ele>55</ele>
        <time>2013-09-29T14:17:31Z</time>
      </trkpt>
      <trkpt lat="44.82338" lon="-0.37117">
        <ele>56</ele>
        <time>2013-09-29T14:17:32Z</time>
      </trkpt>
      <trkpt lat="44.82322" lon="-0.37119">
        <ele>56</ele>
        <time>2013-09-29T14:17:39Z</time>
      </trkpt>
      <trkpt lat="44.82308" lon="-0.37122">
        <ele>57</ele>
        <time>2013-09-29T14:17:46Z</time>
      </trkpt>
      <trkpt lat="44.82294" lon="-0.37124">
        <ele>58</ele>
        <time>2013-09-29T14:17:54Z</time>
      </trkpt>
      <trkpt lat="44.82282" lon="-0.37125">
        <ele>59</ele>
        <time>2013-09-29T14:18:00Z</time>
      </trkpt>
      <trkpt lat="44.82267" lon="-0.37127">
        <ele>60</ele>
        <time>2013-09-29T14:18:08Z</time>
      </trkpt>
      <trkpt lat="44.82253" lon="-0.37125">
        <ele>62</ele>
        <time>2013-09-29T14:18:16Z</time>
      </trkpt>
      <trkpt lat="44.82244" lon="-0.37126">
        <ele>63</ele>
        <time>2013-09-29T14:18:21Z</time>
      </trkpt>
      <trkpt lat="44.82239" lon="-0.37126">
        <ele>64</ele>
        <time>2013-09-29T14:18:25Z</time>
      </trkpt>
      <trkpt lat="44.82228" lon="-0.37126">
        <ele>66</ele>
        <time>2013-09-29T14:18:33Z</time>
      </trkpt>
      <trkpt lat="44.82227" lon="-0.37126">
        <ele>66</ele>
        <time>2013-09-29T14:18:34Z</time>
      </trkpt>
      <trkpt lat="44.82224" lon="-0.37125">
        <ele>66</ele>
        <time>2013-09-29T14:18:36Z</time>
      </trkpt>
      <trkpt lat="44.82213" lon="-0.37122">
        <ele>68</ele>
        <time>2013-09-29T14:18:44Z</time>
      </trkpt>
      <trkpt lat="44.82202" lon="-0.37122">
        <ele>70</ele>
        <time>2013-09-29T14:18:51Z</time>
      </trkpt>
      <trkpt lat="44.82195" lon="-0.37121">
        <ele>71</ele>
        <time>2013-09-29T14:18:55Z</time>
      </trkpt>
      <trkpt lat="44.82186" lon="-0.37118">
        <ele>72</ele>
        <time>2013-09-29T14:19:00Z</time>
      </trkpt>
      <trkpt lat="44.82175" lon="-0.37117">
        <ele>74</ele>
        <time>2013-09-29T14:19:08Z</time>
      </trkpt>
      <trkpt lat="44.82161" lon="-0.37118">
        <ele>75</ele>
        <time>2013-09-29T14:19:16Z</time>
      </trkpt>
      <trkpt lat="44.82147" lon="-0.37119">
        <ele>76</ele>
        <time>2013-09-29T14:19:24Z</time>
      </trkpt>
      <trkpt lat="44.82136" lon="-0.37119">
        <ele>76</ele>
        <time>2013-09-29T14:19:30Z</time>
      </trkpt>
      <trkpt lat="44.82123" lon="-0.37116">
        <ele>78</ele>
        <time>2013-09-29T14:19:38Z</time>
      </trkpt>
      <trkpt lat="44.82122" lon="-0.37116">
        <ele>78</ele>
        <time>2013-09-29T14:19:39Z</time>
      </trkpt>
      <trkpt lat="44.82112" lon="-0.37114">
        <ele>79</ele>
        <time>2013-09-29T14:19:47Z</time>
      </trkpt>
      <trkpt lat="44.82101" lon="-0.37114">
        <ele>80</ele>
        <time>2013-09-29T14:19:55Z</time>
      </trkpt>
      <trkpt lat="44.82094" lon="-0.37112">
        <ele>82</ele>
        <time>2013-09-29T14:20:01Z</time>
      </trkpt>
      <trkpt lat="44.82092" lon="-0.37112">
        <ele>82</ele>
        <time>2013-09-29T14:20:02Z</time>
      </trkpt>
      <trkpt lat="44.82081" lon="-0.37111">
        <ele>83</ele>
        <time>2013-09-29T14:20:09Z</time>
      </trkpt>
      <trkpt lat="44.82078" lon="-0.37109">
        <ele>83</ele>
        <time>2013-09-29T14:20:11Z</time>
      </trkpt>
      <trkpt lat="44.82072" lon="-0.37098">
        <ele>85</ele>
        <time>2013-09-29T14:20:18Z</time>
      </trkpt>
      <trkpt lat="44.8207" lon="-0.37087">
        <ele>86</ele>
        <time>2013-09-29T14:20:24Z</time>
      </trkpt>
      <trkpt lat="44.8207" lon="-0.37083">
        <ele>86</ele>
        <time>2013-09-29T14:20:26Z</time>
      </trkpt>
      <trkpt lat="44.82068" lon="-0.37076">
        <ele>87</ele>
        <time>2013-09-29T14:20:30Z</time>
      </trkpt>
      <trkpt lat="44.82066" lon="-0.37069">
        <ele>87</ele>
        <time>2013-09-29T14:20:34Z</time>
      </trkpt>
      <trkpt lat="44.82061" lon="-0.37067">
        <ele>87</ele>
        <time>2013-09-29T14:20:38Z</time>
      </trkpt>
      <trkpt lat="44.82054" lon="-0.37066">
        <ele>88</ele>
        <time>2013-09-29T14:20:43Z</time>
      </trkpt>
      <trkpt lat="44.8204" lon="-0.37065">
        <ele>88</ele>
        <time>2013-09-29T14:20:51Z</time>
      </trkpt>
      <trkpt lat="44.82039" lon="-0.37065">
        <ele>88</ele>
        <time>2013-09-29T14:20:52Z</time>
      </trkpt>
      <trkpt lat="44.82031" lon="-0.37065">
        <ele>89</ele>
        <time>2013-09-29T14:20:57Z</time>
      </trkpt>
      <trkpt lat="44.82017" lon="-0.37067">
        <ele>89</ele>
        <time>2013-09-29T14:21:05Z</time>
      </trkpt>
      <trkpt lat="44.82011" lon="-0.3707">
        <ele>89</ele>
        <time>2013-09-29T14:21:08Z</time>
      </trkpt>
      <trkpt lat="44.82" lon="-0.3708">
        <ele>90</ele>
        <time>2013-09-29T14:21:14Z</time>
      </trkpt>
      <trkpt lat="44.81978" lon="-0.37091">
        <ele>91</ele>
        <time>2013-09-29T14:21:24Z</time>
      </trkpt>
      <trkpt lat="44.81951" lon="-0.37098">
        <ele>91</ele>
        <time>2013-09-29T14:21:35Z</time>
      </trkpt>
      <trkpt lat="44.81926" lon="-0.37105">
        <ele>92</ele>
        <time>2013-09-29T14:21:46Z</time>
      </trkpt>
      <trkpt lat="44.81911" lon="-0.37109">
        <ele>93</ele>
        <time>2013-09-29T14:21:53Z</time>
      </trkpt>
      <trkpt lat="44.81889" lon="-0.37113">
        <ele>94</ele>
        <time>2013-09-29T14:22:03Z</time>
      </trkpt>
      <trkpt lat="44.81861" lon="-0.3712">
        <ele>95</ele>
        <time>2013-09-29T14:22:13Z</time>
      </trkpt>
      <trkpt lat="44.81843" lon="-0.37128">
        <ele>96</ele>
        <time>2013-09-29T14:22:21Z</time>
      </trkpt>
      <trkpt lat="44.81835" lon="-0.37124">
        <ele>96</ele>
        <time>2013-09-29T14:22:27Z</time>
      </trkpt>
      <trkpt lat="44.81829" lon="-0.37132">
        <ele>96</ele>
        <time>2013-09-29T14:22:32Z</time>
      </trkpt>
      <trkpt lat="44.81825" lon="-0.37144">
        <ele>96</ele>
        <time>2013-09-29T14:22:38Z</time>
      </trkpt>
      <trkpt lat="44.81825" lon="-0.37144">
        <ele>96</ele>
        <time>2013-09-29T14:22:45Z</time>
      </trkpt>
      <trkpt lat="44.81822" lon="-0.37148">
        <ele>96</ele>
        <time>2013-09-29T14:22:52Z</time>
      </trkpt>
      <trkpt lat="44.81821" lon="-0.37149">
        <ele>96</ele>
        <time>2013-09-29T14:22:53Z</time>
      </trkpt>
      <trkpt lat="44.81814" lon="-0.37164">
        <ele>96</ele>
        <time>2013-09-29T14:22:59Z</time>
      </trkpt>
      <trkpt lat="44.81808" lon="-0.37177">
        <ele>96</ele>
        <time>2013-09-29T14:23:03Z</time>
      </trkpt>
      <trkpt lat="44.81793" lon="-0.37211">
        <ele>96</ele>
        <time>2013-09-29T14:23:12Z</time>
      </trkpt>
      <trkpt lat="44.81773" lon="-0.37256">
        <ele>95</ele>
        <time>2013-09-29T14:23:23Z</time>
      </trkpt>
      <trkpt lat="44.81751" lon="-0.37305">
        <ele>95</ele>
        <time>2013-09-29T14:23:34Z</time>
      </trkpt>
      <trkpt lat="44.8174" lon="-0.37329">
        <ele>94</ele>
        <time>2013-09-29T14:23:40Z</time>
      </trkpt>
      <trkpt lat="44.8172" lon="-0.37374">
        <ele>95</ele>
        <time>2013-09-29T14:23:50Z</time>
      </trkpt>
      <trkpt lat="44.817" lon="-0.37422">
        <ele>94</ele>
        <time>2013-09-29T14:23:59Z</time>
      </trkpt>
      <trkpt lat="44.81678" lon="-0.37476">
        <ele>93</ele>
        <time>2013-09-29T14:24:08Z</time>
      </trkpt>
      <trkpt lat="44.81675" lon="-0.37483">
        <ele>93</ele>
        <time>2013-09-29T14:24:09Z</time>
      </trkpt>
      <trkpt lat="44.8164" lon="-0.3756">
        <ele>93</ele>
        <time>2013-09-29T14:24:20Z</time>
      </trkpt>
      <trkpt lat="44.81616" lon="-0.37613">
        <ele>94</ele>
        <time>2013-09-29T14:24:28Z</time>
      </trkpt>
      <trkpt lat="44.81598" lon="-0.37646">
        <ele>96</ele>
        <time>2013-09-29T14:24:35Z</time>
      </trkpt>
      <trkpt lat="44.81589" lon="-0.37661">
        <ele>97</ele>
        <time>2013-09-29T14:24:39Z</time>
      </trkpt>
      <trkpt lat="44.81581" lon="-0.37654">
        <ele>96</ele>
        <time>2013-09-29T14:24:42Z</time>
      </trkpt>
      <trkpt lat="44.81576" lon="-0.37646">
        <ele>96</ele>
        <time>2013-09-29T14:24:44Z</time>
      </trkpt>
      <trkpt lat="44.81551" lon="-0.37618">
        <ele>94</ele>
        <time>2013-09-29T14:24:52Z</time>
      </trkpt>
      <trkpt lat="44.8153" lon="-0.37595">
        <ele>94</ele>
        <time>2013-09-29T14:24:59Z</time>
      </trkpt>
      <trkpt lat="44.81514" lon="-0.37581">
        <ele>94</ele>
        <time>2013-09-29T14:25:04Z</time>
      </trkpt>
      <trkpt lat="44.81487" lon="-0.37553">
        <ele>95</ele>
        <time>2013-09-29T14:25:11Z</time>
      </trkpt>
      <trkpt lat="44.81459" lon="-0.37521">
        <ele>94</ele>
        <time>2013-09-29T14:25:18Z</time>
      </trkpt>
      <trkpt lat="44.81436" lon="-0.37496">
        <ele>94</ele>
        <time>2013-09-29T14:25:25Z</time>
      </trkpt>
      <trkpt lat="44.81431" lon="-0.37487">
        <ele>94</ele>
        <time>2013-09-29T14:25:27Z</time>
      </trkpt>
      <trkpt lat="44.81426" lon="-0.37478">
        <ele>93</ele>
        <time>2013-09-29T14:25:29Z</time>
      </trkpt>
      <trkpt lat="44.81399" lon="-0.37437">
        <ele>93</ele>
        <time>2013-09-29T14:25:37Z</time>
      </trkpt>
      <trkpt lat="44.81395" lon="-0.37433">
        <ele>92</ele>
        <time>2013-09-29T14:25:38Z</time>
      </trkpt>
      <trkpt lat="44.81381" lon="-0.37414">
        <ele>91</ele>
        <time>2013-09-29T14:25:42Z</time>
      </trkpt>
      <trkpt lat="44.8137" lon="-0.3739">
        <ele>90</ele>
        <time>2013-09-29T14:25:46Z</time>
      </trkpt>
      <trkpt lat="44.81357" lon="-0.37353">
        <ele>90</ele>
        <time>2013-09-29T14:25:51Z</time>
      </trkpt>
      <trkpt lat="44.81351" lon="-0.37324">
        <ele>88</ele>
        <time>2013-09-29T14:25:55Z</time>
      </trkpt>
      <trkpt lat="44.81335" lon="-0.37286">
        <ele>85</ele>
        <time>2013-09-29T14:26:01Z</time>
      </trkpt>
      <trkpt lat="44.81325" lon="-0.37261">
        <ele>84</ele>
        <time>2013-09-29T14:26:04Z</time>
      </trkpt>
      <trkpt lat="44.81306" lon="-0.37205">
        <ele>78</ele>
        <time>2013-09-29T14:26:09Z</time>
      </trkpt>
      <trkpt lat="44.81273" lon="-0.37129">
        <ele>72</ele>
        <time>2013-09-29T14:26:15Z</time>
      </trkpt>
      <trkpt lat="44.81253" lon="-0.37081">
        <ele>68</ele>
        <time>2013-09-29T14:26:19Z</time>
      </trkpt>
      <trkpt lat="44.81247" lon="-0.37071">
        <ele>68</ele>
        <time>2013-09-29T14:26:20Z</time>
      </trkpt>
      <trkpt lat="44.81241" lon="-0.37062">
        <ele>67</ele>
        <time>2013-09-29T14:26:21Z</time>
      </trkpt>
      <trkpt lat="44.81197" lon="-0.37007">
        <ele>62</ele>
        <time>2013-09-29T14:26:28Z</time>
      </trkpt>
      <trkpt lat="44.81164" lon="-0.36962">
        <ele>55</ele>
        <time>2013-09-29T14:26:35Z</time>
      </trkpt>
      <trkpt lat="44.81141" lon="-0.36928">
        <ele>50</ele>
        <time>2013-09-29T14:26:41Z</time>
      </trkpt>
      <trkpt lat="44.81129" lon="-0.36913">
        <ele>49</ele>
        <time>2013-09-29T14:26:44Z</time>
      </trkpt>
      <trkpt lat="44.81125" lon="-0.36909">
        <ele>48</ele>
        <time>2013-09-29T14:26:45Z</time>
      </trkpt>
      <trkpt lat="44.81121" lon="-0.36906">
        <ele>48</ele>
        <time>2013-09-29T14:26:46Z</time>
      </trkpt>
      <trkpt lat="44.81117" lon="-0.36905">
        <ele>48</ele>
        <time>2013-09-29T14:26:47Z</time>
      </trkpt>
      <trkpt lat="44.81112" lon="-0.36905">
        <ele>47</ele>
        <time>2013-09-29T14:26:48Z</time>
      </trkpt>
      <trkpt lat="44.81108" lon="-0.36907">
        <ele>47</ele>
        <time>2013-09-29T14:26:49Z</time>
      </trkpt>
      <trkpt lat="44.81076" lon="-0.36922">
        <ele>47</ele>
        <time>2013-09-29T14:26:57Z</time>
      </trkpt>
      <trkpt lat="44.8106" lon="-0.36928">
        <ele>47</ele>
        <time>2013-09-29T14:27:03Z</time>
      </trkpt>
      <trkpt lat="44.81058" lon="-0.36927">
        <ele>47</ele>
        <time>2013-09-29T14:27:05Z</time>
      </trkpt>
      <trkpt lat="44.81057" lon="-0.36926">
        <ele>47</ele>
        <time>2013-09-29T14:27:06Z</time>
      </trkpt>
      <trkpt lat="44.81057" lon="-0.36923">
        <ele>46</ele>
        <time>2013-09-29T14:27:07Z</time>
      </trkpt>
      <trkpt lat="44.81057" lon="-0.3692">
        <ele>46</ele>
        <time>2013-09-29T14:27:08Z</time>
      </trkpt>
      <trkpt lat="44.81058" lon="-0.36916">
        <ele>46</ele>
        <time>2013-09-29T14:27:09Z</time>
      </trkpt>
      <trkpt lat="44.81058" lon="-0.36911">
        <ele>46</ele>
        <time>2013-09-29T14:27:10Z</time>
      </trkpt>
      <trkpt lat="44.81058" lon="-0.36907">
        <ele>46</ele>
        <time>2013-09-29T14:27:11Z</time>
      </trkpt>
      <trkpt lat="44.81056" lon="-0.36878">
        <ele>45</ele>
        <time>2013-09-29T14:27:17Z</time>
      </trkpt>
      <trkpt lat="44.81051" lon="-0.36845">
        <ele>44</ele>
        <time>2013-09-29T14:27:24Z</time>
      </trkpt>
      <trkpt lat="44.81047" lon="-0.36801">
        <ele>44</ele>
        <time>2013-09-29T14:27:32Z</time>
      </trkpt>
      <trkpt lat="44.81053" lon="-0.36769">
        <ele>44</ele>
        <time>2013-09-29T14:27:39Z</time>
      </trkpt>
      <trkpt lat="44.81058" lon="-0.36747">
        <ele>45</ele>
        <time>2013-09-29T14:27:44Z</time>
      </trkpt>
      <trkpt lat="44.81063" lon="-0.36729">
        <ele>45</ele>
        <time>2013-09-29T14:27:47Z</time>
      </trkpt>
      <trkpt lat="44.81065" lon="-0.36723">
        <ele>45</ele>
        <time>2013-09-29T14:27:48Z</time>
      </trkpt>
      <trkpt lat="44.81079" lon="-0.36679">
        <ele>45</ele>
        <time>2013-09-29T14:27:54Z</time>
      </trkpt>
      <trkpt lat="44.81084" lon="-0.36657">
        <ele>46</ele>
        <time>2013-09-29T14:27:59Z</time>
      </trkpt>
      <trkpt lat="44.81084" lon="-0.36651">
        <ele>46</ele>
        <time>2013-09-29T14:28:01Z</time>
      </trkpt>
      <trkpt lat="44.81083" lon="-0.36649">
        <ele>46</ele>
        <time>2013-09-29T14:28:02Z</time>
      </trkpt>
      <trkpt lat="44.81082" lon="-0.36647">
        <ele>46</ele>
        <time>2013-09-29T14:28:03Z</time>
      </trkpt>
      <trkpt lat="44.81081" lon="-0.36646">
        <ele>46</ele>
        <time>2013-09-29T14:28:04Z</time>
      </trkpt>
      <trkpt lat="44.8108" lon="-0.36644">
        <ele>47</ele>
        <time>2013-09-29T14:28:05Z</time>
      </trkpt>
      <trkpt lat="44.81078" lon="-0.36643">
        <ele>47</ele>
        <time>2013-09-29T14:28:06Z</time>
      </trkpt>
      <trkpt lat="44.81077" lon="-0.36641">
        <ele>47</ele>
        <time>2013-09-29T14:28:07Z</time>
      </trkpt>
      <trkpt lat="44.81071" lon="-0.36635">
        <ele>48</ele>
        <time>2013-09-29T14:28:10Z</time>
      </trkpt>
      <trkpt lat="44.8106" lon="-0.36622">
        <ele>50</ele>
        <time>2013-09-29T14:28:17Z</time>
      </trkpt>
      <trkpt lat="44.81054" lon="-0.36617">
        <ele>51</ele>
        <time>2013-09-29T14:28:21Z</time>
      </trkpt>
      <trkpt lat="44.81053" lon="-0.36615">
        <ele>51</ele>
        <time>2013-09-29T14:28:22Z</time>
      </trkpt>
      <trkpt lat="44.81051" lon="-0.36613">
        <ele>51</ele>
        <time>2013-09-29T14:28:23Z</time>
      </trkpt>
      <trkpt lat="44.81049" lon="-0.36612">
        <ele>51</ele>
        <time>2013-09-29T14:28:24Z</time>
      </trkpt>
      <trkpt lat="44.81047" lon="-0.36611">
        <ele>52</ele>
        <time>2013-09-29T14:28:25Z</time>
      </trkpt>
      <trkpt lat="44.81037" lon="-0.36601">
        <ele>54</ele>
        <time>2013-09-29T14:28:31Z</time>
      </trkpt>
      <trkpt lat="44.81024" lon="-0.36589">
        <ele>55</ele>
        <time>2013-09-29T14:28:38Z</time>
      </trkpt>
      <trkpt lat="44.8102" lon="-0.36586">
        <ele>56</ele>
        <time>2013-09-29T14:28:40Z</time>
      </trkpt>
      <trkpt lat="44.81012" lon="-0.36574">
        <ele>57</ele>
        <time>2013-09-29T14:28:46Z</time>
      </trkpt>
      <trkpt lat="44.81007" lon="-0.36567">
        <ele>57</ele>
        <time>2013-09-29T14:28:50Z</time>
      </trkpt>
      <trkpt lat="44.81006" lon="-0.36564">
        <ele>58</ele>
        <time>2013-09-29T14:28:51Z</time>
      </trkpt>
      <trkpt lat="44.81005" lon="-0.36561">
        <ele>58</ele>
        <time>2013-09-29T14:28:52Z</time>
      </trkpt>
      <trkpt lat="44.81004" lon="-0.36559">
        <ele>58</ele>
        <time>2013-09-29T14:28:53Z</time>
      </trkpt>
      <trkpt lat="44.81003" lon="-0.36556">
        <ele>58</ele>
        <time>2013-09-29T14:28:54Z</time>
      </trkpt>
      <trkpt lat="44.81002" lon="-0.36554">
        <ele>58</ele>
        <time>2013-09-29T14:28:55Z</time>
      </trkpt>
      <trkpt lat="44.81001" lon="-0.36552">
        <ele>58</ele>
        <time>2013-09-29T14:28:56Z</time>
      </trkpt>
      <trkpt lat="44.80995" lon="-0.36539">
        <ele>59</ele>
        <time>2013-09-29T14:29:02Z</time>
      </trkpt>
      <trkpt lat="44.8099" lon="-0.36523">
        <ele>60</ele>
        <time>2013-09-29T14:29:09Z</time>
      </trkpt>
      <trkpt lat="44.80984" lon="-0.36511">
        <ele>61</ele>
        <time>2013-09-29T14:29:15Z</time>
      </trkpt>
      <trkpt lat="44.80983" lon="-0.36509">
        <ele>62</ele>
        <time>2013-09-29T14:29:16Z</time>
      </trkpt>
      <trkpt lat="44.80982" lon="-0.36507">
        <ele>62</ele>
        <time>2013-09-29T14:29:17Z</time>
      </trkpt>
      <trkpt lat="44.80974" lon="-0.36489">
        <ele>64</ele>
        <time>2013-09-29T14:29:25Z</time>
      </trkpt>
      <trkpt lat="44.80968" lon="-0.36473">
        <ele>65</ele>
        <time>2013-09-29T14:29:32Z</time>
      </trkpt>
      <trkpt lat="44.80963" lon="-0.36463">
        <ele>66</ele>
        <time>2013-09-29T14:29:37Z</time>
      </trkpt>
      <trkpt lat="44.80962" lon="-0.36461">
        <ele>66</ele>
        <time>2013-09-29T14:29:38Z</time>
      </trkpt>
      <trkpt lat="44.80961" lon="-0.36459">
        <ele>66</ele>
        <time>2013-09-29T14:29:39Z</time>
      </trkpt>
      <trkpt lat="44.80961" lon="-0.36457">
        <ele>66</ele>
        <time>2013-09-29T14:29:40Z</time>
      </trkpt>
      <trkpt lat="44.8096" lon="-0.36455">
        <ele>66</ele>
        <time>2013-09-29T14:29:41Z</time>
      </trkpt>
      <trkpt lat="44.80959" lon="-0.36453">
        <ele>66</ele>
        <time>2013-09-29T14:29:42Z</time>
      </trkpt>
      <trkpt lat="44.80958" lon="-0.36452">
        <ele>67</ele>
        <time>2013-09-29T14:29:43Z</time>
      </trkpt>
      <trkpt lat="44.80957" lon="-0.36449">
        <ele>67</ele>
        <time>2013-09-29T14:29:44Z</time>
      </trkpt>
      <trkpt lat="44.80956" lon="-0.36447">
        <ele>67</ele>
        <time>2013-09-29T14:29:45Z</time>
      </trkpt>
      <trkpt lat="44.80956" lon="-0.36442">
        <ele>67</ele>
        <time>2013-09-29T14:29:47Z</time>
      </trkpt>
      <trkpt lat="44.80955" lon="-0.3644">
        <ele>68</ele>
        <time>2013-09-29T14:29:48Z</time>
      </trkpt>
      <trkpt lat="44.80955" lon="-0.36438">
        <ele>68</ele>
        <time>2013-09-29T14:29:49Z</time>
      </trkpt>
      <trkpt lat="44.80954" lon="-0.36435">
        <ele>68</ele>
        <time>2013-09-29T14:29:50Z</time>
      </trkpt>
      <trkpt lat="44.80953" lon="-0.36434">
        <ele>68</ele>
        <time>2013-09-29T14:29:51Z</time>
      </trkpt>
      <trkpt lat="44.80953" lon="-0.36432">
        <ele>68</ele>
        <time>2013-09-29T14:29:52Z</time>
      </trkpt>
      <trkpt lat="44.80952" lon="-0.36429">
        <ele>68</ele>
        <time>2013-09-29T14:29:53Z</time>
      </trkpt>
      <trkpt lat="44.80952" lon="-0.36426">
        <ele>69</ele>
        <time>2013-09-29T14:29:54Z</time>
      </trkpt>
      <trkpt lat="44.80952" lon="-0.36424">
        <ele>69</ele>
        <time>2013-09-29T14:29:55Z</time>
      </trkpt>
      <trkpt lat="44.80952" lon="-0.36421">
        <ele>69</ele>
        <time>2013-09-29T14:29:56Z</time>
      </trkpt>
      <trkpt lat="44.80952" lon="-0.3641">
        <ele>70</ele>
        <time>2013-09-29T14:30:01Z</time>
      </trkpt>
      <trkpt lat="44.8095" lon="-0.36394">
        <ele>71</ele>
        <time>2013-09-29T14:30:08Z</time>
      </trkpt>
      <trkpt lat="44.80945" lon="-0.36381">
        <ele>73</ele>
        <time>2013-09-29T14:30:15Z</time>
      </trkpt>
      <trkpt lat="44.80938" lon="-0.36367">
        <ele>75</ele>
        <time>2013-09-29T14:30:23Z</time>
      </trkpt>
      <trkpt lat="44.80933" lon="-0.36357">
        <ele>76</ele>
        <time>2013-09-29T14:30:28Z</time>
      </trkpt>
      <trkpt lat="44.80932" lon="-0.36355">
        <ele>77</ele>
        <time>2013-09-29T14:30:29Z</time>
      </trkpt>
      <trkpt lat="44.80931" lon="-0.36353">
        <ele>77</ele>
        <time>2013-09-29T14:30:30Z</time>
      </trkpt>
      <trkpt lat="44.8093" lon="-0.36351">
        <ele>77</ele>
        <time>2013-09-29T14:30:31Z</time>
      </trkpt>
      <trkpt lat="44.80929" lon="-0.3635">
        <ele>77</ele>
        <time>2013-09-29T14:30:32Z</time>
      </trkpt>
      <trkpt lat="44.80928" lon="-0.36348">
        <ele>77</ele>
        <time>2013-09-29T14:30:33Z</time>
      </trkpt>
      <trkpt lat="44.80927" lon="-0.36346">
        <ele>78</ele>
        <time>2013-09-29T14:30:34Z</time>
      </trkpt>
      <trkpt lat="44.80927" lon="-0.36344">
        <ele>78</ele>
        <time>2013-09-29T14:30:35Z</time>
      </trkpt>
      <trkpt lat="44.80925" lon="-0.36342">
        <ele>78</ele>
        <time>2013-09-29T14:30:36Z</time>
      </trkpt>
      <trkpt lat="44.80924" lon="-0.3634">
        <ele>78</ele>
        <time>2013-09-29T14:30:37Z</time>
      </trkpt>
      <trkpt lat="44.80923" lon="-0.36336">
        <ele>79</ele>
        <time>2013-09-29T14:30:39Z</time>
      </trkpt>
      <trkpt lat="44.80922" lon="-0.36334">
        <ele>79</ele>
        <time>2013-09-29T14:30:40Z</time>
      </trkpt>
      <trkpt lat="44.80921" lon="-0.36332">
        <ele>79</ele>
        <time>2013-09-29T14:30:41Z</time>
      </trkpt>
      <trkpt lat="44.8092" lon="-0.36331">
        <ele>79</ele>
        <time>2013-09-29T14:30:42Z</time>
      </trkpt>
      <trkpt lat="44.80919" lon="-0.36328">
        <ele>80</ele>
        <time>2013-09-29T14:30:43Z</time>
      </trkpt>
      <trkpt lat="44.80919" lon="-0.36327">
        <ele>80</ele>
        <time>2013-09-29T14:30:44Z</time>
      </trkpt>
      <trkpt lat="44.80918" lon="-0.36325">
        <ele>80</ele>
        <time>2013-09-29T14:30:45Z</time>
      </trkpt>
      <trkpt lat="44.80915" lon="-0.3632">
        <ele>81</ele>
        <time>2013-09-29T14:30:48Z</time>
      </trkpt>
      <trkpt lat="44.80914" lon="-0.36318">
        <ele>81</ele>
        <time>2013-09-29T14:30:49Z</time>
      </trkpt>
      <trkpt lat="44.80911" lon="-0.36313">
        <ele>81</ele>
        <time>2013-09-29T14:30:52Z</time>
      </trkpt>
      <trkpt lat="44.80911" lon="-0.36312">
        <ele>82</ele>
        <time>2013-09-29T14:30:53Z</time>
      </trkpt>
      <trkpt lat="44.8091" lon="-0.3631">
        <ele>82</ele>
        <time>2013-09-29T14:30:54Z</time>
      </trkpt>
      <trkpt lat="44.80909" lon="-0.36309">
        <ele>82</ele>
        <time>2013-09-29T14:30:55Z</time>
      </trkpt>
      <trkpt lat="44.80908" lon="-0.36307">
        <ele>82</ele>
        <time>2013-09-29T14:30:56Z</time>
      </trkpt>
      <trkpt lat="44.80908" lon="-0.36305">
        <ele>82</ele>
        <time>2013-09-29T14:30:57Z</time>
      </trkpt>
      <trkpt lat="44.80907" lon="-0.36303">
        <ele>83</ele>
        <time>2013-09-29T14:30:58Z</time>
      </trkpt>
      <trkpt lat="44.80906" lon="-0.36301">
        <ele>83</ele>
        <time>2013-09-29T14:30:59Z</time>
      </trkpt>
      <trkpt lat="44.80905" lon="-0.36299">
        <ele>83</ele>
        <time>2013-09-29T14:31:00Z</time>
      </trkpt>
      <trkpt lat="44.80905" lon="-0.36296">
        <ele>83</ele>
        <time>2013-09-29T14:31:01Z</time>
      </trkpt>
      <trkpt lat="44.80905" lon="-0.36294">
        <ele>84</ele>
        <time>2013-09-29T14:31:02Z</time>
      </trkpt>
      <trkpt lat="44.80904" lon="-0.36292">
        <ele>84</ele>
        <time>2013-09-29T14:31:03Z</time>
      </trkpt>
      <trkpt lat="44.80904" lon="-0.36289">
        <ele>84</ele>
        <time>2013-09-29T14:31:04Z</time>
      </trkpt>
      <trkpt lat="44.80903" lon="-0.36288">
        <ele>85</ele>
        <time>2013-09-29T14:31:05Z</time>
      </trkpt>
      <trkpt lat="44.80901" lon="-0.36286">
        <ele>85</ele>
        <time>2013-09-29T14:31:06Z</time>
      </trkpt>
      <trkpt lat="44.80894" lon="-0.36278">
        <ele>86</ele>
        <time>2013-09-29T14:31:13Z</time>
      </trkpt>
      <trkpt lat="44.80891" lon="-0.36274">
        <ele>87</ele>
        <time>2013-09-29T14:31:17Z</time>
      </trkpt>
      <trkpt lat="44.80889" lon="-0.36273">
        <ele>87</ele>
        <time>2013-09-29T14:31:18Z</time>
      </trkpt>
      <trkpt lat="44.80888" lon="-0.36272">
        <ele>87</ele>
        <time>2013-09-29T14:31:19Z</time>
      </trkpt>
      <trkpt lat="44.80887" lon="-0.36271">
        <ele>87</ele>
        <time>2013-09-29T14:31:20Z</time>
      </trkpt>
      <trkpt lat="44.80885" lon="-0.36271">
        <ele>87</ele>
        <time>2013-09-29T14:31:21Z</time>
      </trkpt>
      <trkpt lat="44.80884" lon="-0.3627">
        <ele>87</ele>
        <time>2013-09-29T14:31:22Z</time>
      </trkpt>
      <trkpt lat="44.80882" lon="-0.36269">
        <ele>87</ele>
        <time>2013-09-29T14:31:23Z</time>
      </trkpt>
      <trkpt lat="44.80881" lon="-0.36267">
        <ele>87</ele>
        <time>2013-09-29T14:31:24Z</time>
      </trkpt>
      <trkpt lat="44.8088" lon="-0.36266">
        <ele>87</ele>
        <time>2013-09-29T14:31:25Z</time>
      </trkpt>
      <trkpt lat="44.8087" lon="-0.36255">
        <ele>87</ele>
        <time>2013-09-29T14:31:33Z</time>
      </trkpt>
      <trkpt lat="44.8086" lon="-0.36243">
        <ele>88</ele>
        <time>2013-09-29T14:31:41Z</time>
      </trkpt>
      <trkpt lat="44.80852" lon="-0.36232">
        <ele>89</ele>
        <time>2013-09-29T14:31:48Z</time>
      </trkpt>
      <trkpt lat="44.80842" lon="-0.36219">
        <ele>90</ele>
        <time>2013-09-29T14:31:56Z</time>
      </trkpt>
      <trkpt lat="44.80832" lon="-0.36206">
        <ele>90</ele>
        <time>2013-09-29T14:32:05Z</time>
      </trkpt>
      <trkpt lat="44.80822" lon="-0.36194">
        <ele>91</ele>
        <time>2013-09-29T14:32:14Z</time>
      </trkpt>
      <trkpt lat="44.8081" lon="-0.36182">
        <ele>92</ele>
        <time>2013-09-29T14:32:23Z</time>
      </trkpt>
      <trkpt lat="44.80796" lon="-0.36169">
        <ele>92</ele>
        <time>2013-09-29T14:32:32Z</time>
      </trkpt>
      <trkpt lat="44.80783" lon="-0.36154">
        <ele>92</ele>
        <time>2013-09-29T14:32:40Z</time>
      </trkpt>
      <trkpt lat="44.80782" lon="-0.36153">
        <ele>92</ele>
        <time>2013-09-29T14:32:41Z</time>
      </trkpt>
      <trkpt lat="44.80781" lon="-0.36151">
        <ele>92</ele>
        <time>2013-09-29T14:32:42Z</time>
      </trkpt>
      <trkpt lat="44.8077" lon="-0.36138">
        <ele>92</ele>
        <time>2013-09-29T14:32:50Z</time>
      </trkpt>
      <trkpt lat="44.80763" lon="-0.36125">
        <ele>93</ele>
        <time>2013-09-29T14:32:56Z</time>
      </trkpt>
      <trkpt lat="44.80749" lon="-0.36107">
        <ele>94</ele>
        <time>2013-09-29T14:33:04Z</time>
      </trkpt>
      <trkpt lat="44.80734" lon="-0.36088">
        <ele>95</ele>
        <time>2013-09-29T14:33:14Z</time>
      </trkpt>
      <trkpt lat="44.8073" lon="-0.36085">
        <ele>95</ele>
        <time>2013-09-29T14:33:19Z</time>
      </trkpt>
      <trkpt lat="44.8073" lon="-0.36085">
        <ele>95</ele>
        <time>2013-09-29T14:33:27Z</time>
      </trkpt>
      <trkpt lat="44.8073" lon="-0.36083">
        <ele>95</ele>
        <time>2013-09-29T14:33:41Z</time>
      </trkpt>
      <trkpt lat="44.8073" lon="-0.36083">
        <ele>95</ele>
        <time>2013-09-29T14:33:57Z</time>
      </trkpt>
      <trkpt lat="44.80729" lon="-0.36084">
        <ele>95</ele>
        <time>2013-09-29T14:34:10Z</time>
      </trkpt>
      <trkpt lat="44.8073" lon="-0.36083">
        <ele>95</ele>
        <time>2013-09-29T14:34:23Z</time>
      </trkpt>
      <trkpt lat="44.8073" lon="-0.36084">
        <ele>95</ele>
        <time>2013-09-29T14:34:35Z</time>
      </trkpt>
      <trkpt lat="44.80728" lon="-0.36086">
        <ele>95</ele>
        <time>2013-09-29T14:34:46Z</time>
      </trkpt>
      <trkpt lat="44.80727" lon="-0.36089">
        <ele>94</ele>
        <time>2013-09-29T14:34:47Z</time>
      </trkpt>
      <trkpt lat="44.80724" lon="-0.36092">
        <ele>94</ele>
        <time>2013-09-29T14:34:48Z</time>
      </trkpt>
      <trkpt lat="44.80723" lon="-0.36095">
        <ele>94</ele>
        <time>2013-09-29T14:34:49Z</time>
      </trkpt>
      <trkpt lat="44.80721" lon="-0.36099">
        <ele>93</ele>
        <time>2013-09-29T14:34:50Z</time>
      </trkpt>
      <trkpt lat="44.8072" lon="-0.36102">
        <ele>93</ele>
        <time>2013-09-29T14:34:51Z</time>
      </trkpt>
      <trkpt lat="44.80719" lon="-0.36104">
        <ele>92</ele>
        <time>2013-09-29T14:34:52Z</time>
      </trkpt>
      <trkpt lat="44.80717" lon="-0.36106">
        <ele>92</ele>
        <time>2013-09-29T14:34:53Z</time>
      </trkpt>
      <trkpt lat="44.8071" lon="-0.36123">
        <ele>90</ele>
        <time>2013-09-29T14:34:58Z</time>
      </trkpt>
      <trkpt lat="44.80708" lon="-0.36129">
        <ele>89</ele>
        <time>2013-09-29T14:34:59Z</time>
      </trkpt>
      <trkpt lat="44.80707" lon="-0.36135">
        <ele>89</ele>
        <time>2013-09-29T14:35:00Z</time>
      </trkpt>
      <trkpt lat="44.80705" lon="-0.36139">
        <ele>88</ele>
        <time>2013-09-29T14:35:01Z</time>
      </trkpt>
      <trkpt lat="44.80704" lon="-0.36143">
        <ele>88</ele>
        <time>2013-09-29T14:35:02Z</time>
      </trkpt>
      <trkpt lat="44.80703" lon="-0.36147">
        <ele>87</ele>
        <time>2013-09-29T14:35:03Z</time>
      </trkpt>
      <trkpt lat="44.80702" lon="-0.36151">
        <ele>87</ele>
        <time>2013-09-29T14:35:04Z</time>
      </trkpt>
      <trkpt lat="44.80691" lon="-0.36178">
        <ele>84</ele>
        <time>2013-09-29T14:35:11Z</time>
      </trkpt>
      <trkpt lat="44.80684" lon="-0.36192">
        <ele>82</ele>
        <time>2013-09-29T14:35:16Z</time>
      </trkpt>
      <trkpt lat="44.8068" lon="-0.36198">
        <ele>82</ele>
        <time>2013-09-29T14:35:22Z</time>
      </trkpt>
      <trkpt lat="44.8068" lon="-0.362">
        <ele>81</ele>
        <time>2013-09-29T14:35:23Z</time>
      </trkpt>
      <trkpt lat="44.80679" lon="-0.36203">
        <ele>81</ele>
        <time>2013-09-29T14:35:24Z</time>
      </trkpt>
      <trkpt lat="44.80677" lon="-0.36207">
        <ele>80</ele>
        <time>2013-09-29T14:35:25Z</time>
      </trkpt>
      <trkpt lat="44.80676" lon="-0.3621">
        <ele>80</ele>
        <time>2013-09-29T14:35:26Z</time>
      </trkpt>
      <trkpt lat="44.80675" lon="-0.36213">
        <ele>79</ele>
        <time>2013-09-29T14:35:27Z</time>
      </trkpt>
      <trkpt lat="44.80674" lon="-0.36216">
        <ele>79</ele>
        <time>2013-09-29T14:35:28Z</time>
      </trkpt>
      <trkpt lat="44.80672" lon="-0.36219">
        <ele>78</ele>
        <time>2013-09-29T14:35:29Z</time>
      </trkpt>
      <trkpt lat="44.80672" lon="-0.36222">
        <ele>77</ele>
        <time>2013-09-29T14:35:30Z</time>
      </trkpt>
      <trkpt lat="44.80667" lon="-0.36236">
        <ele>75</ele>
        <time>2013-09-29T14:35:36Z</time>
      </trkpt>
      <trkpt lat="44.80665" lon="-0.3624">
        <ele>74</ele>
        <time>2013-09-29T14:35:41Z</time>
      </trkpt>
      <trkpt lat="44.80664" lon="-0.36243">
        <ele>73</ele>
        <time>2013-09-29T14:35:49Z</time>
      </trkpt>
      <trkpt lat="44.8066" lon="-0.36252">
        <ele>72</ele>
        <time>2013-09-29T14:35:56Z</time>
      </trkpt>
      <trkpt lat="44.80658" lon="-0.36258">
        <ele>71</ele>
        <time>2013-09-29T14:36:03Z</time>
      </trkpt>
      <trkpt lat="44.80648" lon="-0.36278">
        <ele>70</ele>
        <time>2013-09-29T14:36:09Z</time>
      </trkpt>
      <trkpt lat="44.80643" lon="-0.36296">
        <ele>71</ele>
        <time>2013-09-29T14:36:13Z</time>
      </trkpt>
      <trkpt lat="44.80642" lon="-0.36298">
        <ele>71</ele>
        <time>2013-09-29T14:36:14Z</time>
      </trkpt>
      <trkpt lat="44.8064" lon="-0.363">
        <ele>71</ele>
        <time>2013-09-29T14:36:15Z</time>
      </trkpt>
      <trkpt lat="44.80639" lon="-0.363">
        <ele>71</ele>
        <time>2013-09-29T14:36:16Z</time>
      </trkpt>
      <trkpt lat="44.80637" lon="-0.36299">
        <ele>71</ele>
        <time>2013-09-29T14:36:17Z</time>
      </trkpt>
      <trkpt lat="44.80633" lon="-0.36299">
        <ele>72</ele>
        <time>2013-09-29T14:36:19Z</time>
      </trkpt>
      <trkpt lat="44.80631" lon="-0.36298">
        <ele>72</ele>
        <time>2013-09-29T14:36:20Z</time>
      </trkpt>
      <trkpt lat="44.80616" lon="-0.36288">
        <ele>74</ele>
        <time>2013-09-29T14:36:28Z</time>
      </trkpt>
      <trkpt lat="44.80602" lon="-0.36274">
        <ele>76</ele>
        <time>2013-09-29T14:36:37Z</time>
      </trkpt>
      <trkpt lat="44.80591" lon="-0.36262">
        <ele>77</ele>
        <time>2013-09-29T14:36:44Z</time>
      </trkpt>
      <trkpt lat="44.80578" lon="-0.36247">
        <ele>79</ele>
        <time>2013-09-29T14:36:53Z</time>
      </trkpt>
      <trkpt lat="44.80567" lon="-0.36235">
        <ele>81</ele>
        <time>2013-09-29T14:37:01Z</time>
      </trkpt>
      <trkpt lat="44.80557" lon="-0.36225">
        <ele>83</ele>
        <time>2013-09-29T14:37:08Z</time>
      </trkpt>
      <trkpt lat="44.80548" lon="-0.36213">
        <ele>85</ele>
        <time>2013-09-29T14:37:15Z</time>
      </trkpt>
      <trkpt lat="44.80547" lon="-0.36212">
        <ele>85</ele>
        <time>2013-09-29T14:37:16Z</time>
      </trkpt>
      <trkpt lat="44.8054" lon="-0.36203">
        <ele>87</ele>
        <time>2013-09-29T14:37:23Z</time>
      </trkpt>
      <trkpt lat="44.80531" lon="-0.36192">
        <ele>88</ele>
        <time>2013-09-29T14:37:30Z</time>
      </trkpt>
      <trkpt lat="44.80519" lon="-0.36175">
        <ele>90</ele>
        <time>2013-09-29T14:37:39Z</time>
      </trkpt>
      <trkpt lat="44.8051" lon="-0.36163">
        <ele>91</ele>
        <time>2013-09-29T14:37:46Z</time>
      </trkpt>
      <trkpt lat="44.80499" lon="-0.36148">
        <ele>93</ele>
        <time>2013-09-29T14:37:54Z</time>
      </trkpt>
      <trkpt lat="44.8049" lon="-0.36135">
        <ele>94</ele>
        <time>2013-09-29T14:38:02Z</time>
      </trkpt>
      <trkpt lat="44.80482" lon="-0.36125">
        <ele>94</ele>
        <time>2013-09-29T14:38:08Z</time>
      </trkpt>
      <trkpt lat="44.80474" lon="-0.36114">
        <ele>95</ele>
        <time>2013-09-29T14:38:15Z</time>
      </trkpt>
      <trkpt lat="44.80473" lon="-0.36111">
        <ele>95</ele>
        <time>2013-09-29T14:38:17Z</time>
      </trkpt>
      <trkpt lat="44.80472" lon="-0.3611">
        <ele>95</ele>
        <time>2013-09-29T14:38:18Z</time>
      </trkpt>
      <trkpt lat="44.8047" lon="-0.36109">
        <ele>95</ele>
        <time>2013-09-29T14:38:19Z</time>
      </trkpt>
      <trkpt lat="44.80468" lon="-0.36109">
        <ele>95</ele>
        <time>2013-09-29T14:38:20Z</time>
      </trkpt>
      <trkpt lat="44.80467" lon="-0.36109">
        <ele>95</ele>
        <time>2013-09-29T14:38:21Z</time>
      </trkpt>
      <trkpt lat="44.80465" lon="-0.36109">
        <ele>95</ele>
        <time>2013-09-29T14:38:22Z</time>
      </trkpt>
      <trkpt lat="44.80463" lon="-0.3611">
        <ele>95</ele>
        <time>2013-09-29T14:38:23Z</time>
      </trkpt>
      <trkpt lat="44.8044" lon="-0.36112">
        <ele>96</ele>
        <time>2013-09-29T14:38:32Z</time>
      </trkpt>
      <trkpt lat="44.80419" lon="-0.36118">
        <ele>96</ele>
        <time>2013-09-29T14:38:40Z</time>
      </trkpt>
      <trkpt lat="44.80398" lon="-0.36122">
        <ele>96</ele>
        <time>2013-09-29T14:38:47Z</time>
      </trkpt>
      <trkpt lat="44.80361" lon="-0.36128">
        <ele>97</ele>
        <time>2013-09-29T14:38:58Z</time>
      </trkpt>
      <trkpt lat="44.80354" lon="-0.36124">
        <ele>97</ele>
        <time>2013-09-29T14:39:01Z</time>
      </trkpt>
      <trkpt lat="44.80338" lon="-0.36124">
        <ele>97</ele>
        <time>2013-09-29T14:39:09Z</time>
      </trkpt>
      <trkpt lat="44.80316" lon="-0.36121">
        <ele>97</ele>
        <time>2013-09-29T14:39:16Z</time>
      </trkpt>
      <trkpt lat="44.80288" lon="-0.36113">
        <ele>97</ele>
        <time>2013-09-29T14:39:24Z</time>
      </trkpt>
      <trkpt lat="44.80256" lon="-0.36102">
        <ele>97</ele>
        <time>2013-09-29T14:39:33Z</time>
      </trkpt>
      <trkpt lat="44.80227" lon="-0.36089">
        <ele>96</ele>
        <time>2013-09-29T14:39:42Z</time>
      </trkpt>
      <trkpt lat="44.80208" lon="-0.36082">
        <ele>96</ele>
        <time>2013-09-29T14:39:50Z</time>
      </trkpt>
      <trkpt lat="44.80191" lon="-0.36074">
        <ele>95</ele>
        <time>2013-09-29T14:39:59Z</time>
      </trkpt>
      <trkpt lat="44.80169" lon="-0.36063">
        <ele>95</ele>
        <time>2013-09-29T14:40:09Z</time>
      </trkpt>
      <trkpt lat="44.80146" lon="-0.3605">
        <ele>95</ele>
        <time>2013-09-29T14:40:16Z</time>
      </trkpt>
      <trkpt lat="44.80115" lon="-0.36026">
        <ele>94</ele>
        <time>2013-09-29T14:40:24Z</time>
      </trkpt>
      <trkpt lat="44.80107" lon="-0.3602">
        <ele>94</ele>
        <time>2013-09-29T14:40:26Z</time>
      </trkpt>
      <trkpt lat="44.8007" lon="-0.35985">
        <ele>94</ele>
        <time>2013-09-29T14:40:36Z</time>
      </trkpt>
      <trkpt lat="44.80035" lon="-0.35954">
        <ele>94</ele>
        <time>2013-09-29T14:40:45Z</time>
      </trkpt>
      <trkpt lat="44.80017" lon="-0.35938">
        <ele>95</ele>
        <time>2013-09-29T14:40:50Z</time>
      </trkpt>
      <trkpt lat="44.79984" lon="-0.35918">
        <ele>96</ele>
        <time>2013-09-29T14:40:58Z</time>
      </trkpt>
      <trkpt lat="44.79973" lon="-0.35915">
        <ele>96</ele>
        <time>2013-09-29T14:41:00Z</time>
      </trkpt>
      <trkpt lat="44.79958" lon="-0.35914">
        <ele>96</ele>
        <time>2013-09-29T14:41:03Z</time>
      </trkpt>
      <trkpt lat="44.79947" lon="-0.35915">
        <ele>96</ele>
        <time>2013-09-29T14:41:07Z</time>
      </trkpt>
      <trkpt lat="44.79934" lon="-0.35921">
        <ele>96</ele>
        <time>2013-09-29T14:41:14Z</time>
      </trkpt>
      <trkpt lat="44.7991" lon="-0.35931">
        <ele>97</ele>
        <time>2013-09-29T14:41:22Z</time>
      </trkpt>
      <trkpt lat="44.79906" lon="-0.35933">
        <ele>97</ele>
        <time>2013-09-29T14:41:23Z</time>
      </trkpt>
      <trkpt lat="44.79902" lon="-0.35936">
        <ele>97</ele>
        <time>2013-09-29T14:41:24Z</time>
      </trkpt>
      <trkpt lat="44.79897" lon="-0.35938">
        <ele>97</ele>
        <time>2013-09-29T14:41:25Z</time>
      </trkpt>
      <trkpt lat="44.79885" lon="-0.35943">
        <ele>97</ele>
        <time>2013-09-29T14:41:28Z</time>
      </trkpt>
      <trkpt lat="44.79869" lon="-0.35948">
        <ele>97</ele>
        <time>2013-09-29T14:41:32Z</time>
      </trkpt>
      <trkpt lat="44.79857" lon="-0.3595">
        <ele>97</ele>
        <time>2013-09-29T14:41:35Z</time>
      </trkpt>
      <trkpt lat="44.79841" lon="-0.35954">
        <ele>97</ele>
        <time>2013-09-29T14:41:39Z</time>
      </trkpt>
      <trkpt lat="44.79809" lon="-0.35964">
        <ele>97</ele>
        <time>2013-09-29T14:41:47Z</time>
      </trkpt>
      <trkpt lat="44.798" lon="-0.35966">
        <ele>97</ele>
        <time>2013-09-29T14:41:49Z</time>
      </trkpt>
      <trkpt lat="44.79758" lon="-0.35974">
        <ele>97</ele>
        <time>2013-09-29T14:41:59Z</time>
      </trkpt>
      <trkpt lat="44.79749" lon="-0.35975">
        <ele>97</ele>
        <time>2013-09-29T14:42:01Z</time>
      </trkpt>
      <trkpt lat="44.79744" lon="-0.35976">
        <ele>97</ele>
        <time>2013-09-29T14:42:02Z</time>
      </trkpt>
      <trkpt lat="44.79703" lon="-0.3599">
        <ele>98</ele>
        <time>2013-09-29T14:42:11Z</time>
      </trkpt>
      <trkpt lat="44.79669" lon="-0.36006">
        <ele>99</ele>
        <time>2013-09-29T14:42:19Z</time>
      </trkpt>
      <trkpt lat="44.79646" lon="-0.36017">
        <ele>100</ele>
        <time>2013-09-29T14:42:26Z</time>
      </trkpt>
      <trkpt lat="44.79622" lon="-0.36025">
        <ele>100</ele>
        <time>2013-09-29T14:42:33Z</time>
      </trkpt>
      <trkpt lat="44.79595" lon="-0.36033">
        <ele>100</ele>
        <time>2013-09-29T14:42:40Z</time>
      </trkpt>
      <trkpt lat="44.7955" lon="-0.36039">
        <ele>99</ele>
        <time>2013-09-29T14:42:50Z</time>
      </trkpt>
      <trkpt lat="44.79502" lon="-0.36044">
        <ele>100</ele>
        <time>2013-09-29T14:43:01Z</time>
      </trkpt>
      <trkpt lat="44.79456" lon="-0.36045">
        <ele>101</ele>
        <time>2013-09-29T14:43:11Z</time>
      </trkpt>
      <trkpt lat="44.79414" lon="-0.36036">
        <ele>103</ele>
        <time>2013-09-29T14:43:21Z</time>
      </trkpt>
      <trkpt lat="44.79389" lon="-0.36024">
        <ele>104</ele>
        <time>2013-09-29T14:43:29Z</time>
      </trkpt>
      <trkpt lat="44.79388" lon="-0.3602">
        <ele>104</ele>
        <time>2013-09-29T14:43:30Z</time>
      </trkpt>
      <trkpt lat="44.79388" lon="-0.36016">
        <ele>104</ele>
        <time>2013-09-29T14:43:31Z</time>
      </trkpt>
      <trkpt lat="44.79396" lon="-0.35979">
        <ele>104</ele>
        <time>2013-09-29T14:43:38Z</time>
      </trkpt>
      <trkpt lat="44.79402" lon="-0.35937">
        <ele>103</ele>
        <time>2013-09-29T14:43:46Z</time>
      </trkpt>
      <trkpt lat="44.79415" lon="-0.35869">
        <ele>102</ele>
        <time>2013-09-29T14:43:56Z</time>
      </trkpt>
      <trkpt lat="44.79426" lon="-0.3581">
        <ele>100</ele>
        <time>2013-09-29T14:44:04Z</time>
      </trkpt>
      <trkpt lat="44.79443" lon="-0.35736">
        <ele>97</ele>
        <time>2013-09-29T14:44:14Z</time>
      </trkpt>
      <trkpt lat="44.79445" lon="-0.35729">
        <ele>97</ele>
        <time>2013-09-29T14:44:15Z</time>
      </trkpt>
      <trkpt lat="44.79447" lon="-0.35722">
        <ele>97</ele>
        <time>2013-09-29T14:44:16Z</time>
      </trkpt>
      <trkpt lat="44.79462" lon="-0.35654">
        <ele>97</ele>
        <time>2013-09-29T14:44:26Z</time>
      </trkpt>
      <trkpt lat="44.79464" lon="-0.35648">
        <ele>97</ele>
        <time>2013-09-29T14:44:27Z</time>
      </trkpt>
      <trkpt lat="44.79473" lon="-0.35587">
        <ele>98</ele>
        <time>2013-09-29T14:44:37Z</time>
      </trkpt>
      <trkpt lat="44.79474" lon="-0.3556">
        <ele>99</ele>
        <time>2013-09-29T14:44:43Z</time>
      </trkpt>
      <trkpt lat="44.79476" lon="-0.3554">
        <ele>99</ele>
        <time>2013-09-29T14:44:49Z</time>
      </trkpt>
      <trkpt lat="44.79477" lon="-0.35516">
        <ele>99</ele>
        <time>2013-09-29T14:44:55Z</time>
      </trkpt>
      <trkpt lat="44.79478" lon="-0.35477">
        <ele>100</ele>
        <time>2013-09-29T14:45:04Z</time>
      </trkpt>
      <trkpt lat="44.79476" lon="-0.35453">
        <ele>100</ele>
        <time>2013-09-29T14:45:10Z</time>
      </trkpt>
      <trkpt lat="44.79473" lon="-0.3545">
        <ele>100</ele>
        <time>2013-09-29T14:45:11Z</time>
      </trkpt>
      <trkpt lat="44.7947" lon="-0.35449">
        <ele>100</ele>
        <time>2013-09-29T14:45:12Z</time>
      </trkpt>
      <trkpt lat="44.79467" lon="-0.3545">
        <ele>100</ele>
        <time>2013-09-29T14:45:13Z</time>
      </trkpt>
      <trkpt lat="44.79464" lon="-0.35451">
        <ele>100</ele>
        <time>2013-09-29T14:45:14Z</time>
      </trkpt>
      <trkpt lat="44.79461" lon="-0.35452">
        <ele>100</ele>
        <time>2013-09-29T14:45:15Z</time>
      </trkpt>
      <trkpt lat="44.79457" lon="-0.35452">
        <ele>100</ele>
        <time>2013-09-29T14:45:16Z</time>
      </trkpt>
      <trkpt lat="44.79452" lon="-0.35452">
        <ele>100</ele>
        <time>2013-09-29T14:45:17Z</time>
      </trkpt>
      <trkpt lat="44.79448" lon="-0.35453">
        <ele>100</ele>
        <time>2013-09-29T14:45:18Z</time>
      </trkpt>
      <trkpt lat="44.79443" lon="-0.35454">
        <ele>100</ele>
        <time>2013-09-29T14:45:19Z</time>
      </trkpt>
      <trkpt lat="44.79439" lon="-0.35457">
        <ele>101</ele>
        <time>2013-09-29T14:45:20Z</time>
      </trkpt>
      <trkpt lat="44.79434" lon="-0.3546">
        <ele>101</ele>
        <time>2013-09-29T14:45:21Z</time>
      </trkpt>
      <trkpt lat="44.79425" lon="-0.35465">
        <ele>101</ele>
        <time>2013-09-29T14:45:23Z</time>
      </trkpt>
      <trkpt lat="44.79381" lon="-0.35482">
        <ele>101</ele>
        <time>2013-09-29T14:45:32Z</time>
      </trkpt>
      <trkpt lat="44.79334" lon="-0.35499">
        <ele>101</ele>
        <time>2013-09-29T14:45:42Z</time>
      </trkpt>
      <trkpt lat="44.79283" lon="-0.35518">
        <ele>101</ele>
        <time>2013-09-29T14:45:53Z</time>
      </trkpt>
      <trkpt lat="44.79245" lon="-0.35533">
        <ele>101</ele>
        <time>2013-09-29T14:46:01Z</time>
      </trkpt>
      <trkpt lat="44.7924" lon="-0.35534">
        <ele>102</ele>
        <time>2013-09-29T14:46:02Z</time>
      </trkpt>
      <trkpt lat="44.79185" lon="-0.35549">
        <ele>102</ele>
        <time>2013-09-29T14:46:13Z</time>
      </trkpt>
      <trkpt lat="44.79119" lon="-0.35556">
        <ele>101</ele>
        <time>2013-09-29T14:46:25Z</time>
      </trkpt>
      <trkpt lat="44.79091" lon="-0.35557">
        <ele>100</ele>
        <time>2013-09-29T14:46:30Z</time>
      </trkpt>
      <trkpt lat="44.79086" lon="-0.35557">
        <ele>100</ele>
        <time>2013-09-29T14:46:31Z</time>
      </trkpt>
      <trkpt lat="44.79081" lon="-0.35558">
        <ele>100</ele>
        <time>2013-09-29T14:46:32Z</time>
      </trkpt>
      <trkpt lat="44.79076" lon="-0.35558">
        <ele>100</ele>
        <time>2013-09-29T14:46:33Z</time>
      </trkpt>
      <trkpt lat="44.79072" lon="-0.35559">
        <ele>99</ele>
        <time>2013-09-29T14:46:34Z</time>
      </trkpt>
      <trkpt lat="44.79051" lon="-0.35564">
        <ele>99</ele>
        <time>2013-09-29T14:46:39Z</time>
      </trkpt>
      <trkpt lat="44.79049" lon="-0.35561">
        <ele>99</ele>
        <time>2013-09-29T14:46:40Z</time>
      </trkpt>
      <trkpt lat="44.79047" lon="-0.35557">
        <ele>98</ele>
        <time>2013-09-29T14:46:41Z</time>
      </trkpt>
      <trkpt lat="44.79045" lon="-0.35555">
        <ele>98</ele>
        <time>2013-09-29T14:46:42Z</time>
      </trkpt>
      <trkpt lat="44.79042" lon="-0.35552">
        <ele>98</ele>
        <time>2013-09-29T14:46:43Z</time>
      </trkpt>
      <trkpt lat="44.7903" lon="-0.35539">
        <ele>98</ele>
        <time>2013-09-29T14:46:48Z</time>
      </trkpt>
      <trkpt lat="44.79015" lon="-0.35519">
        <ele>97</ele>
        <time>2013-09-29T14:46:55Z</time>
      </trkpt>
      <trkpt lat="44.78996" lon="-0.35494">
        <ele>96</ele>
        <time>2013-09-29T14:47:02Z</time>
      </trkpt>
      <trkpt lat="44.78993" lon="-0.35489">
        <ele>96</ele>
        <time>2013-09-29T14:47:03Z</time>
      </trkpt>
      <trkpt lat="44.78977" lon="-0.35462">
        <ele>96</ele>
        <time>2013-09-29T14:47:10Z</time>
      </trkpt>
      <trkpt lat="44.78959" lon="-0.35433">
        <ele>96</ele>
        <time>2013-09-29T14:47:17Z</time>
      </trkpt>
      <trkpt lat="44.78939" lon="-0.35406">
        <ele>96</ele>
        <time>2013-09-29T14:47:24Z</time>
      </trkpt>
      <trkpt lat="44.7893" lon="-0.35394">
        <ele>96</ele>
        <time>2013-09-29T14:47:28Z</time>
      </trkpt>
      <trkpt lat="44.78923" lon="-0.35404">
        <ele>95</ele>
        <time>2013-09-29T14:47:33Z</time>
      </trkpt>
      <trkpt lat="44.78915" lon="-0.35424">
        <ele>95</ele>
        <time>2013-09-29T14:47:38Z</time>
      </trkpt>
      <trkpt lat="44.78902" lon="-0.35427">
        <ele>94</ele>
        <time>2013-09-29T14:47:42Z</time>
      </trkpt>
      <trkpt lat="44.78896" lon="-0.35423">
        <ele>94</ele>
        <time>2013-09-29T14:47:44Z</time>
      </trkpt>
      <trkpt lat="44.78875" lon="-0.3541">
        <ele>93</ele>
        <time>2013-09-29T14:47:51Z</time>
      </trkpt>
      <trkpt lat="44.78854" lon="-0.35391">
        <ele>91</ele>
        <time>2013-09-29T14:47:58Z</time>
      </trkpt>
      <trkpt lat="44.78851" lon="-0.35387">
        <ele>90</ele>
        <time>2013-09-29T14:47:59Z</time>
      </trkpt>
      <trkpt lat="44.78841" lon="-0.35368">
        <ele>90</ele>
        <time>2013-09-29T14:48:03Z</time>
      </trkpt>
      <trkpt lat="44.7884" lon="-0.35363">
        <ele>90</ele>
        <time>2013-09-29T14:48:04Z</time>
      </trkpt>
      <trkpt lat="44.78824" lon="-0.35324">
        <ele>88</ele>
        <time>2013-09-29T14:48:11Z</time>
      </trkpt>
      <trkpt lat="44.78808" lon="-0.35294">
        <ele>87</ele>
        <time>2013-09-29T14:48:17Z</time>
      </trkpt>
      <trkpt lat="44.78799" lon="-0.35286">
        <ele>86</ele>
        <time>2013-09-29T14:48:19Z</time>
      </trkpt>
      <trkpt lat="44.78766" lon="-0.35249">
        <ele>82</ele>
        <time>2013-09-29T14:48:26Z</time>
      </trkpt>
      <trkpt lat="44.78749" lon="-0.3523">
        <ele>81</ele>
        <time>2013-09-29T14:48:30Z</time>
      </trkpt>
      <trkpt lat="44.78745" lon="-0.35226">
        <ele>80</ele>
        <time>2013-09-29T14:48:31Z</time>
      </trkpt>
      <trkpt lat="44.78741" lon="-0.35223">
        <ele>79</ele>
        <time>2013-09-29T14:48:32Z</time>
      </trkpt>
      <trkpt lat="44.78736" lon="-0.35221">
        <ele>79</ele>
        <time>2013-09-29T14:48:33Z</time>
      </trkpt>
      <trkpt lat="44.78732" lon="-0.35218">
        <ele>78</ele>
        <time>2013-09-29T14:48:34Z</time>
      </trkpt>
      <trkpt lat="44.78724" lon="-0.35211">
        <ele>76</ele>
        <time>2013-09-29T14:48:36Z</time>
      </trkpt>
      <trkpt lat="44.7872" lon="-0.35206">
        <ele>75</ele>
        <time>2013-09-29T14:48:37Z</time>
      </trkpt>
      <trkpt lat="44.78717" lon="-0.35202">
        <ele>75</ele>
        <time>2013-09-29T14:48:38Z</time>
      </trkpt>
      <trkpt lat="44.78715" lon="-0.35197">
        <ele>74</ele>
        <time>2013-09-29T14:48:39Z</time>
      </trkpt>
      <trkpt lat="44.78712" lon="-0.35192">
        <ele>73</ele>
        <time>2013-09-29T14:48:40Z</time>
      </trkpt>
      <trkpt lat="44.78695" lon="-0.35162">
        <ele>71</ele>
        <time>2013-09-29T14:48:46Z</time>
      </trkpt>
      <trkpt lat="44.78686" lon="-0.35149">
        <ele>70</ele>
        <time>2013-09-29T14:48:50Z</time>
      </trkpt>
      <trkpt lat="44.78684" lon="-0.35148">
        <ele>70</ele>
        <time>2013-09-29T14:48:51Z</time>
      </trkpt>
      <trkpt lat="44.78682" lon="-0.35147">
        <ele>70</ele>
        <time>2013-09-29T14:48:52Z</time>
      </trkpt>
      <trkpt lat="44.7868" lon="-0.35147">
        <ele>70</ele>
        <time>2013-09-29T14:48:53Z</time>
      </trkpt>
      <trkpt lat="44.78679" lon="-0.35147">
        <ele>70</ele>
        <time>2013-09-29T14:48:54Z</time>
      </trkpt>
      <trkpt lat="44.7867" lon="-0.35147">
        <ele>69</ele>
        <time>2013-09-29T14:48:59Z</time>
      </trkpt>
      <trkpt lat="44.78668" lon="-0.35145">
        <ele>69</ele>
        <time>2013-09-29T14:49:00Z</time>
      </trkpt>
      <trkpt lat="44.78666" lon="-0.35142">
        <ele>69</ele>
        <time>2013-09-29T14:49:01Z</time>
      </trkpt>
      <trkpt lat="44.78664" lon="-0.35141">
        <ele>69</ele>
        <time>2013-09-29T14:49:02Z</time>
      </trkpt>
      <trkpt lat="44.78663" lon="-0.35141">
        <ele>69</ele>
        <time>2013-09-29T14:49:03Z</time>
      </trkpt>
      <trkpt lat="44.78661" lon="-0.3514">
        <ele>70</ele>
        <time>2013-09-29T14:49:04Z</time>
      </trkpt>
      <trkpt lat="44.7866" lon="-0.35138">
        <ele>70</ele>
        <time>2013-09-29T14:49:05Z</time>
      </trkpt>
      <trkpt lat="44.78659" lon="-0.35136">
        <ele>70</ele>
        <time>2013-09-29T14:49:06Z</time>
      </trkpt>
      <trkpt lat="44.78657" lon="-0.35135">
        <ele>70</ele>
        <time>2013-09-29T14:49:07Z</time>
      </trkpt>
      <trkpt lat="44.78656" lon="-0.35134">
        <ele>70</ele>
        <time>2013-09-29T14:49:08Z</time>
      </trkpt>
      <trkpt lat="44.78654" lon="-0.35133">
        <ele>70</ele>
        <time>2013-09-29T14:49:09Z</time>
      </trkpt>
      <trkpt lat="44.78638" lon="-0.35121">
        <ele>72</ele>
        <time>2013-09-29T14:49:17Z</time>
      </trkpt>
      <trkpt lat="44.7863" lon="-0.35112">
        <ele>73</ele>
        <time>2013-09-29T14:49:22Z</time>
      </trkpt>
      <trkpt lat="44.78618" lon="-0.35095">
        <ele>76</ele>
        <time>2013-09-29T14:49:30Z</time>
      </trkpt>
      <trkpt lat="44.78609" lon="-0.35086">
        <ele>78</ele>
        <time>2013-09-29T14:49:36Z</time>
      </trkpt>
      <trkpt lat="44.78599" lon="-0.35077">
        <ele>79</ele>
        <time>2013-09-29T14:49:43Z</time>
      </trkpt>
      <trkpt lat="44.78587" lon="-0.35065">
        <ele>81</ele>
        <time>2013-09-29T14:49:52Z</time>
      </trkpt>
      <trkpt lat="44.78578" lon="-0.35059">
        <ele>83</ele>
        <time>2013-09-29T14:49:59Z</time>
      </trkpt>
      <trkpt lat="44.78571" lon="-0.3505">
        <ele>83</ele>
        <time>2013-09-29T14:50:06Z</time>
      </trkpt>
      <trkpt lat="44.78562" lon="-0.35043">
        <ele>84</ele>
        <time>2013-09-29T14:50:13Z</time>
      </trkpt>
      <trkpt lat="44.78554" lon="-0.35038">
        <ele>85</ele>
        <time>2013-09-29T14:50:18Z</time>
      </trkpt>
      <trkpt lat="44.78553" lon="-0.35037">
        <ele>85</ele>
        <time>2013-09-29T14:50:19Z</time>
      </trkpt>
      <trkpt lat="44.78552" lon="-0.35036">
        <ele>85</ele>
        <time>2013-09-29T14:50:20Z</time>
      </trkpt>
      <trkpt lat="44.78545" lon="-0.3503">
        <ele>86</ele>
        <time>2013-09-29T14:50:27Z</time>
      </trkpt>
      <trkpt lat="44.78539" lon="-0.35023">
        <ele>87</ele>
        <time>2013-09-29T14:50:34Z</time>
      </trkpt>
      <trkpt lat="44.78531" lon="-0.35013">
        <ele>88</ele>
        <time>2013-09-29T14:50:42Z</time>
      </trkpt>
      <trkpt lat="44.78523" lon="-0.35001">
        <ele>88</ele>
        <time>2013-09-29T14:50:51Z</time>
      </trkpt>
      <trkpt lat="44.78514" lon="-0.34989">
        <ele>89</ele>
        <time>2013-09-29T14:50:59Z</time>
      </trkpt>
      <trkpt lat="44.78503" lon="-0.34982">
        <ele>90</ele>
        <time>2013-09-29T14:51:07Z</time>
      </trkpt>
      <trkpt lat="44.78501" lon="-0.34981">
        <ele>90</ele>
        <time>2013-09-29T14:51:08Z</time>
      </trkpt>
      <trkpt lat="44.78497" lon="-0.3498">
        <ele>90</ele>
        <time>2013-09-29T14:51:11Z</time>
      </trkpt>
      <trkpt lat="44.78496" lon="-0.34979">
        <ele>90</ele>
        <time>2013-09-29T14:51:12Z</time>
      </trkpt>
      <trkpt lat="44.78487" lon="-0.34966">
        <ele>91</ele>
        <time>2013-09-29T14:51:20Z</time>
      </trkpt>
      <trkpt lat="44.78472" lon="-0.34953">
        <ele>92</ele>
        <time>2013-09-29T14:51:29Z</time>
      </trkpt>
      <trkpt lat="44.78459" lon="-0.34945">
        <ele>92</ele>
        <time>2013-09-29T14:51:37Z</time>
      </trkpt>
      <trkpt lat="44.78457" lon="-0.34944">
        <ele>92</ele>
        <time>2013-09-29T14:51:38Z</time>
      </trkpt>
      <trkpt lat="44.78455" lon="-0.34943">
        <ele>92</ele>
        <time>2013-09-29T14:51:39Z</time>
      </trkpt>
      <trkpt lat="44.78453" lon="-0.34942">
        <ele>92</ele>
        <time>2013-09-29T14:51:40Z</time>
      </trkpt>
      <trkpt lat="44.78452" lon="-0.34941">
        <ele>92</ele>
        <time>2013-09-29T14:51:41Z</time>
      </trkpt>
      <trkpt lat="44.78449" lon="-0.3494">
        <ele>92</ele>
        <time>2013-09-29T14:51:42Z</time>
      </trkpt>
      <trkpt lat="44.78436" lon="-0.34932">
        <ele>93</ele>
        <time>2013-09-29T14:51:49Z</time>
      </trkpt>
      <trkpt lat="44.78415" lon="-0.34923">
        <ele>95</ele>
        <time>2013-09-29T14:51:59Z</time>
      </trkpt>
      <trkpt lat="44.78399" lon="-0.34918">
        <ele>95</ele>
        <time>2013-09-29T14:52:07Z</time>
      </trkpt>
      <trkpt lat="44.78377" lon="-0.34912">
        <ele>96</ele>
        <time>2013-09-29T14:52:17Z</time>
      </trkpt>
      <trkpt lat="44.78359" lon="-0.34906">
        <ele>96</ele>
        <time>2013-09-29T14:52:25Z</time>
      </trkpt>
      <trkpt lat="44.78349" lon="-0.34903">
        <ele>96</ele>
        <time>2013-09-29T14:52:30Z</time>
      </trkpt>
      <trkpt lat="44.78336" lon="-0.34899">
        <ele>96</ele>
        <time>2013-09-29T14:52:37Z</time>
      </trkpt>
      <trkpt lat="44.78321" lon="-0.34893">
        <ele>96</ele>
        <time>2013-09-29T14:52:44Z</time>
      </trkpt>
      <trkpt lat="44.78315" lon="-0.34889">
        <ele>96</ele>
        <time>2013-09-29T14:52:51Z</time>
      </trkpt>
      <trkpt lat="44.78315" lon="-0.34889">
        <ele>96</ele>
        <time>2013-09-29T14:53:02Z</time>
      </trkpt>
      <trkpt lat="44.78314" lon="-0.34888">
        <ele>96</ele>
        <time>2013-09-29T14:53:15Z</time>
      </trkpt>
      <trkpt lat="44.78315" lon="-0.34889">
        <ele>96</ele>
        <time>2013-09-29T14:53:21Z</time>
      </trkpt>
      <trkpt lat="44.78314" lon="-0.34889">
        <ele>96</ele>
        <time>2013-09-29T14:53:30Z</time>
      </trkpt>
      <trkpt lat="44.78315" lon="-0.34888">
        <ele>96</ele>
        <time>2013-09-29T14:53:39Z</time>
      </trkpt>
      <trkpt lat="44.78315" lon="-0.34888">
        <ele>96</ele>
        <time>2013-09-29T14:53:55Z</time>
      </trkpt>
      <trkpt lat="44.78314" lon="-0.34888">
        <ele>96</ele>
        <time>2013-09-29T14:54:08Z</time>
      </trkpt>
      <trkpt lat="44.78314" lon="-0.34888">
        <ele>96</ele>
        <time>2013-09-29T14:54:11Z</time>
      </trkpt>
      <trkpt lat="44.78313" lon="-0.34887">
        <ele>96</ele>
        <time>2013-09-29T14:54:12Z</time>
      </trkpt>
      <trkpt lat="44.78311" lon="-0.34886">
        <ele>96</ele>
        <time>2013-09-29T14:54:13Z</time>
      </trkpt>
      <trkpt lat="44.78295" lon="-0.34876">
        <ele>96</ele>
        <time>2013-09-29T14:54:20Z</time>
      </trkpt>
      <trkpt lat="44.78269" lon="-0.34861">
        <ele>96</ele>
        <time>2013-09-29T14:54:30Z</time>
      </trkpt>
      <trkpt lat="44.78254" lon="-0.34852">
        <ele>96</ele>
        <time>2013-09-29T14:54:37Z</time>
      </trkpt>
      <trkpt lat="44.78242" lon="-0.34844">
        <ele>97</ele>
        <time>2013-09-29T14:54:42Z</time>
      </trkpt>
      <trkpt lat="44.78239" lon="-0.34846">
        <ele>97</ele>
        <time>2013-09-29T14:54:43Z</time>
      </trkpt>
      <trkpt lat="44.78237" lon="-0.34848">
        <ele>97</ele>
        <time>2013-09-29T14:54:44Z</time>
      </trkpt>
      <trkpt lat="44.78211" lon="-0.34866">
        <ele>97</ele>
        <time>2013-09-29T14:54:51Z</time>
      </trkpt>
      <trkpt lat="44.78203" lon="-0.34871">
        <ele>98</ele>
        <time>2013-09-29T14:54:53Z</time>
      </trkpt>
      <trkpt lat="44.78199" lon="-0.34873">
        <ele>98</ele>
        <time>2013-09-29T14:54:54Z</time>
      </trkpt>
      <trkpt lat="44.78196" lon="-0.34876">
        <ele>98</ele>
        <time>2013-09-29T14:54:55Z</time>
      </trkpt>
      <trkpt lat="44.78193" lon="-0.34878">
        <ele>98</ele>
        <time>2013-09-29T14:54:56Z</time>
      </trkpt>
      <trkpt lat="44.78189" lon="-0.34881">
        <ele>98</ele>
        <time>2013-09-29T14:54:57Z</time>
      </trkpt>
      <trkpt lat="44.78186" lon="-0.34883">
        <ele>99</ele>
        <time>2013-09-29T14:54:58Z</time>
      </trkpt>
      <trkpt lat="44.78164" lon="-0.34896">
        <ele>100</ele>
        <time>2013-09-29T14:55:05Z</time>
      </trkpt>
      <trkpt lat="44.78142" lon="-0.3491">
        <ele>100</ele>
        <time>2013-09-29T14:55:12Z</time>
      </trkpt>
      <trkpt lat="44.78116" lon="-0.34926">
        <ele>101</ele>
        <time>2013-09-29T14:55:19Z</time>
      </trkpt>
      <trkpt lat="44.78092" lon="-0.34941">
        <ele>101</ele>
        <time>2013-09-29T14:55:26Z</time>
      </trkpt>
      <trkpt lat="44.78062" lon="-0.34955">
        <ele>102</ele>
        <time>2013-09-29T14:55:34Z</time>
      </trkpt>
      <trkpt lat="44.78035" lon="-0.34964">
        <ele>102</ele>
        <time>2013-09-29T14:55:41Z</time>
      </trkpt>
      <trkpt lat="44.78017" lon="-0.34972">
        <ele>103</ele>
        <time>2013-09-29T14:55:46Z</time>
      </trkpt>
      <trkpt lat="44.78013" lon="-0.34973">
        <ele>103</ele>
        <time>2013-09-29T14:55:47Z</time>
      </trkpt>
      <trkpt lat="44.77978" lon="-0.3498">
        <ele>103</ele>
        <time>2013-09-29T14:55:56Z</time>
      </trkpt>
      <trkpt lat="44.77947" lon="-0.34994">
        <ele>103</ele>
        <time>2013-09-29T14:56:04Z</time>
      </trkpt>
      <trkpt lat="44.77928" lon="-0.35023">
        <ele>103</ele>
        <time>2013-09-29T14:56:11Z</time>
      </trkpt>
      <trkpt lat="44.77917" lon="-0.35046">
        <ele>103</ele>
        <time>2013-09-29T14:56:16Z</time>
      </trkpt>
      <trkpt lat="44.77914" lon="-0.3505">
        <ele>103</ele>
        <time>2013-09-29T14:56:17Z</time>
      </trkpt>
      <trkpt lat="44.77911" lon="-0.35053">
        <ele>103</ele>
        <time>2013-09-29T14:56:18Z</time>
      </trkpt>
      <trkpt lat="44.77907" lon="-0.35054">
        <ele>103</ele>
        <time>2013-09-29T14:56:19Z</time>
      </trkpt>
      <trkpt lat="44.77904" lon="-0.35056">
        <ele>103</ele>
        <time>2013-09-29T14:56:20Z</time>
      </trkpt>
      <trkpt lat="44.779" lon="-0.35056">
        <ele>103</ele>
        <time>2013-09-29T14:56:21Z</time>
      </trkpt>
      <trkpt lat="44.77897" lon="-0.35055">
        <ele>103</ele>
        <time>2013-09-29T14:56:22Z</time>
      </trkpt>
      <trkpt lat="44.77894" lon="-0.35054">
        <ele>103</ele>
        <time>2013-09-29T14:56:23Z</time>
      </trkpt>
      <trkpt lat="44.77891" lon="-0.35052">
        <ele>103</ele>
        <time>2013-09-29T14:56:24Z</time>
      </trkpt>
      <trkpt lat="44.77888" lon="-0.35051">
        <ele>103</ele>
        <time>2013-09-29T14:56:25Z</time>
      </trkpt>
      <trkpt lat="44.77868" lon="-0.35047">
        <ele>102</ele>
        <time>2013-09-29T14:56:31Z</time>
      </trkpt>
      <trkpt lat="44.77838" lon="-0.35038">
        <ele>102</ele>
        <time>2013-09-29T14:56:39Z</time>
      </trkpt>
      <trkpt lat="44.77805" lon="-0.35035">
        <ele>102</ele>
        <time>2013-09-29T14:56:47Z</time>
      </trkpt>
      <trkpt lat="44.77798" lon="-0.35036">
        <ele>102</ele>
        <time>2013-09-29T14:56:49Z</time>
      </trkpt>
      <trkpt lat="44.77793" lon="-0.35036">
        <ele>102</ele>
        <time>2013-09-29T14:56:50Z</time>
      </trkpt>
      <trkpt lat="44.77766" lon="-0.35044">
        <ele>101</ele>
        <time>2013-09-29T14:56:57Z</time>
      </trkpt>
      <trkpt lat="44.77761" lon="-0.35048">
        <ele>101</ele>
        <time>2013-09-29T14:56:59Z</time>
      </trkpt>
      <trkpt lat="44.77758" lon="-0.35048">
        <ele>101</ele>
        <time>2013-09-29T14:57:00Z</time>
      </trkpt>
      <trkpt lat="44.7775" lon="-0.35044">
        <ele>101</ele>
        <time>2013-09-29T14:57:02Z</time>
      </trkpt>
      <trkpt lat="44.77711" lon="-0.35014">
        <ele>100</ele>
        <time>2013-09-29T14:57:11Z</time>
      </trkpt>
      <trkpt lat="44.77706" lon="-0.35011">
        <ele>100</ele>
        <time>2013-09-29T14:57:12Z</time>
      </trkpt>
      <trkpt lat="44.77698" lon="-0.35004">
        <ele>100</ele>
        <time>2013-09-29T14:57:14Z</time>
      </trkpt>
      <trkpt lat="44.77694" lon="-0.35001">
        <ele>100</ele>
        <time>2013-09-29T14:57:15Z</time>
      </trkpt>
      <trkpt lat="44.77675" lon="-0.34989">
        <ele>99</ele>
        <time>2013-09-29T14:57:20Z</time>
      </trkpt>
    </trkseg>
  </trk>
</gpx>